[[{"header":{"parameterUnit":"m.s-1","parameterCategory":1,"la1":30.6,"la2":29.2853,"lo1":-89.7004,"lo2":-87.6739,"dy":0.0162,"dx":0.0183,"nx":112,"ny":82,"refTime":"2025-04-16T06:00:00:Z","depth":0,"parameterNumber":2,"parameterNumberName":"U-component_of_WINDS"},"data":[0.0,0.0,0.0,0.0,0.0,0.0,0.0,0.0,0.0,0.0,0.0,0.0,0.0,0.0,0.0,0.0,0.0,0.0,0.0,0.0,0.0,0.0,0.0,0.0,0.0,0.0,0.0,0.0,0.0,0.0,0.0,0.0,0.0,0.0,0.0,0.0,0.0,0.0,0.0,0.0,0.0,0.0,0.0,0.0,0.0,0.0,0.0,0.0,0.0,0.0,0.0,0.0,0.0,0.0,0.0,0.0,0.0,0.0,0.0,0.0,0.0,0.0,0.0,0.0,0.0,0.0,0.0,0.0,0.0,0.0,0.0,0.0,0.0,0.0,0.0,0.0,0.0,0.0,0.0,0.0,0.0,0.0,0.0,0.0,0.0,0.0,0.0,0.0,0.0,0.0,-5.5225,-5.7905,-5.952,-6.0034,-5.9074,-5.7556,-5.5592,-5.3188,0.0,0.0,0.0,0.0,0.0,0.0,0.0,0.0,0.0,0.0,0.0,0.0,0.0,0.0,0.0,0.0,0.0,0.0,0.0,0.0,0.0,0.0,0.0,0.0,0.0,0.0,0.0,0.0,0.0,0.0,0.0,0.0,0.0,0.0,0.0,0.0,0.0,0.0,0.0,0.0,0.0,0.0,0.0,0.0,0.0,0.0,0.0,0.0,0.0,0.0,0.0,0.0,0.0,0.0,0.0,0.0,0.0,0.0,0.0,0.0,0.0,0.0,0.0,0.0,0.0,0.0,0.0,0.0,0.0,0.0,0.0,0.0,0.0,0.0,0.0,0.0,0.0,0.0,0.0,0.0,0.0,0.0,0.0,0.0,0.0,0.0,0.0,0.0,0.0,0.0,0.0,0.0,0.0,0.0,0.0,0.0,0.0,0.0,0.0,0.0,0.0,0.0,0.0,0.0,-5.484,-5.8597,-5.985,-5.9813,-5.8309,-5.6712,-5.4748,-5.2325,0.0,0.0,0.0,0.0,0.0,0.0,0.0,0.0,0.0,0.0,0.0,0.0,0.0,0.0,0.0,0.0,0.0,0.0,0.0,0.0,0.0,0.0,0.0,0.0,0.0,0.0,0.0,0.0,0.0,0.0,0.0,0.0,0.0,0.0,0.0,0.0,0.0,0.0,0.0,0.0,0.0,0.0,0.0,0.0,0.0,0.0,0.0,0.0,0.0,0.0,0.0,0.0,0.0,0.0,0.0,0.0,0.0,0.0,0.0,0.0,0.0,0.0,0.0,0.0,0.0,0.0,0.0,0.0,0.0,0.0,0.0,0.0,0.0,0.0,0.0,0.0,0.0,0.0,0.0,0.0,0.0,0.0,0.0,0.0,0.0,0.0,0.0,0.0,0.0,0.0,0.0,0.0,0.0,0.0,0.0,0.0,0.0,0.0,0.0,0.0,0.0,0.0,0.0,-5.4051,-5.5537,-5.8272,-5.9281,-5.9116,-5.7483,-5.6271,-5.4564,-5.2142,-5.1591,0.0,0.0,0.0,0.0,0.0,0.0,0.0,0.0,0.0,0.0,0.0,0.0,0.0,0.0,0.0,0.0,0.0,0.0,0.0,0.0,0.0,0.0,0.0,0.0,0.0,0.0,0.0,0.0,0.0,0.0,0.0,0.0,0.0,0.0,0.0,0.0,0.0,0.0,0.0,0.0,0.0,0.0,0.0,0.0,0.0,0.0,0.0,0.0,0.0,0.0,0.0,0.0,0.0,0.0,0.0,0.0,0.0,0.0,0.0,0.0,0.0,0.0,0.0,0.0,0.0,0.0,0.0,0.0,0.0,0.0,0.0,0.0,0.0,0.0,0.0,0.0,0.0,0.0,0.0,0.0,0.0,0.0,0.0,0.0,0.0,0.0,0.0,0.0,0.0,0.0,0.0,0.0,0.0,0.0,0.0,0.0,0.0,0.0,0.0,0.0,0.0,0.0,-5.5281,-5.6177,-5.7604,-5.8618,-5.845,-5.6675,-5.5776,-5.4289,-5.1867,-5.0949,0.0,0.0,0.0,0.0,0.0,0.0,0.0,0.0,0.0,0.0,0.0,0.0,0.0,0.0,0.0,0.0,0.0,0.0,0.0,0.0,0.0,0.0,0.0,0.0,0.0,0.0,0.0,0.0,0.0,0.0,0.0,0.0,0.0,0.0,0.0,0.0,0.0,0.0,0.0,0.0,0.0,0.0,0.0,0.0,0.0,0.0,0.0,0.0,0.0,0.0,0.0,0.0,0.0,0.0,0.0,0.0,0.0,0.0,0.0,0.0,0.0,0.0,0.0,0.0,0.0,0.0,0.0,0.0,0.0,0.0,0.0,0.0,0.0,0.0,0.0,0.0,0.0,0.0,0.0,0.0,0.0,0.0,0.0,0.0,0.0,0.0,0.0,0.0,0.0,0.0,0.0,0.0,0.0,0.0,0.0,0.0,0.0,0.0,0.0,0.0,0.0,0.0,-5.4315,-5.61,-5.6899,-5.8318,-5.8253,-5.5868,-5.495,-5.3445,-5.1041,-5.0123,0.0,0.0,0.0,0.0,0.0,0.0,0.0,0.0,0.0,0.0,0.0,0.0,0.0,0.0,0.0,0.0,0.0,0.0,0.0,0.0,0.0,0.0,0.0,0.0,0.0,0.0,0.0,0.0,0.0,0.0,0.0,0.0,0.0,0.0,0.0,0.0,0.0,0.0,0.0,0.0,0.0,0.0,0.0,0.0,0.0,0.0,0.0,0.0,0.0,0.0,0.0,0.0,0.0,0.0,0.0,0.0,0.0,0.0,0.0,0.0,0.0,0.0,0.0,0.0,0.0,0.0,0.0,0.0,0.0,0.0,0.0,0.0,0.0,0.0,0.0,0.0,0.0,0.0,0.0,0.0,0.0,0.0,0.0,0.0,0.0,0.0,0.0,0.0,0.0,0.0,0.0,0.0,0.0,0.0,0.0,0.0,0.0,0.0,0.0,0.0,0.0,0.0,-5.2682,-5.4215,-5.5981,-5.625,-5.577,-5.4335,-5.3533,-5.224,-5.0235,0.0,0.0,0.0,0.0,0.0,0.0,0.0,0.0,0.0,0.0,0.0,0.0,0.0,0.0,0.0,0.0,0.0,0.0,0.0,0.0,0.0,0.0,0.0,0.0,0.0,0.0,0.0,0.0,0.0,0.0,0.0,0.0,0.0,0.0,0.0,0.0,0.0,0.0,0.0,0.0,0.0,0.0,0.0,0.0,0.0,0.0,0.0,0.0,0.0,0.0,0.0,0.0,0.0,0.0,0.0,0.0,0.0,0.0,0.0,0.0,0.0,0.0,0.0,0.0,0.0,0.0,0.0,0.0,0.0,0.0,0.0,0.0,0.0,0.0,0.0,0.0,0.0,0.0,0.0,0.0,0.0,0.0,0.0,0.0,0.0,0.0,0.0,0.0,0.0,0.0,0.0,0.0,0.0,0.0,0.0,0.0,0.0,0.0,0.0,0.0,0.0,0.0,-4.9706,-5.1341,-5.2888,-5.4482,-5.4631,-5.4185,-5.3149,-5.2369,-5.1096,-4.9195,0.0,0.0,0.0,0.0,0.0,0.0,0.0,0.0,0.0,0.0,0.0,0.0,0.0,0.0,0.0,0.0,0.0,0.0,0.0,0.0,0.0,0.0,0.0,0.0,0.0,0.0,0.0,0.0,0.0,0.0,0.0,0.0,0.0,0.0,0.0,0.0,0.0,0.0,0.0,0.0,0.0,0.0,0.0,0.0,0.0,0.0,0.0,0.0,0.0,0.0,0.0,0.0,0.0,0.0,0.0,0.0,0.0,0.0,0.0,0.0,0.0,0.0,0.0,0.0,0.0,0.0,0.0,0.0,0.0,0.0,0.0,0.0,0.0,0.0,0.0,0.0,0.0,0.0,0.0,0.0,0.0,0.0,0.0,0.0,0.0,0.0,0.0,0.0,0.0,0.0,0.0,0.0,0.0,0.0,0.0,0.0,0.0,0.0,0.0,0.0,0.0,0.0,-4.7578,-5.0431,-5.2379,-5.2396,-5.3686,-5.3928,-5.2396,-5.1546,-5.0112,0.0,0.0,0.0,0.0,0.0,0.0,0.0,0.0,0.0,0.0,0.0,0.0,0.0,0.0,0.0,0.0,0.0,0.0,0.0,0.0,0.0,0.0,0.0,0.0,0.0,0.0,0.0,0.0,0.0,0.0,0.0,0.0,0.0,0.0,0.0,0.0,0.0,0.0,0.0,0.0,0.0,0.0,0.0,0.0,0.0,0.0,0.0,0.0,0.0,0.0,0.0,0.0,0.0,0.0,0.0,0.0,0.0,0.0,0.0,0.0,0.0,0.0,0.0,0.0,0.0,0.0,0.0,0.0,0.0,0.0,0.0,0.0,0.0,0.0,0.0,0.0,0.0,0.0,0.0,0.0,0.0,0.0,0.0,0.0,0.0,0.0,0.0,0.0,0.0,0.0,0.0,0.0,0.0,0.0,0.0,0.0,0.0,0.0,0.0,0.0,0.0,0.0,0.0,-4.6817,-4.9231,-5.0983,-5.1498,-5.149,-5.1249,-5.0789,-5.0051,-4.8844,-4.7047,0.0,0.0,0.0,0.0,0.0,0.0,0.0,0.0,0.0,0.0,0.0,0.0,0.0,0.0,0.0,0.0,0.0,0.0,0.0,0.0,0.0,0.0,0.0,0.0,0.0,0.0,0.0,0.0,0.0,0.0,0.0,0.0,0.0,0.0,0.0,0.0,0.0,0.0,0.0,0.0,0.0,0.0,0.0,0.0,0.0,0.0,0.0,0.0,0.0,0.0,0.0,0.0,0.0,0.0,0.0,0.0,0.0,0.0,0.0,0.0,0.0,0.0,0.0,0.0,0.0,0.0,0.0,0.0,0.0,0.0,0.0,0.0,0.0,0.0,0.0,0.0,0.0,0.0,0.0,0.0,0.0,0.0,0.0,0.0,0.0,0.0,0.0,0.0,0.0,0.0,0.0,0.0,0.0,0.0,0.0,0.0,0.0,0.0,0.0,0.0,0.0,0.0,-4.5686,-4.8359,-5.0152,-5.0321,-5.0185,-4.9965,-4.9678,-4.9255,-4.8082,-4.5939,0.0,0.0,0.0,0.0,0.0,0.0,0.0,0.0,0.0,0.0,0.0,0.0,0.0,0.0,0.0,0.0,0.0,0.0,0.0,0.0,0.0,0.0,0.0,0.0,0.0,0.0,0.0,0.0,0.0,0.0,0.0,0.0,0.0,0.0,0.0,0.0,0.0,0.0,0.0,0.0,0.0,0.0,0.0,0.0,0.0,0.0,0.0,0.0,0.0,0.0,0.0,0.0,0.0,0.0,0.0,0.0,0.0,0.0,0.0,0.0,0.0,0.0,0.0,0.0,0.0,0.0,0.0,0.0,0.0,0.0,0.0,0.0,0.0,0.0,0.0,0.0,0.0,0.0,0.0,0.0,0.0,0.0,0.0,0.0,0.0,0.0,0.0,0.0,0.0,0.0,0.0,0.0,0.0,0.0,0.0,0.0,0.0,0.0,0.0,0.0,0.0,0.0,-4.4513,-4.775,-4.9729,-4.9069,-4.9593,-4.9729,-4.9069,-4.9001,-4.7767,-4.4886,0.0,0.0,0.0,0.0,0.0,0.0,0.0,0.0,0.0,0.0,0.0,0.0,0.0,0.0,0.0,0.0,0.0,0.0,0.0,0.0,0.0,0.0,0.0,0.0,0.0,0.0,0.0,0.0,0.0,0.0,0.0,0.0,0.0,0.0,0.0,0.0,0.0,0.0,0.0,0.0,0.0,0.0,0.0,0.0,0.0,0.0,0.0,0.0,0.0,0.0,0.0,0.0,0.0,0.0,0.0,0.0,0.0,0.0,0.0,0.0,-4.879,-4.9001,0.0,0.0,0.0,0.0,0.0,0.0,0.0,0.0,0.0,0.0,0.0,0.0,0.0,0.0,0.0,0.0,0.0,0.0,0.0,0.0,0.0,0.0,0.0,0.0,0.0,0.0,0.0,0.0,0.0,0.0,0.0,0.0,0.0,0.0,0.0,0.0,0.0,0.0,0.0,0.0,-4.4513,-4.731,-4.9171,-4.9018,-4.9137,-4.9171,-4.9018,-4.9001,-4.7986,-4.5618,-4.4756,0.0,0.0,0.0,0.0,0.0,0.0,0.0,0.0,0.0,0.0,0.0,0.0,0.0,0.0,0.0,0.0,0.0,0.0,0.0,0.0,0.0,0.0,0.0,0.0,0.0,0.0,0.0,0.0,0.0,0.0,0.0,0.0,0.0,0.0,0.0,0.0,0.0,0.0,0.0,0.0,0.0,0.0,0.0,0.0,0.0,0.0,0.0,0.0,0.0,0.0,0.0,0.0,0.0,0.0,0.0,0.0,0.0,0.0,0.0,-4.8719,-4.8576,0.0,0.0,0.0,0.0,0.0,0.0,0.0,0.0,0.0,0.0,0.0,0.0,0.0,0.0,0.0,0.0,0.0,0.0,0.0,0.0,0.0,0.0,0.0,0.0,0.0,0.0,0.0,0.0,0.0,0.0,0.0,0.0,0.0,0.0,0.0,0.0,0.0,0.0,0.0,0.0,-4.4976,-4.7394,-4.9001,-4.9001,-4.9001,-4.9001,-4.9001,-4.9001,-4.8206,-4.6346,-4.5196,0.0,0.0,0.0,0.0,0.0,0.0,0.0,0.0,0.0,0.0,0.0,0.0,0.0,0.0,0.0,0.0,0.0,0.0,0.0,0.0,0.0,0.0,0.0,0.0,0.0,0.0,0.0,0.0,0.0,0.0,0.0,0.0,0.0,0.0,0.0,0.0,0.0,0.0,0.0,0.0,0.0,0.0,0.0,0.0,0.0,0.0,0.0,0.0,0.0,0.0,0.0,0.0,0.0,-4.915,-4.9434,-4.9986,-4.9986,-4.9986,-4.9923,-4.8772,-4.8355,-4.8446,-4.8605,0.0,0.0,0.0,0.0,0.0,0.0,0.0,0.0,0.0,0.0,0.0,0.0,0.0,0.0,0.0,0.0,0.0,0.0,0.0,0.0,0.0,0.0,-4.4622,-4.4003,-4.3876,-4.3526,-4.2239,0.0,0.0,0.0,0.0,0.0,0.0,0.0,0.0,0.0,0.0,0.0,-4.5077,-4.7155,-4.8513,-4.8513,-4.8513,-4.8513,-4.8513,-4.8513,-4.7943,-4.6602,-4.5127,-4.3367,0.0,0.0,0.0,0.0,0.0,0.0,0.0,0.0,0.0,0.0,0.0,0.0,0.0,0.0,0.0,0.0,0.0,0.0,0.0,0.0,0.0,0.0,0.0,0.0,0.0,0.0,0.0,0.0,0.0,0.0,0.0,0.0,-5.6441,-5.6239,0.0,0.0,0.0,0.0,0.0,0.0,0.0,0.0,0.0,0.0,0.0,0.0,0.0,-5.0,-4.9846,-4.9624,-4.9533,-4.9641,-4.9398,-4.9325,-4.9415,-4.9415,-4.9415,-4.94,-4.9219,0.0,-4.9783,-4.9271,0.0,0.0,0.0,0.0,0.0,0.0,0.0,0.0,0.0,0.0,0.0,0.0,0.0,0.0,0.0,0.0,0.0,0.0,0.0,0.0,0.0,0.0,-4.3503,-4.3413,-4.3398,-4.3352,-4.3133,-4.2364,-4.1676,-4.1614,-4.1118,-4.0949,0.0,0.0,0.0,0.0,0.0,0.0,-4.3428,-4.5251,-4.6558,-4.6558,-4.6558,-4.6558,-4.6558,-4.6558,-4.6219,-4.5377,-4.3992,-4.2478,-4.084,-3.8798,0.0,0.0,0.0,0.0,0.0,0.0,0.0,0.0,0.0,0.0,0.0,0.0,0.0,0.0,0.0,0.0,0.0,0.0,0.0,0.0,0.0,0.0,0.0,0.0,0.0,0.0,0.0,0.0,0.0,-5.5305,-5.6123,-5.5337,-5.5373,-5.4946,0.0,0.0,0.0,0.0,0.0,0.0,0.0,0.0,0.0,-4.9984,-5.0657,-5.0927,-5.0731,-5.022,-5.0182,-5.0546,-5.005,-5.0197,-5.0915,-5.0915,-5.0915,-5.0915,-5.0915,-5.0865,-5.0667,-4.9786,-4.9054,-4.8443,0.0,0.0,0.0,0.0,-4.694,-4.652,-4.6912,-4.6515,-4.5695,-4.5241,0.0,0.0,0.0,0.0,0.0,0.0,0.0,-4.3054,-4.338,-4.3365,-4.329,-4.329,-4.329,-4.329,-4.329,-4.2948,-4.2515,-4.2221,-4.1903,-4.1502,-4.0868,-4.0795,0.0,0.0,0.0,-4.3702,-4.4125,-4.5373,-4.6208,-4.6208,-4.6208,-4.6208,-4.6208,-4.6208,-4.6045,-4.5757,-4.4747,-4.3515,-4.2061,-4.0322,-3.8686,0.0,0.0,0.0,0.0,0.0,0.0,0.0,0.0,0.0,0.0,0.0,0.0,0.0,0.0,0.0,0.0,0.0,0.0,0.0,0.0,0.0,0.0,0.0,0.0,0.0,0.0,0.0,0.0,-5.5136,-5.5588,-5.455,-5.4895,-5.456,0.0,0.0,0.0,0.0,0.0,0.0,-5.122,-5.1325,-5.1289,-5.1109,-5.1738,-5.1941,-5.1708,-5.1229,-5.1154,-5.1468,-5.0928,-5.1244,-5.2202,-5.2202,-5.2202,-5.2202,-5.2202,-5.1828,-5.1141,-5.0237,-4.9426,-4.8879,-4.886,-4.8475,-4.7886,-4.7697,-4.72,-4.6643,-4.6966,-4.6644,-4.5933,-4.5095,-4.4601,-4.4003,-4.2372,0.0,0.0,0.0,0.0,-4.2716,-4.317,-4.329,-4.329,-4.329,-4.329,-4.329,-4.329,-4.329,-4.3172,-4.2779,-4.2591,-4.2114,-4.1001,-4.1036,0.0,-4.1354,-4.2384,-4.349,-4.4287,-4.5011,-4.5473,-4.5473,-4.5473,-4.5473,-4.5473,-4.5473,-4.5473,-4.5473,-4.4791,-4.3843,-4.2632,-4.1166,-3.9597,-3.7937,0.0,0.0,0.0,0.0,0.0,0.0,0.0,0.0,0.0,0.0,0.0,0.0,0.0,0.0,0.0,0.0,0.0,0.0,0.0,0.0,0.0,0.0,0.0,0.0,0.0,0.0,0.0,0.0,0.0,-5.4086,-5.5957,0.0,0.0,0.0,0.0,-5.2821,-5.2732,-5.2257,-5.1236,-5.179,-5.215,-5.2132,-5.2777,-5.3136,-5.3084,-5.3054,-5.274,-5.2157,-5.2112,-5.2127,-5.2202,-5.2202,-5.2202,-5.2202,-5.2202,-5.1828,-5.1169,-5.0482,-4.9839,-4.9224,-4.8564,-4.7947,-4.7244,-4.6614,-4.6346,-4.6214,-4.5642,-4.5391,-4.5439,-4.5995,-4.5364,-4.4182,-4.3409,-4.2806,0.0,0.0,-4.2806,-4.3245,-4.329,-4.329,-4.329,-4.329,-4.329,-4.329,-4.329,-4.329,-4.3275,-4.324,-4.2809,-4.2621,-4.3374,0.0,-4.2612,-4.2612,-4.3216,-4.338,-4.2635,-4.3067,-4.3433,-4.3433,-4.3433,-4.3433,-4.3433,-4.3433,-4.3433,-4.3433,-4.2857,-4.2234,-4.1505,-4.0199,-3.9132,-3.8469,-3.7141,0.0,0.0,0.0,0.0,0.0,0.0,0.0,0.0,0.0,0.0,0.0,0.0,0.0,0.0,0.0,0.0,0.0,0.0,0.0,0.0,0.0,0.0,0.0,0.0,0.0,0.0,0.0,0.0,-5.4251,-5.56,0.0,-5.4258,-5.4165,-5.3924,-5.3137,-5.306,-5.287,-5.2534,-5.3129,-5.3488,-5.3488,-5.4132,-5.4476,-5.4476,-5.3608,-5.3054,-5.2815,-5.1977,-5.2007,-5.283,-5.283,-5.283,-5.283,-5.283,-5.2217,-5.1199,-5.096,-5.0481,-4.9868,-4.9643,-4.9149,-4.8491,-4.7833,-4.7593,-4.7489,-4.6815,-4.6591,-4.6561,-4.6381,-4.5693,-4.49,-4.4661,-4.4137,-4.3614,-4.3614,-4.3479,-4.329,-4.329,-4.329,-4.329,-4.329,-4.329,-4.329,-4.329,-4.329,-4.329,-4.329,-4.315,-4.2833,-4.2289,-4.2379,-4.2364,-4.1925,-4.2425,-4.2901,-4.2965,-4.3155,-4.329,-4.329,-4.329,-4.329,-4.329,-4.329,-4.315,-4.2746,-4.253,-4.1916,-4.0786,-4.0307,-3.9553,-3.8447,-3.754,-3.637,0.0,0.0,0.0,0.0,0.0,0.0,0.0,0.0,0.0,0.0,0.0,0.0,0.0,0.0,0.0,0.0,0.0,0.0,0.0,0.0,0.0,0.0,0.0,0.0,0.0,-5.4329,-5.5396,-5.4635,-5.5897,-5.6316,-5.4999,-5.5059,-5.4985,-5.4536,-5.4311,-5.4192,-5.4192,-5.4416,-5.4536,-5.4536,-5.497,-5.5194,-5.5194,-5.4087,-5.3414,-5.3174,-5.2067,-5.2007,-5.2845,-5.2845,-5.2845,-5.2845,-5.2845,-5.2232,-5.1214,-5.1214,-5.096,-5.0524,-5.0524,-5.0301,-4.9823,-4.894,-4.8626,-4.8491,-4.7608,-4.7309,-4.7234,-4.68,-4.6202,-4.5648,-4.5648,-4.502,-4.4317,-4.4317,-4.3838,-4.329,-4.329,-4.329,-4.329,-4.329,-4.329,-4.329,-4.329,-4.329,-4.329,-4.329,-4.329,-4.3021,-4.2192,-4.2402,-4.2536,-4.2102,-4.2417,-4.2851,-4.3245,-4.329,-4.329,-4.329,-4.329,-4.329,-4.329,-4.3135,-4.2821,-4.2425,-4.2186,-4.1482,-4.0127,-4.0068,-3.9439,-3.8078,-3.721,-3.6118,-3.4848,0.0,0.0,0.0,0.0,0.0,0.0,0.0,0.0,0.0,0.0,0.0,0.0,0.0,0.0,0.0,0.0,0.0,0.0,0.0,0.0,0.0,0.0,0.0,-5.3575,-5.4655,-5.5239,-5.5284,-5.6989,-5.7663,-5.6391,-5.678,-5.7124,-5.7124,-5.6526,-5.6218,-5.6218,-5.5538,-5.5194,-5.5194,-5.5194,-5.5179,-5.5164,-5.4506,-5.3832,-5.3144,-5.2486,-5.2172,-5.2202,-5.2202,-5.2202,-5.2202,-5.2202,-5.1828,-5.1214,-5.1214,-5.1214,-5.1214,-5.1214,-5.1214,-5.1035,-4.9733,-4.9284,-4.906,-4.7743,-4.7309,-4.7309,-4.7309,-4.6875,-4.6309,-4.6294,-4.5394,-4.4347,-4.4317,-4.3838,-4.329,-4.329,-4.329,-4.329,-4.329,-4.329,-4.329,-4.329,-4.329,-4.329,-4.329,-4.329,-4.329,-4.329,-4.329,-4.329,-4.329,-4.329,0.0,-4.329,-4.329,-4.329,-4.329,-4.329,-4.329,-4.329,-4.2746,-4.2381,-4.2336,-4.1722,-4.0741,-3.9403,-3.9394,-3.8766,-3.7464,-3.6193,-3.5534,-3.5534,0.0,0.0,0.0,0.0,0.0,0.0,0.0,0.0,0.0,0.0,0.0,0.0,0.0,0.0,0.0,0.0,0.0,0.0,0.0,0.0,0.0,-5.2217,-5.3541,-5.4032,-5.514,-5.6256,-5.7199,-5.8216,-5.8695,-5.8336,-5.8022,-5.7842,-5.7842,-5.681,-5.6218,-5.6218,-5.5538,-5.5194,-5.5194,-5.5194,-5.497,-5.4476,-5.3803,-5.3129,-5.2456,-5.1813,-5.1738,-5.2202,-5.2202,-5.2202,-5.2202,-5.2202,-5.1828,-5.1214,-5.1214,-5.1214,-5.1214,-5.1214,-5.0883,-5.036,-4.9568,-4.8656,-4.7803,-4.7429,-4.7309,-4.7309,-4.7309,-4.7189,-4.695,-4.6429,-4.5723,-4.493,-4.4451,-4.3838,-4.329,-4.329,-4.329,-4.329,-4.329,-4.329,-4.329,-4.329,-4.329,-4.329,-4.329,-4.329,-4.329,-4.329,-4.329,-4.329,-4.329,-4.329,-4.329,-4.329,-4.329,-4.329,-4.329,-4.329,-4.329,-4.329,-4.2746,-4.1991,-4.0995,-4.0322,-3.9574,-3.8706,-3.8676,-3.8497,-3.8123,-3.6866,-3.6222,0.0,0.0,0.0,0.0,0.0,0.0,0.0,0.0,0.0,0.0,0.0,0.0,0.0,0.0,0.0,0.0,0.0,0.0,0.0,0.0,0.0,0.0,-5.3683,-5.491,-5.5733,-5.6511,-5.7363,-5.8411,-5.8875,-5.9099,-5.9099,-5.8755,-5.8411,-5.8141,-5.7154,-5.6451,-5.6233,-5.5538,-5.5194,-5.5194,-5.4925,-5.4596,-5.4206,-5.3249,-5.2576,-5.2187,-5.1528,-5.1409,-5.1783,-5.1783,-5.1783,-5.1783,-5.1783,-5.1573,-5.1214,-5.1214,-5.1214,-5.1214,0.0,0.0,0.0,0.0,-4.8192,-4.7309,-4.7309,-4.7309,-4.7309,-4.7309,-4.7309,-4.7174,-4.6516,-4.5843,-4.5155,-4.4496,-4.3838,-4.329,-4.329,-4.329,-4.329,-4.329,-4.329,-4.329,-4.329,-4.329,-4.329,-4.329,-4.329,0.0,-4.329,-4.329,-4.329,-4.329,-4.329,-4.329,-4.329,-4.329,-4.329,-4.329,-4.329,-4.329,-4.329,-4.2476,0.0,0.0,0.0,-3.911,-3.8422,-3.8123,0.0,0.0,0.0,0.0,0.0,0.0,0.0,0.0,-3.6956,-3.6851,0.0,0.0,0.0,0.0,0.0,0.0,0.0,0.0,0.0,0.0,0.0,0.0,0.0,0.0,0.0,0.0,-5.5044,-5.6152,-5.7977,-5.8231,-5.8456,-5.9039,-5.9099,-5.9099,-5.9099,-5.9099,-5.883,-5.8171,-5.7483,-5.6825,-5.6263,-5.5538,0.0,0.0,0.0,-5.4177,-5.4102,-5.283,-5.2157,-5.2082,-5.1498,-5.1214,-5.1214,-5.1214,-5.1214,-5.1214,-5.1214,-5.1214,-5.1214,-5.1214,-5.1169,-5.1094,-5.102,-5.0601,-4.9822,-4.8626,-4.7803,-4.7309,-4.7309,0.0,0.0,-4.7309,-4.7249,-4.707,-4.6411,-4.5723,-4.505,-4.4392,-4.3738,-4.329,-4.329,-4.329,-4.329,-4.329,-4.329,-4.329,-4.329,-4.329,-4.329,-4.329,-4.329,-4.329,-4.329,-4.329,-4.329,-4.329,-4.329,-4.329,-4.329,-4.329,-4.329,-4.329,-4.329,0.0,-4.329,-4.2132,-4.1392,-4.1265,-4.0038,-3.9035,-3.8407,-3.7898,-3.7599,-3.7524,-3.7524,-3.7808,-3.8392,-3.8467,-3.8856,-3.9469,-3.7135,-3.6985,0.0,0.0,0.0,0.0,0.0,0.0,0.0,0.0,0.0,0.0,0.0,0.0,0.0,0.0,0.0,-5.5553,-5.678,-5.7872,-5.8785,-5.8919,-5.8964,-5.9084,-5.9099,-5.9099,-5.9099,-5.9099,-5.883,-5.8171,-5.7483,-5.6825,-5.6263,-5.5538,-5.5194,-5.5194,-5.4551,-5.3937,-5.3384,-5.2591,-5.1932,-5.1409,-5.1274,0.0,-5.1214,-5.1214,-5.1214,-5.1214,-5.1214,-5.1214,-5.1214,-5.1214,-5.0868,-5.033,-4.9853,-4.9239,-4.8566,-4.7788,-4.7414,-4.7309,-4.7309,-4.7309,-4.7309,-4.7309,-4.695,-4.6381,-4.5708,-4.5035,0.0,-4.3663,-4.3394,-4.329,-4.329,-4.329,-4.329,-4.329,-4.329,-4.329,-4.329,-4.329,-4.329,-4.329,-4.329,-4.329,-4.329,-4.329,-4.329,-4.329,-4.329,-4.329,-4.329,-4.329,-4.329,-4.329,-4.329,-4.329,-4.329,-4.2132,-4.116,-4.0621,-3.9334,-3.8527,-3.8392,-3.8796,-3.8766,-3.8212,-3.8197,-3.8257,-3.8392,-3.8945,-3.9559,-4.0187,-3.9694,-3.9649,0.0,0.0,0.0,0.0,0.0,0.0,0.0,0.0,0.0,0.0,0.0,-5.2217,-5.3877,0.0,-5.5628,-5.693,-5.7693,-5.8351,-5.9009,-5.9099,-5.9099,-5.9099,-5.9099,-5.9099,-5.9099,-5.8815,-5.8336,-5.7663,-5.7004,-5.6361,-5.5718,-5.5374,-5.5194,-5.5194,-5.4221,-5.3533,-5.3174,-5.2202,-5.1543,-5.1214,-5.1214,-5.1214,-5.1214,-5.1214,-5.1214,-5.1214,-5.1214,-5.1214,-5.1184,-5.0823,-5.0152,-4.9224,-4.891,-4.8581,-4.8207,-4.7549,-4.7309,-4.7309,-4.7309,-4.7309,-4.7249,-4.692,-4.6591,-4.6085,-4.511,-4.4571,-4.4182,-4.3484,-4.329,-4.329,-4.329,-4.329,-4.329,-4.329,-4.329,-4.329,-4.329,-4.329,-4.329,-4.329,-4.329,-4.329,-4.329,-4.329,-4.329,-4.329,-4.329,-4.329,-4.329,-4.329,-4.329,-4.329,-4.329,-4.317,-4.288,-4.1639,-4.0606,-3.9948,-3.9275,-3.8901,-3.8901,-3.923,-3.926,-3.8916,-3.8901,-3.8901,-3.8901,-3.9574,-4.0247,-4.0905,-4.1235,-4.1422,0.0,0.0,0.0,0.0,0.0,0.0,0.0,-5.0436,-5.1184,-5.2516,-5.3309,-5.4326,-5.6196,-5.6555,-5.6944,-5.8126,-5.8321,-5.8501,-5.9024,-5.9099,-5.9099,-5.9099,-5.9099,-5.9099,-5.9099,-5.8501,-5.7842,-5.7154,-5.6526,-5.5882,-5.5224,-5.5194,-5.5134,-5.4999,-5.3817,-5.3114,-5.2995,-5.1813,-5.1214,-5.1214,-5.1214,-5.1214,-5.1214,-5.1214,-5.1214,-5.1214,-5.1079,-5.096,-5.0795,-5.0137,-4.9089,-4.7926,-4.8044,-4.7955,-4.7688,-4.7402,-4.7309,-4.7309,-4.7309,-4.7219,-4.7025,-4.6501,-4.61,-4.5696,-4.4646,-4.4227,-4.4003,-4.3439,-4.329,-4.329,-4.329,-4.329,-4.329,-4.329,-4.329,-4.329,-4.329,-4.329,-4.329,-4.329,-4.329,-4.329,-4.329,-4.329,-4.329,-4.329,-4.329,-4.329,-4.329,-4.329,-4.329,-4.329,-4.329,-4.3015,-4.2276,-4.1085,-4.0113,-3.9454,-3.9388,-3.9388,-3.9388,-3.9388,-3.9388,-3.9388,-3.9388,-3.9388,-3.9388,-4.0202,-4.0861,-4.1399,-4.2231,-4.259,-5.1061,-4.9763,-4.9643,-5.072,-5.0556,-5.0586,0.0,-5.28,-5.3234,-5.4581,-5.5388,-5.6256,-5.7648,-5.7902,-5.8141,-5.8875,-5.8994,-5.9024,-5.9099,-5.9099,-5.9099,-5.9099,-5.9099,-5.9099,-5.9099,-5.8501,-5.7842,-5.7154,-5.6526,-5.5882,-5.5224,-5.5194,-5.4925,-5.4341,-5.3578,-5.289,-5.2321,-5.1588,-5.1214,-5.1214,-5.1214,-5.1214,-5.1214,-5.1214,-5.1214,-5.1184,-5.0554,-5.0017,-4.9479,-4.8775,-4.7776,-4.6679,-4.7214,-4.6698,-4.5821,-4.6902,-4.7309,-4.7309,-4.7309,-4.692,-4.6384,-4.6309,-4.5472,-4.4511,-4.4362,-4.3858,-4.3394,-4.3319,-4.329,-4.329,-4.329,-4.329,-4.329,-4.329,-4.329,-4.329,-4.329,-4.329,-4.329,-4.329,-4.329,-4.329,-4.329,-4.329,-4.329,-4.329,-4.329,-4.329,-4.329,-4.329,-4.329,-4.329,-4.329,-4.2836,-4.1594,-4.0816,-4.0113,-3.9454,-3.9388,-3.9388,-3.9388,-3.9388,-3.9388,-3.9388,-3.9388,-3.9388,-3.9388,-4.0666,-4.1347,-4.1414,-4.2656,-4.3185,-5.1998,-5.1184,-5.1109,-5.1648,-5.2172,-5.277,-5.3593,-5.4371,-5.5179,-5.6107,-5.684,-5.7588,-5.8515,-5.8695,-5.8785,-5.9054,-5.9099,-5.9099,-5.9099,-5.9099,-5.8964,-5.8575,-5.853,-5.868,-5.9069,-5.8141,-5.7408,-5.7109,-5.6166,-5.5478,-5.5209,-5.5194,-5.488,-5.4236,-5.3533,-5.286,-5.2217,-5.1558,-5.1214,-5.1214,-5.1214,-5.1214,-5.1214,-5.0779,-5.0436,-5.0016,-4.8982,-4.8204,-4.7543,-4.6501,-4.5537,-4.4762,-4.4986,-4.478,-4.4549,-4.655,-4.7309,-4.7309,-4.7309,-4.6875,-4.6262,-4.5858,-4.508,-4.4242,-4.3828,-4.3514,-4.329,-4.329,-4.329,-4.329,-4.329,-4.329,-4.329,-4.329,-4.329,-4.329,-4.329,-4.329,-4.329,-4.329,-4.329,-4.329,-4.329,-4.329,-4.329,-4.329,-4.329,-4.329,-4.329,-4.329,-4.329,-4.329,-4.2656,-4.1983,-4.1467,-4.0427,-3.9709,-3.9439,-3.9388,-3.9388,-3.9388,-3.9388,-3.9388,-3.9388,-3.9388,-3.9388,-3.9388,-4.0741,-4.1422,-4.1414,-4.2731,-4.329,-5.2457,-5.2336,-5.2561,-5.2935,-5.3892,-5.4805,-5.497,-5.5882,-5.684,-5.7289,-5.7917,-5.853,-5.9024,-5.9099,-5.9099,-5.9099,-5.9099,-5.9099,-5.9099,-5.8949,-5.865,-5.8186,-5.7962,-5.8022,-5.8501,-5.7513,-5.684,-5.684,-5.5822,-5.5194,-5.5194,-5.5014,-5.4625,-5.3952,-5.3264,-5.2591,-5.1932,-5.1454,-5.1214,-5.1214,-5.0988,-5.0898,-5.0883,-4.9872,-4.9066,-4.8444,-4.7171,-4.6219,-4.5541,-4.4584,-4.3746,-4.3026,-4.3361,-4.3313,-4.3266,-4.5448,-4.6255,-4.6285,-4.6432,-4.6074,-4.5465,-4.5105,-4.4586,-4.3917,-4.3439,-4.329,-4.329,-4.329,-4.329,-4.329,-4.329,-4.329,-4.329,-4.329,-4.329,-4.329,-4.329,-4.329,-4.329,-4.329,-4.329,-4.329,-4.329,-4.329,-4.329,-4.329,-4.329,-4.329,-4.329,-4.329,-4.323,-4.309,-4.2058,-4.1347,-4.113,-4.0068,-3.9388,-3.9388,-3.9388,-3.9388,-3.9388,-3.9388,-3.9388,-3.9388,-3.9388,-3.9388,-3.9388,-4.0741,-4.1422,-4.1414,-4.2731,-4.329,-5.2202,-5.2665,-5.3458,-5.4775,-5.5613,-5.6271,-5.687,-5.7558,-5.8067,-5.8097,-5.862,-5.9084,-5.9099,-5.9099,-5.9099,-5.9099,-5.9099,-5.9099,-5.9099,-5.856,-5.8141,-5.8126,-5.7528,-5.7139,-5.7154,-5.657,-5.6248,-5.6248,-5.5568,-5.5194,-5.5194,-5.4581,-5.3922,-5.3234,-5.2576,-5.1917,-5.1259,-5.1229,-5.1214,-5.1214,-5.0524,-5.0226,-5.015,-4.8343,-4.7113,-4.6414,-4.515,-4.4228,-4.3579,-4.3531,-4.28,-4.1789,-4.3026,-4.2738,-4.1838,-4.3122,-4.3646,-4.3704,-4.4279,-4.4049,-4.3574,-4.4157,-4.3898,-4.3319,-4.3305,-4.329,-4.329,-4.329,-4.329,-4.329,-4.329,-4.329,-4.329,-4.329,-4.329,-4.329,-4.329,-4.329,-4.329,-4.329,-4.329,-4.329,-4.329,-4.329,-4.329,-4.329,-4.329,-4.329,-4.329,-4.329,-4.309,-4.25,-4.1826,-4.113,-4.0487,-3.9813,-3.9388,-3.9388,-3.9388,-3.9388,-3.9388,-3.9388,-3.9388,-3.9388,-3.9388,-3.9388,-3.9388,-4.0741,-4.1422,-4.1414,-4.2731,-4.329,-5.2202,-5.3324,-5.4625,-5.5074,-5.6331,-5.7528,-5.7737,-5.8291,-5.877,-5.877,-5.8605,-5.8456,-5.8456,-5.8456,-5.8456,-5.8456,-5.8815,-5.9099,-5.9099,-5.8919,-5.8441,-5.7543,-5.7229,-5.6765,-5.5912,-5.6047,-5.6218,-5.6218,-5.5568,-5.4999,-5.4566,-5.4326,-5.3698,-5.2561,-5.2321,-5.1887,-5.1229,-5.1214,-5.1005,-5.051,-4.9054,-4.8124,-4.7654,-4.6163,-4.5108,-4.4424,-4.3133,-4.2454,-4.2168,-4.1319,-4.0743,-4.0364,-4.0794,-4.0693,-4.0363,-4.0417,-4.0473,-4.0717,-4.2628,-4.2565,-4.1829,-4.2864,-4.2719,-4.233,-4.3076,-4.329,-4.329,-4.329,-4.329,-4.329,-4.329,-4.329,-4.329,-4.329,-4.329,-4.329,-4.329,-4.329,-4.329,-4.329,-4.329,-4.329,-4.329,-4.329,-4.329,-4.329,-4.329,-4.329,-4.329,-4.2955,-4.265,-4.2425,-4.1422,-4.0651,-4.0427,-3.9798,-3.9388,-3.9388,-3.9388,-3.9388,-3.9388,-3.9388,-3.9388,-3.9388,-3.9388,-3.9388,-3.9388,-4.0741,-4.1422,-4.1414,-4.2731,-4.329,-5.32,-5.4386,-5.5658,-5.6122,-5.7363,-5.8471,-5.8471,-5.88,-5.9039,-5.88,-5.8411,-5.8052,-5.7797,-5.7752,-5.7842,-5.8082,-5.8471,-5.8845,-5.9069,-5.8695,-5.8067,-5.7199,-5.669,-5.6092,-5.5269,-5.5359,-5.5478,-5.5478,-5.5089,-5.4551,-5.3877,-5.3623,-5.3099,-5.2232,-5.1977,-5.1648,-5.1214,-5.0943,-5.0375,-4.9493,-4.7829,-4.6706,-4.5993,-4.4262,-4.3236,-4.2738,-4.1455,-4.0932,-4.0844,-4.0032,-3.9697,-3.9672,-3.9484,-3.9396,-3.9333,-3.8768,-3.8442,-3.8588,-4.0609,-4.1101,-4.0847,-4.1438,-4.1891,-4.229,-4.2589,-4.2981,-4.329,-4.329,-4.329,-4.329,-4.329,-4.329,-4.329,-4.329,-4.329,-4.329,-4.329,-4.329,-4.329,-4.329,-4.329,-4.329,-4.329,-4.329,-4.329,-4.329,-4.3135,-4.2985,-4.2985,-4.2626,-4.2216,-4.1752,-4.0905,-4.0307,-4.0068,-3.9664,-3.9388,-3.9388,-3.9388,-3.9388,-3.9388,-3.9388,-3.9388,-3.9388,-3.9388,-3.9388,-3.9388,-4.0741,-4.1422,-4.1414,-4.2731,-4.329,-5.4914,-5.5673,-5.6526,-5.7767,-5.859,-5.9099,-5.9069,-5.9054,-5.8875,-5.8216,-5.8022,-5.7782,-5.7109,-5.6989,-5.7214,-5.7917,-5.8082,-5.8351,-5.9009,-5.8007,-5.7169,-5.7109,-5.6017,-5.5269,-5.5209,-5.4625,-5.4236,-5.4162,-5.4162,-5.3862,-5.3159,-5.2546,-5.2187,-5.2157,-5.1543,-5.1199,-5.1169,-5.0435,-4.9523,-4.8282,-4.6982,-4.5979,-4.5207,-4.2738,-4.1555,-4.1455,-4.0224,-3.9672,-3.9647,-3.9647,-3.9634,-3.9546,-3.9032,-3.8831,-3.8755,-3.8178,-3.7638,-3.7354,-3.8405,-3.9556,-4.0484,-4.0035,-4.1393,-4.3036,-4.1988,-4.2426,-4.329,-4.329,-4.329,-4.329,-4.329,-4.329,-4.329,-4.329,-4.329,-4.329,-4.329,-4.329,-4.329,-4.329,-4.329,-4.329,-4.329,-4.329,-4.329,-4.329,-4.2806,-4.2425,-4.2396,-4.2336,-4.1826,-4.0531,-4.0367,-4.0098,-3.9433,-3.9388,-3.9388,-3.9388,-3.9388,-3.9388,-3.9388,-3.9388,-3.9388,-3.9388,-3.9388,-3.9439,-3.9433,-4.0756,-4.1437,-4.1459,-4.2731,-4.329,-5.4356,-5.5643,-5.6944,-5.7274,-5.8231,-5.8979,-5.8486,-5.8366,-5.8171,-5.7498,-5.66,-5.5882,-5.5718,-5.5673,-5.5897,-5.6555,-5.7483,-5.8351,-5.9009,-5.8815,-5.8216,-5.7214,-5.681,-5.6241,-5.5284,-5.5044,-5.4521,-5.3518,-5.3443,-5.3159,-5.2486,-5.2291,-5.1977,-5.1483,-5.1304,-5.0943,-5.045,-4.9359,-4.8611,-4.8282,-4.6484,-4.5075,-4.3929,-4.2315,-4.1082,-4.0173,-3.9839,-3.9459,-3.9082,-3.9082,-3.8831,-3.8417,-3.8278,-3.8228,-3.8153,-3.76,-3.7312,-3.7172,-3.7077,-3.7794,-3.8881,-3.9634,-4.0887,-4.2152,-4.2684,-4.3076,-4.329,-4.329,-4.329,-4.329,-4.329,-4.329,-4.329,-4.329,-4.329,-4.329,-4.329,-4.329,-4.329,-4.329,-4.329,-4.329,-4.329,-4.329,-4.329,-4.329,-4.3155,-4.291,-4.247,-4.1542,-4.0771,-4.0442,-3.9963,-3.9604,-3.9388,-3.9388,-3.9388,-3.9388,-3.9388,-3.9388,-3.9388,-3.9388,-3.9388,-3.9388,-3.9388,-3.9664,-4.0157,-4.098,-4.1677,-4.2171,-4.2955,-4.329,-5.5791,-5.6476,-5.7169,-5.7468,-5.8112,-5.8501,-5.7827,-5.7468,-5.6989,-5.6032,-5.5254,-5.467,-5.4371,-5.4551,-5.497,-5.5628,-5.6825,-5.7902,-5.8575,-5.868,-5.8276,-5.7214,-5.6855,-5.6301,-5.5284,-5.4655,-5.3997,-5.3234,-5.3174,-5.277,-5.1813,-5.1768,-5.1603,-5.1229,-5.1214,-5.0765,-4.9823,-4.879,-4.8132,-4.7848,-4.6193,-4.5024,-4.4256,-4.2461,-4.1505,-4.1306,-3.9956,-3.9487,-3.9644,-3.883,-3.8304,-3.799,-3.7739,-3.7651,-3.7575,-3.7023,-3.687,-3.6832,-3.6518,-3.715,-3.8198,-3.8872,-4.0261,-4.1726,-4.2371,-4.29,-4.329,-4.329,-4.329,-4.329,-4.329,-4.329,-4.329,-4.329,-4.329,-4.329,-4.329,-4.329,-4.329,-4.329,-4.29,-4.2725,-4.321,-4.29,-4.2725,-4.321,-4.309,-4.2776,-4.244,-4.1299,-4.0465,-4.042,-3.958,-3.9151,-3.9367,-3.9388,-3.9388,-3.9388,-3.9388,-3.9388,-3.9388,-3.8943,-3.8708,-3.8708,-3.8708,-3.9032,-3.9702,-4.0852,-4.1752,-4.241,-4.303,-4.329,-5.7946,-5.7577,-5.7244,-5.7842,-5.8052,-5.7902,-5.7034,-5.6421,-5.5673,-5.4341,-5.3997,-5.3758,-5.3159,-5.3533,-5.4192,-5.494,-5.6062,-5.7109,-5.7872,-5.7992,-5.7737,-5.7049,-5.6496,-5.5912,-5.5254,-5.4057,-5.3279,-5.3189,-5.3099,-5.2516,-5.1289,-5.1214,-5.1214,-5.1214,-5.105,-5.0421,-4.9329,-4.8536,-4.7878,-4.7309,-4.6166,-4.5539,-4.5358,-4.3122,-4.2509,-4.3081,-4.0335,-3.9631,-4.0297,-3.8596,-3.7852,-3.7739,-3.7262,-3.7073,-3.7023,-3.6581,-3.6405,-3.6405,-3.6405,-3.707,-3.7893,-3.8062,-3.9596,-4.1378,-4.1378,-4.207,-4.286,-4.286,-4.286,-4.286,-4.286,-4.286,-4.286,-4.286,-4.286,-4.286,-4.286,-4.286,-4.286,-4.286,-4.2029,-4.1684,-4.2684,-4.2029,-4.1726,-4.2684,-4.2386,-4.207,-4.207,-4.1135,-4.0398,-4.0322,-3.9228,-3.8688,-3.9166,-3.9195,-3.9283,-3.9408,-3.9445,-3.9452,-3.9523,-3.8641,-3.8162,-3.8162,-3.8162,-3.8509,-3.9271,-4.081,-4.1886,-4.2545,-4.3075,-4.329,-5.7946,-5.7577,-5.7124,-5.7244,-5.7708,-5.7663,-5.5912,-5.5448,-5.4985,-5.3638,-5.292,-5.2516,-5.2396,-5.2471,-5.295,-5.4177,-5.5014,-5.5927,-5.7109,-5.7274,-5.7034,-5.6406,-5.6241,-5.5912,-5.5254,-5.4491,-5.3803,-5.3219,-5.268,-5.2037,-5.1259,-5.1214,-5.1214,-5.1214,-5.0167,-4.9539,-4.9314,-4.8072,-4.7414,-4.7309,-4.7062,-4.6403,-4.5403,-4.4918,-4.3693,-4.1861,-4.0899,-3.9718,-3.8436,-3.7648,-3.7061,-3.6681,-3.6593,-3.6556,-3.6543,-3.6443,-3.6405,-3.6405,-3.6405,-3.6534,-3.6849,-3.7802,-3.905,-4.0189,-4.0189,-4.0332,-4.0504,-4.0504,-4.0504,-4.0504,-4.0504,-4.0504,-4.0504,-4.0504,-4.0504,-4.0504,-4.0504,-4.0504,-4.0504,-4.0504,-4.0332,-4.0246,-4.0461,-4.0332,-4.0275,-4.0461,-4.0405,-4.0335,-4.0335,-4.0032,-3.9747,-3.9743,-3.8714,-3.8047,-3.8154,-3.8154,-3.8559,-3.9516,-3.9555,-3.9764,-4.021,-4.007,-3.9944,-3.9944,-3.9944,-4.0538,-4.1766,-4.2094,-4.2521,-4.3125,-4.3245,-4.329,-5.8907,-5.8293,-5.7633,-5.7633,-5.7603,-5.7169,-5.5553,-5.464,-5.3773,-5.2441,-5.1902,-5.1693,-5.1693,-5.1962,-5.2411,-5.3054,-5.4012,-5.5014,-5.5972,-5.6391,-5.6496,-5.6263,-5.6218,-5.5912,-5.5254,-5.4266,-5.3533,-5.3204,-5.2261,-5.1558,-5.1229,-5.1214,-5.1214,-5.1214,-4.9942,-4.9314,-4.9314,-4.7967,-4.7309,-4.7309,-4.7309,-4.6975,-4.6358,-4.5689,-4.4734,-4.3448,-4.1266,-3.9826,-3.8852,-3.7374,-3.6644,-3.6405,-3.6405,-3.6405,-3.6405,-3.6405,-3.6405,-3.6405,-3.6405,-3.6405,-3.6499,-3.7023,-3.7984,-3.9094,-3.9724,-3.9899,-3.9899,-3.9899,-3.9899,-3.9899,-3.9899,-3.9899,-3.9899,-3.9899,-3.9899,-3.9899,-3.9899,-3.9899,-3.9899,-3.9899,-3.9404,-3.9139,-3.9812,-3.936,-3.9183,-3.9812,-3.9899,-3.9899,-3.9899,-3.9274,-3.8906,-3.9226,-3.818,-3.7603,-3.7868,-3.7882,-3.8131,-3.8666,-3.8721,-3.8823,-3.9111,-3.8552,-3.8271,-3.8271,-3.8271,-3.8761,-3.9759,-4.031,-4.1186,-4.2412,-4.2412,-4.2725,-5.9772,-5.9029,-5.8159,-5.779,-5.7393,-5.669,-5.5119,-5.3937,-5.2815,-5.1498,-5.1109,-5.1005,-5.1005,-5.1319,-5.1663,-5.1947,-5.2875,-5.3907,-5.485,-5.5418,-5.5807,-5.5993,-5.5972,-5.5763,-5.5239,-5.3967,-5.3174,-5.3174,-5.1962,-5.1214,-5.1214,-5.1214,-5.1154,-5.1005,-4.9868,-4.9239,-4.9105,-4.7893,-4.7309,-4.7309,-4.7309,-4.7309,-4.7266,-4.6255,-4.5494,-4.4815,-4.1832,-4.0145,-3.9342,-3.7388,-3.6518,-3.6405,-3.6405,-3.6405,-3.6405,-3.6405,-3.6405,-3.6405,-3.6405,-3.6405,-3.6405,-3.6405,-3.7023,-3.7893,-3.8885,-3.9152,-3.9152,-3.9152,-3.9152,-3.9152,-3.9152,-3.9152,-3.9197,-3.9461,-3.9492,-3.9593,-3.9855,-3.9899,-3.9899,-3.9899,-3.9139,-3.8693,-3.9417,-3.8738,-3.8334,-3.9064,-3.9152,-3.9152,-3.9152,-3.8302,-3.7891,-3.8344,-3.7524,-3.7117,-3.7556,-3.7601,-3.7687,-3.7929,-3.7929,-3.8001,-3.813,-3.7284,-3.6867,-3.6867,-3.6867,-3.7203,-3.7878,-3.8681,-3.9829,-4.1253,-4.1253,-4.1864,-5.9727,-5.9332,-5.8427,-5.6775,-5.672,-5.6436,-5.3937,-5.3279,-5.2815,-5.1498,-5.0704,-5.0285,-5.0285,-4.9898,-4.9927,-5.1109,-5.1409,-5.2157,-5.4042,-5.4356,-5.461,-5.5209,-5.5284,-5.5254,-5.5194,-5.3967,-5.3174,-5.3174,-5.1962,-5.1214,-5.1214,-5.1214,-5.0898,-5.03,-4.9643,-4.903,-4.8386,-4.7668,-4.7309,-4.7309,-4.7309,-4.7309,-4.7309,-4.7164,-4.5869,-4.3604,-4.2799,-4.0802,-3.81,-3.7398,-3.6857,-3.6405,-3.6405,-3.6405,-3.6405,-3.6405,-3.6405,-3.6405,-3.6405,-3.6405,-3.6405,-3.6405,-3.6452,-3.6581,-3.6675,-3.6722,-3.6722,-3.6722,-3.6722,-3.6722,-3.6722,-3.6722,-3.6977,-3.803,-3.8289,-3.8559,-3.9667,-3.9899,-3.9899,-3.9899,-3.9812,-3.9404,-3.8424,-3.8153,-3.7815,-3.6849,-3.6722,-3.6722,-3.6722,-3.6628,-3.6568,-3.6646,-3.6552,-3.6492,-3.6523,-3.6569,-3.6996,-3.8039,-3.8084,-3.8322,-3.8806,-3.8693,-3.8651,-3.8651,-3.8651,-3.9009,-3.9686,-3.9773,-3.9887,-4.0073,-4.0073,-4.0661,-5.9133,-5.8987,-5.8547,-5.7127,-5.663,-5.6062,-5.4221,-5.3473,-5.2815,-5.1498,-5.0644,-5.0196,-5.0196,-4.9703,-4.9568,-5.0435,-5.0584,-5.1137,-5.277,-5.301,-5.3399,-5.4476,-5.4596,-5.4596,-5.4596,-5.3743,-5.286,-5.2067,-5.1513,-5.1214,-5.1214,-5.1214,-5.0868,-5.0211,-4.9598,-4.9,-4.8297,-4.7638,-4.7309,-4.7309,-4.7309,-4.7309,-4.7309,-4.7309,-4.5928,-4.3462,-4.2901,-4.1117,-3.8454,-3.755,-3.7048,-3.687,-3.6543,-3.6405,-3.6405,-3.6405,-3.6405,-3.6405,-3.6405,-3.6405,-3.6405,-3.6405,-3.6405,-3.6405,-3.6405,-3.6405,-3.6405,-3.6405,-3.6405,-3.6405,-3.6405,-3.6405,-3.6499,-3.6977,-3.7057,-3.7196,-3.7691,-3.8347,-3.8827,-3.8827,-3.8827,-3.8649,-3.8198,-3.754,-3.693,-3.6452,-3.6405,-3.6405,-3.6405,-3.6405,-3.6405,-3.6405,-3.6405,-3.6405,-3.6405,-3.6405,-3.6581,-3.707,-3.7057,-3.7173,-3.7397,-3.7384,-3.7384,-3.7384,-3.7384,-3.7547,-3.7782,-3.7782,-3.8134,-3.8827,-3.8827,-3.9434,-5.8885,-5.8852,-5.8516,-5.7355,-5.6474,-5.5538,-5.4206,-5.3384,-5.2576,-5.1454,-5.0541,-4.9942,-4.9942,-4.9254,-4.8895,0.0,0.0,-5.0421,-5.1723,-5.2067,-5.2621,-5.3773,-5.3907,-5.3907,-5.3907,-5.3294,-5.2426,-5.1304,-5.1214,-5.1214,-5.1214,-5.0988,-5.0631,-4.9972,-4.9314,-4.8656,-4.7997,-4.7534,-4.7309,-4.7309,-4.7309,-4.7309,-4.7309,-4.6916,-4.5539,-4.3476,-4.2718,-4.0931,-3.8555,-3.7764,-3.7236,-3.6958,-3.6556,-3.6405,-3.6405,-3.6405,-3.6405,-3.6405,-3.6405,-3.6405,-3.6405,-3.6405,-3.6405,-3.6405,-3.6405,-3.6628,-3.6977,-3.7335,-3.7163,-3.6883,-3.6883,-3.6675,-3.6499,-3.6803,-3.6883,-3.7023,-3.7335,-3.8075,-3.8649,-3.8649,-3.8649,-3.8514,-3.8153,-3.7415,-3.6803,-3.6452,-3.6405,-3.6405,-3.6405,-3.6405,-3.6405,-3.6405,-3.6405,-3.6405,-3.6405,-3.6405,-3.6405,-3.6405,-3.6405,-3.6405,-3.6405,-3.6405,-3.6405,-3.6405,-3.6405,-3.6405,-3.6405,-3.6405,-3.6803,-3.7586,-3.7586,-3.8424,-5.9223,-5.9085,-5.8358,-5.7261,-5.61,-5.485,-5.3503,-5.268,-5.2022,-5.1349,-5.0182,-4.9329,-4.9329,-4.8207,-4.7534,-4.8192,-4.8895,0.0,-5.105,-5.1798,-5.2441,-5.3114,-5.3189,-5.3189,-5.3189,-5.2591,-5.1932,-5.1274,-5.1214,-5.1214,-5.1214,-5.0554,-4.9942,-4.9344,-4.8641,-4.7982,-4.7324,-4.7309,-4.7309,-4.7309,-4.7309,-4.7309,-4.7251,-4.5973,-4.4734,-4.3456,-4.2168,-4.0221,-3.8015,-3.8002,-3.7362,-3.6417,-3.6405,-3.6405,-3.6405,-3.6405,-3.6405,-3.6405,-3.6405,-3.6405,-3.6405,-3.6405,-3.6405,-3.6405,-3.6405,-3.7196,-3.8334,-3.9536,-3.9006,-3.8062,-3.8062,-3.7243,-3.6675,-3.7802,-3.8062,-3.8424,-3.9593,-3.9855,-3.9899,-3.9899,-3.9899,-3.9492,-3.8289,-3.8107,-3.7723,-3.6581,-3.6405,-3.6405,-3.6405,-3.6405,-3.6405,-3.6405,-3.6405,-3.6405,-3.6405,-3.6405,-3.6405,-3.6405,-3.6405,-3.6405,-3.6405,-3.6405,-3.6405,-3.6405,-3.6405,-3.6405,-3.6405,-3.6405,-3.6405,-3.6405,-3.6405,-3.7645,-5.6564,-5.6538,-5.6205,-5.4537,-5.3646,-5.292,-5.2037,-5.2022,-5.1887,-5.0734,-4.9868,-4.9179,-4.8686,-4.7893,-4.7668,-4.882,-4.9179,-4.9718,-5.1035,-5.1394,-5.1947,-5.3054,-5.3174,-5.301,-5.2561,-5.1917,-5.1439,-5.1229,-5.1214,-5.102,-5.0524,-4.9927,-4.9479,-4.9329,-4.8626,-4.7967,-4.7309,-4.7309,-4.7309,-4.7309,-4.7309,-4.6829,-4.6018,-4.6491,-4.507,-4.2217,-4.2689,-4.1253,-3.8567,-3.8165,-3.7575,-3.6885,-3.6556,-3.6405,-3.6405,-3.6405,-3.6405,-3.6405,-3.6405,-3.6405,-3.6405,-3.6405,-3.6405,-3.6534,-3.7322,-3.7276,-3.7023,-3.7381,-3.7243,-3.693,-3.693,-3.6675,-3.6499,-3.6849,-3.693,-3.7023,-3.7428,-3.8121,-3.8693,-3.8693,-3.8693,-3.8559,-3.8153,-3.7461,-3.6803,-3.6452,-3.6405,-3.6405,-3.6405,-3.6405,-3.6405,-3.6405,-3.6405,-3.6405,-3.6405,-3.6405,-3.6405,-3.6405,-3.6405,-3.6405,-3.6405,-3.6405,-3.6405,-3.6405,-3.6405,-3.6405,-3.6405,-3.6405,-3.6405,-3.6405,-3.6405,-3.7196,-5.5708,-5.5299,-5.4724,-5.4049,-5.2826,-5.1723,-5.1319,-5.1349,-5.1154,-5.0092,-4.9344,-4.882,-4.8356,-4.7743,-4.7578,-4.8401,-4.8745,-4.9269,-5.0331,-5.0915,-5.1618,-5.268,-5.2815,-5.2561,-5.1887,-5.1468,-5.1214,-5.1214,-5.099,-5.0629,-5.0211,-4.9389,-4.894,-4.894,-4.8252,-4.7713,-4.7309,-4.7309,-4.7309,-4.7309,-4.7309,-4.6873,-4.6107,-4.6447,-4.5252,-4.3074,-4.3361,-4.2133,0.0,-3.9084,-3.8239,-3.7462,-3.672,-3.6405,-3.6405,-3.6405,-3.6405,-3.6405,-3.6405,-3.6405,-3.6405,-3.6405,-3.6405,-3.6534,-3.7243,-3.7599,-3.7736,-3.7736,-3.7381,-3.7023,-3.7023,-3.6709,-3.6405,-3.6405,-3.6405,-3.6405,-3.6405,-3.6977,-3.7461,-3.7461,-3.7461,-3.7461,-3.7461,-3.6896,-3.6405,-3.6405,-3.6405,-3.6405,-3.6405,-3.6405,-3.6405,-3.6405,-3.6405,-3.6405,-3.6405,-3.6405,-3.6405,-3.6405,-3.6405,-3.6405,-3.6405,-3.6405,-3.6405,-3.6405,-3.6405,-3.6405,-3.6405,-3.6405,-3.6405,-3.6405,-3.6405,-3.7023,0.0,-5.4985,-5.3668,-5.4915,-5.3073,-5.1005,-5.1005,-5.0524,0.0,-4.9329,-4.8716,-4.8282,-4.8222,-4.7713,-4.7324,-4.7369,-4.7878,-4.8536,-4.9284,-5.0466,-5.1498,-5.2067,-5.2172,-5.1947,-5.1289,-5.1214,-5.1199,-5.1154,-5.0539,-5.0151,-5.0061,-4.894,-4.8267,-4.8222,-4.7623,-4.7309,-4.7309,-4.7309,-4.7309,-4.7309,-4.7309,-4.7251,-4.7121,-4.6018,-4.5448,-4.5207,-4.4116,-4.2906,-4.1603,-4.0388,-3.9196,-3.7984,-3.6849,-3.6405,-3.6405,-3.6405,-3.6405,-3.6405,-3.6405,-3.6405,-3.6405,-3.6405,-3.6405,-3.6405,-3.6405,-3.7906,-3.9637,-3.9637,-3.8827,-3.7984,-3.7984,-3.7196,-3.6405,-3.6405,-3.6405,-3.6405,-3.6405,-3.6405,-3.6405,-3.6405,-3.6405,-3.6405,-3.6405,-3.6405,-3.6405,-3.6405,-3.6405,-3.6405,-3.6405,-3.6405,-3.6405,-3.6405,-3.6405,-3.6405,-3.6405,-3.6405,-3.6405,-3.6405,-3.6405,-3.6405,-3.6405,-3.6405,-3.6405,-3.6405,-3.6405,-3.6405,-3.6405,-3.6405,-3.6405,-3.6405,-3.6405,-3.7023,-5.4177,0.0,-5.1924,-5.1677,-5.0271,-4.897,0.0,-4.9254,-4.9314,-4.8656,-4.8401,-4.8132,-4.7623,-4.7414,-4.7474,-4.7982,-4.8192,-4.8686,-4.9853,-5.1139,-5.1843,-5.1498,-5.1887,-5.1947,-5.1289,-5.1214,-5.1005,-5.0465,-5.0285,-4.9747,-4.8805,-4.8446,-4.8057,-4.7549,-4.7384,-4.7309,-4.7309,-4.7309,-4.7309,-4.7309,-4.7309,-4.6785,-4.5869,-4.6535,-4.5779,-4.3975,-4.4642,-4.3705,-4.1603,-4.0388,-3.9196,-3.7984,-3.6849,-3.6405,-3.6405,-3.6405,-3.6405,-3.6405,-3.6405,-3.6405,-3.6405,-3.6405,-3.6405,-3.6405,-3.6405,-3.6815,-3.7196,-3.7196,-3.7023,-3.6803,-3.6803,-3.6581,-3.6405,-3.6405,-3.6405,-3.6405,-3.6405,-3.6405,-3.6405,-3.6405,-3.6405,-3.6405,-3.6405,-3.6405,-3.6405,-3.6405,-3.6405,-3.6405,-3.6405,-3.6405,-3.6405,-3.6405,-3.6405,-3.6405,-3.6405,-3.6405,-3.6405,-3.6405,-3.6405,-3.6405,-3.6405,-3.6405,-3.6405,-3.6405,-3.6405,-3.6405,-3.6405,-3.6405,-3.6405,-3.6405,-3.6405,-3.7023,-5.3501,-5.2843,-5.2025,-5.1435,-5.0393,-4.9361,-4.8849,-4.882,-4.8626,-4.7967,-4.7833,-4.7728,-4.7369,-4.7309,-4.7429,-4.7773,-4.8087,-4.885,-5.0466,-5.1558,-5.2067,-5.1708,-5.1977,-5.1947,-5.1289,-5.1214,-5.0898,-5.024,-4.9957,-4.9344,-4.8341,-4.7997,-4.7668,-4.7309,-4.7309,-4.7309,-4.7309,-4.7309,-4.7309,-4.7309,-4.7309,-4.6931,-4.6299,-4.6975,-4.6535,-4.5283,-4.5667,-4.4557,-4.2446,-4.0955,-3.9451,-3.7984,-3.6849,-3.6405,-3.6405,-3.6405,-3.6405,-3.6405,-3.6405,-3.6405,-3.6405,-3.6405,-3.6405,-3.6405,-3.6405,-3.6405,-3.6405,-3.6405,-3.6405,-3.6405,-3.6405,-3.6405,-3.6405,-3.6405,-3.6405,-3.6405,-3.6405,-3.6405,-3.6405,-3.6405,-3.6405,-3.6405,-3.6405,-3.6405,-3.6405,-3.6405,-3.6405,-3.6405,-3.6405,-3.6405,-3.6405,-3.6405,-3.6405,-3.6405,-3.6405,-3.6405,-3.6405,-3.6405,-3.6405,-3.6405,-3.6405,-3.6405,-3.6405,-3.6405,-3.6405,-3.6405,-3.6405,-3.6405,-3.6405,-3.6405,-3.6405,-3.6709,-5.3636,-5.3521,-5.3202,-5.2227,-5.1354,-5.0456,-4.9267,-4.858,-4.7952,-4.7294,-4.7234,-4.7279,-4.7174,-4.7309,-4.7459,-4.7459,-4.8087,-4.9164,-5.084,-5.1633,-5.2052,-5.2052,-5.2052,-5.1828,-5.1274,-5.1124,-5.0749,-5.0091,-4.9479,-4.8865,-4.8177,-4.7608,-4.7309,-4.7309,-4.7309,-4.7309,-4.7309,-4.7309,-4.7309,-4.7309,-4.7309,-4.7309,-4.7309,-4.7309,-4.7249,-4.713,-4.6576,-4.5193,-4.3329,-4.1553,-3.973,-3.7984,-3.6849,-3.6405,-3.6405,-3.6405,-3.6405,-3.6405,-3.6405,-3.6468,-3.6518,-3.643,-3.6405,-3.6405,-3.6405,-3.6405,-3.6405,-3.6405,-3.6405,-3.6405,-3.6405,-3.6405,-3.6405,-3.6405,-3.6405,-3.6405,-3.6405,-3.6405,-3.6405,-3.6405,-3.6405,-3.6405,-3.6405,-3.6405,-3.6405,-3.6405,-3.6405,-3.6405,-3.6405,-3.6405,-3.6405,-3.6405,-3.6405,-3.6405,-3.6405,-3.6405,-3.6405,-3.6405,-3.6405,-3.6405,-3.6405,-3.6405,-3.6405,-3.6405,-3.6405,-3.6405,-3.6405,-3.6405,-3.6405,-3.6405,-3.6405,-3.6405,-5.4262,-5.4851,-5.4539,-5.1452,-5.0355,-4.9639,-4.8002,-4.7534,-4.7264,-4.6606,-4.692,-4.713,-4.6576,-4.7384,-4.8132,-4.8132,-4.9149,-5.0001,-5.03,-5.0945,-5.1364,-5.1364,-5.1364,-5.1334,-5.1229,-5.0674,-5.0122,-4.9464,-4.8805,-4.8147,-4.7489,-4.7354,-4.7309,-4.7309,-4.7309,-4.7309,-4.7309,-4.7309,-4.7309,-4.7309,-4.7309,-4.7309,-4.7309,-4.7309,-4.6995,-4.6429,-4.6324,-4.4927,-4.2667,-4.1327,-3.973,-3.7984,-3.6849,-3.6405,-3.6405,-3.6405,-3.6405,-3.6405,-3.6405,-3.6719,-3.6973,-3.6556,-3.6405,-3.6405,-3.6405,-3.6405,-3.6405,-3.6405,-3.6405,-3.6405,-3.6405,-3.6405,-3.6405,-3.6405,-3.6405,-3.6405,-3.6405,-3.6405,-3.6405,-3.6405,-3.6405,-3.6405,-3.6405,-3.6405,-3.6405,-3.6405,-3.6405,-3.6405,-3.6405,-3.6405,-3.6405,-3.6405,-3.6405,-3.6405,-3.6405,-3.6405,-3.6405,-3.6405,-3.6405,-3.6405,-3.6405,-3.6405,-3.6405,-3.6405,-3.6405,-3.6405,-3.6405,-3.6405,-3.6405,-3.6405,-3.6405,-3.6405,-5.2672,-5.3619,-5.3846,-5.1016,-5.0842,-5.073,-4.8373,-4.7563,-4.7219,-4.692,-4.71,-4.7219,-4.692,-4.7638,-4.8521,-4.9224,-4.9807,-5.0315,-5.0674,-5.1035,-5.1214,-5.1214,-5.1214,-5.1214,-5.1214,-5.0569,-4.9972,-4.9359,-4.87,-4.7997,-4.7339,-4.7309,-4.7309,-4.7309,-4.7309,-4.7309,-4.7309,-4.7309,-4.7309,-4.7309,-4.7309,-4.7309,-4.7309,-4.7309,-4.695,-4.6264,-4.5933,-4.4571,-4.2551,-4.1597,-4.0368,-3.9006,-3.8482,-3.8057,-3.7766,-3.817,-3.7884,-3.7333,-3.8049,-3.8002,-3.7588,-3.7324,-3.7249,-3.7199,-3.6945,-3.6857,-3.6782,-3.6493,-3.6405,-3.6405,-3.6405,-3.6405,-3.6405,-3.6405,-3.6405,-3.6405,-3.6405,-3.6405,-3.6405,-3.6405,-3.6405,-3.6405,-3.6405,-3.6405,-3.6405,-3.6405,-3.6405,-3.6405,-3.6405,-3.6405,-3.6405,-3.6405,-3.6405,-3.6405,-3.6405,-3.6405,-3.6405,-3.6405,-3.6405,-3.6405,-3.6405,-3.6405,-3.6405,-3.6405,-3.6405,-3.6405,-3.6405,-3.6405,-3.6405,-3.6405,-3.6405,-3.6405,-5.1708,-5.2469,-5.2756,-5.0804,-5.1224,-5.1468,-4.9078,-4.7893,-4.7309,-4.7309,-4.7429,-4.7444,-4.713,-4.7863,-4.8895,-5.0001,-5.0315,-5.0599,-5.1154,-5.1214,-5.1214,-5.1214,-5.1214,-5.1214,-5.1214,-5.0496,-4.9808,-4.9344,-4.8521,-4.7833,-4.7339,-4.7309,-4.7309,-4.7309,-4.7309,-4.7309,-4.7309,-4.716,-4.716,-4.7309,-4.7309,-4.7309,-4.7294,-4.7145,-4.6711,-4.6052,-4.5364,-4.4027,-4.232,-4.1789,-4.1001,-4.0106,-4.0106,-3.9874,-3.9634,-3.9806,-3.9381,-3.8745,-3.9293,-3.8923,-3.8191,-3.8052,-3.8002,-3.7927,-3.75,-3.7374,-3.7287,-3.6908,-3.6795,-3.6732,-3.648,-3.6405,-3.6405,-3.6405,-3.6405,-3.6405,-3.6405,-3.6405,-3.6405,-3.6405,-3.6405,-3.6405,-3.6405,-3.6405,-3.6405,-3.6405,-3.6405,-3.6405,-3.6405,-3.6405,-3.6405,-3.6405,-3.6405,-3.6405,-3.6405,-3.6405,-3.6405,-3.6405,-3.6405,-3.6405,-3.6405,-3.6405,-3.6405,-3.6405,-3.6405,-3.6405,-3.6405,-3.6405,-3.6405,-3.6405,-3.6405,-3.6534,-5.3129,-5.2875,-5.2118,-5.1041,-5.0696,-5.039,-4.9457,-4.8222,-4.7309,-4.7309,-4.7788,-4.7848,-4.6621,-4.7938,-4.9419,-5.0076,-5.0704,-5.1122,-5.1214,-5.1214,-5.1214,-5.1214,-5.1214,-5.1214,-5.1214,-5.0077,-4.9359,-4.9314,-4.8087,-4.7354,-4.7309,-4.7309,-4.7309,-4.7309,-4.7309,-4.7309,-4.7309,-4.6696,-4.6696,-4.7309,-4.7309,-4.7309,-4.7279,-4.6681,-4.6022,-4.5334,-4.4661,-4.3348,-4.1659,-4.1616,-4.127,-4.0731,-4.0731,-4.1104,-4.1448,-4.0315,-4.0192,-4.0359,-3.8696,-3.8453,-3.8718,-3.8178,-3.8002,-3.8002,-3.7952,-3.7952,-3.7939,-3.7902,-3.7889,-3.7651,-3.6669,-3.6405,-3.6405,-3.6405,-3.6405,-3.6405,-3.6405,-3.6405,-3.6405,-3.6405,-3.6405,-3.6405,-3.6405,-3.6405,-3.6405,-3.6405,-3.6405,-3.6405,-3.6405,-3.6405,-3.6405,-3.6405,-3.6405,-3.6405,-3.6405,-3.6405,-3.6405,-3.6405,-3.6405,-3.6405,-3.6405,-3.6405,-3.6405,-3.6405,-3.6405,-3.6405,-3.6405,-3.6405,-3.6405,-3.6405,-3.6405,-3.6977,-5.1302,-5.1505,-5.1478,-5.0859,-5.0278,-4.9674,-4.9055,-4.8417,-4.8027,-4.8446,-4.8775,-4.879,-4.8252,-4.8805,-4.9479,-5.0091,-5.0749,-5.1214,-5.1214,-5.1214,-5.1214,-5.1214,-5.1214,-5.1065,-5.0599,-4.9793,-4.9149,-4.8686,-4.7818,-4.7309,-4.7309,-4.7309,-4.7309,-4.7309,-4.7309,-4.7115,-4.6696,-4.6456,-4.6232,-4.6067,-4.6486,-4.692,-4.7294,-4.7055,-4.6337,-4.5289,-4.5035,-4.4058,-4.2673,-4.3112,-4.316,-4.2921,-4.2139,-4.1994,-4.215,-4.1269,-4.0611,-4.0107,-4.0212,-3.9865,-3.9346,-3.9132,-3.9057,-3.8994,-3.8642,-3.8542,-3.8467,-3.8115,-3.8002,-3.7839,-3.7073,-3.692,-3.6784,-3.6493,-3.6405,-3.6405,-3.6405,-3.6405,-3.6405,-3.6405,-3.6405,-3.6405,-3.6405,-3.6405,-3.6405,-3.6405,-3.6405,-3.6405,-3.6405,-3.6405,-3.6405,-3.6405,-3.6405,-3.6405,-3.6405,-3.6405,-3.6405,-3.6405,-3.6405,-3.6405,-3.6405,-3.6405,-3.6405,-3.6405,-3.6405,-3.6405,-3.6405,-3.6405,-3.6405,-3.6405,-3.6405,-3.6628,-5.0152,-5.0473,-5.072,-5.0182,-4.9491,-4.8974,-4.9025,-4.863,-4.8476,-4.9179,-4.9149,-4.9,-4.9,-4.9179,-4.9419,-4.9868,-5.0661,-5.1214,-5.1214,-5.1214,-5.1214,-5.1214,-5.1214,-5.096,-5.0255,-4.9643,-4.9045,-4.8341,-4.7683,-4.7309,-4.7309,-4.7309,-4.7309,-4.7309,-4.7309,-4.7085,-4.6636,-4.6217,-4.5873,-4.5618,-4.5663,-4.6142,-4.6995,-4.677,-4.6172,-4.5274,-4.4855,-4.4287,-4.3633,-4.4122,-4.4296,-4.4282,-4.3638,-4.3162,-4.2702,-4.1874,-4.1319,-4.0982,-4.1455,-4.1269,-4.0844,-4.0415,-4.0313,-4.0147,-3.9385,-3.9411,-3.9562,-3.8743,-3.8817,-3.8925,-3.7999,-3.7575,-3.7349,-3.6973,-3.6795,-3.6669,-3.6669,-3.6531,-3.6405,-3.6405,-3.6405,-3.6405,-3.6405,-3.6405,-3.6405,-3.6405,-3.6405,-3.6405,-3.6405,-3.6405,-3.6405,-3.6405,-3.6405,-3.6405,-3.6405,-3.6405,-3.6405,-3.6405,-3.6405,-3.6405,-3.6405,-3.6405,-3.6405,-3.6405,-3.6405,-3.6405,-3.6405,-3.6405,-3.6405,-3.6405,-3.6405,-3.6581,-5.0287,-5.0084,-4.9877,-4.8878,-4.8369,-4.8415,-4.9466,-4.9007,-4.8476,-4.9194,-4.876,-4.8312,-4.8312,-4.888,-4.9329,-4.9329,-5.0361,-5.1214,-5.1214,-5.1214,-5.1214,-5.1214,-5.1214,-5.0898,-5.024,-4.9628,-4.903,-4.8327,-4.7683,-4.7309,-4.7309,-4.7294,-4.7294,-4.7309,-4.7294,-4.7279,-4.7279,-4.5963,-4.5618,-4.6234,-4.4945,-4.502,-4.6249,-4.5603,-4.5289,-4.5214,-4.3873,-4.3678,-4.4317,-4.4332,-4.4356,-4.448,-4.5158,-4.4642,-4.3361,-4.207,-4.2412,-4.3313,-4.207,-4.2461,-4.3266,-4.2035,-4.1604,-4.1369,-4.007,-4.0605,-4.1319,-4.0083,-4.0605,-4.1188,-3.9348,-3.8454,-3.8015,-3.8002,-3.7588,-3.7199,-3.7199,-3.6807,-3.6417,-3.6417,-3.6417,-3.6417,-3.6405,-3.6405,-3.6405,-3.6405,-3.6405,-3.6405,-3.6405,-3.6405,-3.6405,-3.6405,-3.6405,-3.6405,-3.6405,-3.6405,-3.6405,-3.6405,-3.6405,-3.6405,-3.6405,-3.6405,-3.6405,-3.6405,-3.6405,-3.6405,-3.6405,-3.6405,-3.6405,-3.6405,-3.6405,-3.7023,-5.0287,-5.0084,-5.0139,-5.0387,-5.0006,-4.9815,-5.0668,-4.9928,-4.9299,-5.0406,-5.0122,-4.9613,-4.9613,-4.9823,-4.9942,-4.9942,-5.0661,-5.1214,-5.1214,-5.1214,-5.105,-5.0539,-5.048,-5.0092,-4.897,-4.8686,-4.8297,-4.7653,-4.7414,-4.7309,-4.7309,-4.686,-4.683,-4.7294,-4.6381,-4.5888,-4.5888,-4.5035,-4.4481,-4.4186,-4.4246,-4.4766,-4.5589,-4.5394,-4.5035,-4.4586,-4.4197,-4.4137,-4.4392,-4.5334,-4.6005,-4.6372,-4.5661,-4.5161,-4.4688,-4.3409,-4.317,-4.3456,-4.3074,-4.2593,-4.2119,-4.1739,-4.0982,-4.0173,-3.9788,-3.9981,-4.0173,-3.9788,-3.9981,-4.0134,-3.9586,-3.932,-3.8994,-3.8191,-3.7889,-3.7764,-3.7764,-3.7638,-3.74,-3.7059,-3.6935,-3.6857,-3.648,-3.6405,-3.6405,-3.6405,-3.6405,-3.6405,-3.6405,-3.6405,-3.6405,-3.6405,-3.6405,-3.6405,-3.6405,-3.6405,-3.6405,-3.6405,-3.6405,-3.6405,-3.6405,-3.6405,-3.6405,-3.6405,-3.6405,-3.6405,-3.6405,-3.6405,-3.6405,-3.6405,-3.6405,-3.6581,-5.0219,-5.0304,-5.0614,-5.0961,-5.0622,-5.0311,-5.0819,-5.0262,-4.9942,-5.1005,-5.0496,-4.9853,-4.9853,-4.9853,-4.9763,-4.9508,-5.0181,-5.0735,-5.0481,-5.0451,-5.0301,-4.9898,-4.9853,-4.9449,-4.8386,-4.8282,-4.8012,-4.7354,-4.7309,-4.7189,-4.6935,-4.6503,-4.6381,-4.6501,-4.5723,-4.5289,-4.5289,-4.4646,-4.4122,-4.3678,-4.3828,-4.4122,-4.4526,-4.4781,-4.4691,-4.4332,-4.4586,-4.4706,-4.4811,-4.6157,-4.6618,-4.6447,-4.5689,-4.507,-4.4549,-4.3787,-4.3504,-4.3504,-4.3504,-4.2978,-4.2266,-4.1739,-4.1082,-4.0364,-3.9839,-4.0032,-4.0364,-3.9839,-4.0083,-4.0364,-3.9839,-3.9697,-3.9521,-3.8843,-3.8504,-3.8354,-3.8354,-3.8165,-3.7902,-3.7575,-3.7513,-3.7412,-3.7073,-3.7059,-3.6935,-3.6769,-3.6556,-3.6405,-3.6405,-3.6405,-3.6405,-3.6405,-3.6405,-3.6405,-3.6405,-3.6405,-3.6405,-3.6405,-3.6405,-3.6405,-3.6405,-3.6405,-3.6405,-3.6405,-3.6405,-3.6405,-3.6405,-3.6405,-3.6405,-3.6405,-3.6405,-3.6405,-5.0084,-5.0591,-5.109,-5.0951,-5.0614,-5.0278,-5.017,-5.0106,-5.0285,-5.0943,-5.0137,-4.9314,-4.9314,-4.9314,-4.912,-4.8476,-4.9374,-4.9942,-4.9404,-4.9314,-4.9284,-4.9224,-4.9224,-4.897,-4.8252,-4.8192,-4.7952,-4.7354,-4.7309,-4.7025,-4.6324,-4.6219,-4.5948,-4.5319,-4.5185,-4.5155,-4.5214,-4.4556,-4.4227,-4.4212,-4.3574,-4.329,-4.3319,-4.3943,-4.4257,-4.4347,-4.5005,-4.5334,-4.5484,-4.677,-4.6638,-4.5584,-4.5584,-4.4872,-4.3834,-4.374,-4.374,-4.3834,-4.3598,-4.3504,-4.3313,-4.2035,-4.1505,-4.1219,-4.0173,-4.0605,-4.1219,-4.0313,-4.0693,-4.1169,-4.0121,-3.9788,-3.9697,-3.9697,-3.9308,-3.8994,-3.8994,-3.853,-3.814,-3.809,-3.809,-3.8065,-3.8015,-3.8002,-3.7839,-3.7337,-3.6832,-3.648,-3.648,-3.6443,-3.6405,-3.6405,-3.6405,-3.6405,-3.6405,-3.6405,-3.6405,-3.6405,-3.6405,-3.6405,-3.6405,-3.6405,-3.6405,-3.6405,-3.6405,-3.6405,-3.6405,-3.6405,-3.6405,-3.6405,-3.6405,-3.6405,-5.0084,-5.0202,-5.061,-5.1714,-5.1572,-5.0848,-4.9746,-4.9479,-4.9658,-5.027,-4.9823,-4.9314,-4.9314,-4.9314,-4.9269,-4.912,-4.9329,-4.9434,-4.9329,-4.9314,-4.912,-4.8566,-4.8506,-4.8237,-4.7578,-4.7519,-4.7459,-4.7309,-4.7309,-4.7025,-4.6324,-4.5813,-4.5454,-4.5289,-4.4287,-4.3962,-4.4526,-4.3828,-4.3499,-4.3499,-4.3364,-4.329,-4.329,-4.3439,-4.3783,-4.4347,-4.5005,-4.5603,-4.6172,-4.698,-4.7164,-4.6873,-4.6873,-4.6726,-4.6358,-4.5358,-4.5629,-4.6211,-4.421,-4.3504,-4.3313,-4.2035,-4.0932,-4.0224,-4.0982,-4.0693,-4.0453,-4.2217,-4.1455,-4.0262,-4.0982,-4.0453,-3.9697,-3.9697,-3.9597,-3.9521,-3.9521,-3.9421,-3.9195,-3.8768,-3.873,-3.8542,-3.809,-3.8002,-3.7965,-3.7852,-3.7362,-3.7059,-3.7059,-3.6681,-3.6405,-3.6405,-3.6405,-3.6405,-3.6405,-3.6405,-3.6405,-3.6405,-3.6405,-3.6405,-3.6405,-3.6405,-3.6405,-3.6405,-3.6405,-3.6405,-3.6405,-3.6405,-3.6405,-3.6405,-3.6405,-3.6405,-5.0439,-5.0642,-5.0821,-5.1676,-5.162,-5.1046,-4.9609,-4.906,-4.8895,-4.9239,-4.903,-4.879,-4.879,-4.879,-4.8745,-4.8371,-4.8596,-4.8686,-4.8371,-4.8327,-4.8192,-4.7863,-4.7818,-4.7683,-4.7339,-4.7309,-4.7174,-4.686,-4.683,-4.6411,-4.5424,-4.502,-4.4676,-4.4362,-4.3648,-4.3454,-4.3838,-4.3469,-4.329,-4.329,-4.329,-4.3454,-4.3768,-4.3768,-4.4127,-4.4825,-4.5499,-4.5992,-4.6324,-4.704,-4.7309,-4.7309,-4.7309,-4.7309,-4.7207,-4.6535,-4.6344,-4.6211,-4.4872,-4.4022,-4.3409,-4.2738,-4.207,-4.1654,-4.2315,-4.1604,-4.0882,-4.2217,-4.1169,-3.9839,-4.0503,-4.0224,-3.9697,-3.9697,-3.9697,-3.9697,-3.9697,-3.9697,-3.9609,-3.932,-3.927,-3.917,-3.8868,-3.8592,-3.8417,-3.8417,-3.7713,-3.7186,-3.7186,-3.6744,-3.6405,-3.6405,-3.6405,-3.6405,-3.6405,-3.6405,-3.6405,-3.6405,-3.6405,-3.6405,-3.6405,-3.6405,-3.6405,-3.6405,-3.6405,-3.6405,-3.6405,-3.6405,-3.6405,-3.6405,-3.6405,-3.6405,-5.0642,-5.1217,-5.1363,-5.1302,-5.1259,-5.0865,-4.9524,-4.8668,-4.8117,-4.8117,-4.8117,-4.8117,-4.8117,-4.8117,-4.7938,-4.7399,-4.7758,-4.7923,-4.7384,-4.7309,-4.7309,-4.7309,-4.7309,-4.7309,-4.7309,-4.7309,-4.704,-4.6324,-4.6279,-4.5696,-4.4392,-4.4317,-4.4003,-4.3319,-4.329,-4.329,-4.329,-4.329,-4.329,-4.329,-4.329,-4.3693,-4.4481,-4.4481,-4.484,-4.5499,-4.6082,-4.6396,-4.6531,-4.7085,-4.7309,-4.7309,-4.7309,-4.7309,-4.7266,-4.7062,-4.6447,-4.5689,-4.5207,-4.4549,-4.374,-4.3313,-4.317,-4.317,-4.317,-4.2266,-4.1369,-4.1789,-4.0844,-3.9736,-3.9981,-3.9839,-3.9697,-3.9697,-3.9697,-3.9697,-3.9697,-3.9697,-3.9697,-3.9697,-3.9697,-3.9697,-3.9697,-3.932,-3.9057,-3.9057,-3.8052,-3.7362,-3.7462,-3.6958,-3.6556,-3.6556,-3.6556,-3.6518,-3.6417,-3.6405,-3.6405,-3.6405,-3.6405,-3.6405,-3.6405,-3.6405,-3.6405,-3.6405,-3.6405,-3.6405,-3.6405,-3.6405,-3.6405,-3.6405,-3.6405,-3.6405,-5.0016,-5.1183,-5.1933,-5.1102,-5.0719,-5.0246,-4.9114,-4.8101,-4.7429,-4.7429,-4.7429,-4.7429,-4.7429,-4.7429,-4.7399,-4.7309,-4.7384,-4.7399,-4.7309,-4.7309,-4.7309,-4.7309,-4.7309,-4.7309,-4.7309,-4.7309,-4.704,-4.6324,-4.6279,-4.5696,-4.4392,-4.4317,-4.4003,-4.3319,-4.329,-4.329,-4.329,-4.329,-4.329,-4.329,-4.329,-4.3973,-4.517,-4.517,-4.5544,-4.6187,-4.6249,-4.6651,-4.7174,-4.7264,-4.7309,-4.7309,-4.7309,-4.7309,-4.7164,-4.6062,-4.6255,-4.6726,-4.4503,-4.4349,-4.478,-4.2544,-4.1838,-4.1838,-4.1838,-4.0982,-4.0415,-4.2641,-4.1555,-3.9929,-4.1082,-4.0554,-3.9697,-3.9697,-3.9697,-3.9697,-3.9697,-3.9697,-3.9697,-3.9697,-3.9697,-3.9697,-3.9697,-3.9634,-3.9584,-3.9584,-3.8617,-3.8078,-3.863,-3.7726,-3.7073,-3.7073,-3.7073,-3.6933,-3.6455,-3.6405,-3.6405,-3.6405,-3.6405,-3.6405,-3.6405,-3.6405,-3.6405,-3.6405,-3.6405,-3.6405,-3.6405,-3.6405,-3.6405,-3.6405,-3.6405,-3.6405,-4.9272,-5.0557,-5.1529,-5.0946,-5.0274,-4.9594,-4.8935,-4.803,-4.7309,-4.7309,-4.7309,-4.7309,-4.7309,-4.7309,-4.7309,-4.7309,-4.7309,-4.7309,-4.7309,-4.7309,-4.7309,-4.7309,-4.7309,-4.7309,-4.7309,-4.698,-4.6471,-4.5798,-4.5409,-4.474,-4.3768,-4.3723,-4.3589,-4.3305,-4.329,-4.329,-4.329,-4.329,-4.329,-4.329,-4.329,-4.4018,-4.5289,-4.5289,-4.5873,-4.6875,-4.6875,-4.704,-4.7309,-4.7309,-4.7309,-4.7309,-4.7309,-4.7309,-4.7207,-4.6682,-4.6829,-4.7164,-4.6018,-4.6018,-4.6166,-4.4303,-4.374,-4.3598,-4.2882,-4.1789,-4.0982,-4.2119,-4.1119,-3.9839,-4.0415,-4.0121,-3.9697,-3.9697,-3.9697,-3.9697,-3.9697,-3.9697,-3.9697,-3.9697,-3.9697,-3.9697,-3.9697,-3.9697,-3.9697,-3.9697,-3.9007,-3.858,-3.8894,-3.8153,-3.7651,-3.7651,-3.7362,-3.7086,-3.6895,-3.6581,-3.6405,-3.6405,-3.6405,-3.6405,-3.6405,-3.6405,-3.6405,-3.6405,-3.6405,-3.6405,-3.6405,-3.6405,-3.6405,-3.6405,-3.6405,-3.6405,-4.8291,-4.9526,-5.06,-5.0375,-5.0017,-4.9544,-4.9024,-4.8295,-4.7609,-4.7337,-4.7309,-4.7309,-4.7309,-4.7309,-4.7309,-4.7309,-4.7174,-4.7055,-4.7055,-4.7055,-4.7055,-4.7055,-4.7204,-4.7309,-4.7309,-4.6711,-4.6037,-4.5349,-4.4691,-4.3992,-4.3334,-4.329,-4.329,-4.329,-4.329,-4.329,-4.329,-4.329,-4.329,-4.329,-4.329,-4.4018,-4.5289,-4.5289,-4.6022,-4.7309,-4.7309,-4.7309,-4.7309,-4.7309,-4.7309,-4.7309,-4.7309,-4.7309,-4.7309,-4.7309,-4.7309,-4.7309,-4.7309,-4.7062,-4.6594,-4.5358,-4.4688,-4.421,-4.293,-4.1887,-4.1119,-4.1119,-4.0415,-3.9697,-3.9697,-3.9697,-3.9697,-3.9697,-3.9697,-3.9697,-3.9697,-3.9697,-3.9697,-3.9697,-3.9697,-3.9697,-3.9697,-3.9697,-3.9697,-3.9697,-3.922,-3.8969,-3.9108,-3.858,-3.8228,-3.8228,-3.7864,-3.755,-3.7412,-3.7023,-3.6832,-3.6832,-3.6832,-3.6769,-3.6619,-3.6619,-3.6556,-3.6405,-3.6405,-3.6405,-3.6405,-3.6405,-3.6405,-3.6405,-3.6405,-3.6405,-4.6887,-4.7986,-4.9089,-4.9092,-4.9926,-5.0461,-4.9502,-4.8985,-4.8444,-4.7495,-4.7309,-4.7309,-4.7309,-4.7309,-4.7309,-4.7309,-4.6785,-4.6324,-4.6324,-4.6324,-4.6324,-4.6324,-4.692,-4.7309,-4.7309,-4.6711,-4.6037,-4.5349,-4.4691,-4.3992,-4.3334,-4.329,-4.329,-4.329,-4.329,-4.329,-4.329,-4.329,-4.329,-4.329,-4.329,-4.4018,-4.5289,-4.5289,-4.6022,-4.7309,-4.7309,-4.7309,-4.7309,-4.7309,-4.7309,-4.7309,-4.7309,-4.7309,-4.7309,-4.7309,-4.7309,-4.7309,-4.7309,-4.6491,-4.5298,-4.4022,-4.2786,-4.1555,-4.0262,-3.9839,-3.9788,-3.9788,-3.9736,-3.9697,-3.9697,-3.9697,-3.9697,-3.9697,-3.9697,-3.9697,-3.9697,-3.9697,-3.9697,-3.9697,-3.9697,-3.9697,-3.9697,-3.9697,-3.9697,-3.9697,-3.922,-3.9057,-3.9584,-3.917,-3.8831,-3.8831,-3.8856,-3.8567,-3.8015,-3.7939,-3.7927,-3.7927,-3.7927,-3.7688,-3.7161,-3.7149,-3.6945,-3.6417,-3.6405,-3.6405,-3.6405,-3.6405,-3.6405,-3.6405,-3.6405,-3.6405,-4.6227,-4.7175,-4.8426,-4.8883,-4.8825,-4.8835,-4.942,-4.9309,-4.8836,-4.7784,-4.7946,-4.8072,-4.7424,-4.7309,-4.7309,-4.7309,-4.6756,-4.6279,-4.6279,-4.5948,-4.5828,-4.6277,-4.6488,-4.6845,-4.7264,-4.6307,-4.5559,-4.5319,-4.4287,-4.3544,-4.3305,-4.329,-4.329,-4.329,-4.329,-4.329,-4.329,-4.329,-4.329,-4.329,-4.329,-4.4018,-4.5289,-4.5289,-4.6022,-4.7309,-4.7309,-4.7309,-4.7309,-4.7309,-4.7309,-4.7309,-4.7309,-4.7309,-4.7309,-4.7309,-4.7309,-4.7309,-4.7309,-4.7019,-4.6255,-4.4163,-4.317,-4.2412,-4.0313,-4.0262,-4.0743,-3.9929,-4.0262,-4.0743,-3.9929,-3.9697,-3.9697,-3.9697,-3.9697,-3.9697,-3.9697,-3.9697,-3.9697,-3.9697,-3.9697,-3.9697,-3.9697,-3.9697,-3.9697,-3.9697,-3.9534,-3.9471,-3.9672,-3.9521,-3.9396,-3.9396,-3.9082,-3.8831,-3.858,-3.8216,-3.8002,-3.8002,-3.8002,-3.7914,-3.7713,-3.7713,-3.745,-3.6945,-3.6885,-3.6757,-3.6405,-3.6405,-3.6405,-3.6405,-3.6405,-3.6405,-4.5449,-4.6227,-4.7344,-4.8088,-4.8113,-4.8249,-4.9121,-4.915,-4.8698,-4.786,-4.7825,-4.784,-4.7379,-4.713,-4.698,-4.698,-4.6232,-4.5648,-4.5648,-4.5259,-4.5214,-4.5903,-4.6145,-4.6576,-4.7234,-4.6292,-4.5544,-4.5319,-4.4287,-4.3529,-4.3305,-4.329,-4.329,-4.329,-4.329,-4.329,-4.329,-4.329,-4.3409,-4.3618,-4.3618,-4.4362,-4.5648,-4.5648,-4.6247,-4.7309,-4.7309,-4.7309,-4.7309,-4.7309,-4.7309,-4.7309,-4.7309,-4.7309,-4.7309,-4.7309,-4.7309,-4.7309,-4.7309,-4.7019,-4.6403,-4.4688,-4.3834,-4.3122,-4.0982,-4.0932,-4.1319,-4.0083,-4.0313,-4.0794,-3.9929,-3.9697,-3.9697,-3.9697,-3.9697,-3.9697,-3.9697,-3.9697,-3.9697,-3.9697,-3.9697,-3.9697,-3.9697,-3.9697,-3.9697,-3.9697,-3.9697,-3.9697,-3.9697,-3.9697,-3.9697,-3.9697,-3.9371,-3.9145,-3.9145,-3.8793,-3.8567,-3.8567,-3.8567,-3.8492,-3.8304,-3.8304,-3.8027,-3.7475,-3.7462,-3.7186,-3.6681,-3.6505,-3.6405,-3.6405,-3.6405,-3.6405,0.0,0.0,0.0,-4.6583,-4.7834,-4.8868,-4.8613,-4.8391,-4.8137,-4.7744,-4.6924,-4.6456,-4.7115,-4.6711,-4.6219,-4.6219,-4.517,-4.4332,-4.4347,-4.4332,-4.4556,-4.5214,-4.5903,-4.6576,-4.7219,-4.6696,-4.6052,-4.5379,-4.4691,-4.4032,-4.3349,-4.3305,-4.329,-4.329,-4.329,-4.329,-4.329,-4.329,-4.3618,-4.4317,-4.4317,-4.502,-4.6279,-4.6279,-4.6681,-4.7309,-4.7309,-4.7309,-4.7309,-4.7309,-4.7309,-4.7309,-4.7309,-4.7309,-4.7309,-4.7309,-4.7309,-4.7309,-4.7309,-4.6491,-4.5448,-4.5403,-4.4549,-4.3266,-4.1985,-4.1604,-4.1319,-4.0096,-3.9761,-3.9761,-3.9722,-3.9722,-3.971,-3.9697,-3.9697,-3.9697,-3.9697,-3.9697,-3.9697,-3.9697,-3.9697,-3.9697,-3.9697,-3.9697,-3.9697,-3.9697,-3.9697,-3.9697,-3.9697,-3.9697,-3.9697,-3.9697,-3.9697,-3.9697,-3.9697,-3.9697,-3.9697,-3.9697,-3.9697,-3.9459,-3.8969,-3.8944,-3.8617,-3.804,-3.804,-3.7764,-3.7211,-3.6707,-3.643,-3.6405,-3.6405,-3.6405,-4.475,0.0,0.0,0.0,0.0,0.0,-4.7852,-4.7554,-4.7131,-4.7289,-4.6616,-4.5978,-4.5875,-4.5319,-4.487,-4.487,-4.4556,-4.4481,-4.496,-4.4616,-4.4556,-4.5214,-4.5903,-4.6354,-4.6576,-4.6384,-4.6204,-4.6052,-4.496,-4.4242,-4.4007,-4.3544,-4.329,-4.329,-4.329,-4.329,-4.329,-4.329,-4.3618,-4.4317,-4.4317,-4.502,-4.6279,-4.6279,-4.6681,-4.7309,-4.7309,-4.7309,-4.7309,-4.7309,-4.7309,-4.7309,-4.7309,-4.7309,-4.7309,-4.7309,-4.7309,-4.7309,-4.7309,-4.7062,-4.6638,-4.5689,-4.4549,-4.3266,-4.1985,-4.1604,-4.1411,-4.0513,-4.0913,-4.1452,-4.0536,-4.0287,-4.0187,-3.9785,-3.9697,-3.9697,-3.9697,-3.9697,-3.9697,-3.9697,-3.9697,-3.9697,-3.9697,-3.9697,-3.9697,-3.9697,-3.9697,-3.9697,-3.9697,-3.9697,-3.9697,-3.9697,-3.9697,-3.9697,-3.9697,-3.9697,-3.9697,-3.9697,-3.9697,-3.9622,-3.9471,-3.9471,-3.9207,-3.8642,-3.863,-3.8341,-3.7776,-3.7224,-3.6795,-3.6405,-3.6405,-3.6405,-4.4131,-4.4382,-4.4859,-4.5532,0.0,0.0,-4.7074,-4.6631,-4.6099,-4.6486,-4.5865,-4.5255,-4.5278,-4.4751,-4.4317,-4.4317,-4.4317,-4.4451,-4.4825,-4.4556,-4.4661,-4.5603,-4.6082,-4.6384,-4.6711,-4.6741,-4.6621,-4.6309,-4.5334,-4.4481,-4.3888,-4.3499,-4.329,-4.329,-4.329,-4.329,-4.329,-4.329,-4.3768,-4.4721,-4.4721,-4.5424,-4.6741,-4.6741,-4.6935,-4.7309,-4.7309,-4.7309,-4.7309,-4.7309,-4.7309,-4.7309,-4.7309,-4.7309,-4.7309,-4.7309,-4.7309,-4.7309,-4.7309,-4.7309,-4.7062,-4.5824,-4.4872,-4.3975,-4.2168,-4.1604,-4.1437,-4.0703,-4.123,-4.1737,-4.0774,-4.0513,-4.0375,-3.9823,-3.9697,-3.9697,-3.9697,-3.9697,-3.9697,-3.9697,-3.9697,-3.9697,-3.9697,-3.9697,-3.9697,-3.9697,-3.9697,-3.9697,-3.9697,-3.9697,-3.9697,-3.9697,-3.9697,-3.9697,-3.9697,-3.9697,-3.9697,-3.9697,-3.9697,-3.9697,-3.9697,-3.9697,-3.9546,-3.922,-3.922,-3.8931,-3.8366,-3.7563,-3.7023,-3.6757,-3.6757,-3.6822,-4.3333,-4.3385,-4.3715,-4.5064,-4.5475,0.0,-4.6024,-4.54,-4.4839,-4.5266,-4.4567,-4.4107,-4.4825,-4.4496,-4.4122,-4.4197,-4.4272,-4.4347,-4.4407,-4.4496,-4.4975,-4.6145,-4.6396,-4.6636,-4.7145,-4.7264,-4.7055,-4.6471,-4.5723,-4.4721,-4.3364,-4.329,-4.329,-4.329,-4.329,-4.329,-4.329,-4.3364,-4.4062,-4.5289,-4.5379,-4.6067,-4.7309,-4.7309,-4.7309,-4.7309,-4.7309,-4.7309,-4.7309,-4.7309,-4.7309,-4.7309,-4.7309,-4.7309,-4.7309,-4.7309,-4.7309,-4.7266,-4.7164,-4.7062,-4.6873,-4.5584,-4.5207,-4.478,-4.2509,-4.1743,-4.1542,-4.0868,-4.1091,-4.1338,-4.084,-4.0651,-4.0463,-3.9923,-3.9735,-3.9697,-3.9697,-3.9697,-3.9697,-3.9697,-3.9697,-3.9697,-3.9697,-3.9697,-3.9697,-3.9697,-3.9697,-3.9697,-3.9697,-3.9697,-3.9697,-3.9697,-3.9697,-3.9697,-3.9697,-3.9697,-3.9697,-3.9697,-3.9697,-3.9697,-3.9697,-3.9697,-3.9697,-3.9697,-3.9697,-3.9421,-3.8919,-3.7801,-3.7274,-3.7274,-3.7274,-3.7538,-4.3859,-4.386,-4.3813,-4.359,-4.3929,0.0,-4.3831,-4.3051,-4.256,-4.3226,-4.2171,-4.1519,-4.2755,-4.2875,-4.291,-4.3409,-4.3932,-4.4496,-4.5035,-4.5574,-4.5995,-4.6249,-4.68,-4.695,-4.6503,-4.6995,-4.7249,-4.7115,-4.5978,-4.4721,-4.3364,-4.329,-4.329,-4.329,-4.329,-4.329,-4.329,-4.3828,-4.4526,-4.5304,-4.5858,-4.6531,-4.7309,-4.7309,-4.7309,-4.7309,-4.7309,-4.7309,-4.7309,-4.7309,-4.7309,-4.7309,-4.7309,-4.7309,-4.7309,-4.7309,-4.7309,-4.7164,-4.6107,-4.5779,-4.5539,-4.4256,-4.3882,-4.3787,-4.3266,-4.2686,-4.2172,-4.196,-4.2233,-4.2522,-4.2037,-4.1505,-4.0987,-4.0488,-4.0011,-3.9697,-3.9697,-3.9697,-3.9697,-3.9697,-3.9697,-3.9697,-3.9697,-3.9697,-3.9697,-3.9697,-3.9697,-3.9697,-3.9697,-3.9697,-3.9697,-3.9697,-3.9697,-3.9697,-3.9697,-3.9697,-3.9697,-3.9697,-3.9697,-3.9697,-3.9697,-3.9697,-3.9697,-3.9697,-3.9697,-3.9421,-3.8919,-3.8178,-3.7839,-3.7839,-3.7839,-3.7902,-4.331,-4.3355,-4.3381,-4.3478,-4.3499,0.0,0.0,-4.2275,-4.1862,-4.2493,-4.1685,-4.119,-4.2216,-4.2126,-4.2126,-4.2746,-4.3404,-4.4062,-4.4721,-4.5678,-4.6399,-4.677,-4.7115,-4.7174,-4.6845,-4.7115,-4.7025,-4.6352,-4.5678,-4.4721,-4.3364,-4.329,-4.329,-4.329,-4.329,-4.329,-4.329,-4.3947,-4.4646,-4.5304,-4.5992,-4.6666,-4.7309,-4.7309,-4.7309,-4.7309,-4.7309,-4.7309,-4.7309,-4.7309,-4.7309,-4.7309,-4.7309,-4.7309,-4.7309,-4.7309,-4.7309,-4.7207,-4.6594,-4.6344,-4.6166,-4.4872,-4.4442,-4.421,-4.293,-4.2198,-4.1888,-4.2124,-4.2602,-4.2848,-4.2351,-4.1743,-4.115,-4.0651,-4.0099,-3.9697,-3.9697,-3.9697,-3.9697,-3.9697,-3.9697,-3.9697,-3.9697,-3.9697,-3.9697,-3.9697,-3.9697,-3.9697,-3.9697,-3.9697,-3.9697,-3.9697,-3.9697,-3.9697,-3.9697,-3.9697,-3.9697,-3.9697,-3.9697,-3.9697,-3.9697,-3.9697,-3.9697,-3.9697,-3.9697,-3.9559,-3.9283,-3.8994,-3.8705,-3.8442,-3.8442,-3.858,-4.2775,-4.2806,-4.2947,-4.3383,-4.3197,-4.2724,0.0,0.0,0.0,-4.1783,-4.1407,-4.1205,-4.1901,-4.1587,-4.1444,-4.2276,-4.291,-4.3529,-4.4227,-4.5364,-4.6322,-4.686,-4.692,-4.698,-4.71,-4.7115,-4.6606,-4.5394,-4.517,-4.4586,-4.3349,-4.329,-4.329,-4.329,-4.329,-4.329,-4.329,-4.4107,-4.4766,-4.5304,-4.6127,-4.68,-4.7309,-4.7309,-4.7309,-4.7309,-4.7309,-4.7309,-4.7309,-4.7309,-4.7309,-4.7309,-4.7309,-4.7309,-4.7309,-4.7309,-4.7309,-4.7251,-4.7019,-4.6931,-4.6726,-4.5448,-4.5095,-4.4793,-4.2574,-4.188,-4.1916,-4.2267,-4.269,-4.2873,-4.2489,-4.1907,-4.1379,-4.094,-4.0325,-3.9848,-3.9848,-3.9772,-3.9697,-3.9697,-3.9697,-3.9697,-3.9697,-3.9697,-3.9697,-3.9697,-3.9697,-3.9697,-3.9697,-3.9697,-3.9697,-3.9697,-3.9697,-3.9697,-3.9697,-3.9697,-3.9697,-3.9697,-3.9697,-3.9697,-3.9697,-3.9697,-3.9697,-3.9697,-3.9697,-3.9697,-3.9697,-3.9697,-3.9471,-3.9032,-3.9032,-3.927,-4.3238,-4.3208,-4.2977,-4.1942,-4.207,-4.201,-4.019,0.0,-4.0372,-3.9843,0.0,-3.9843,-4.0502,0.0,0.0,-4.2201,-4.291,-4.3529,-4.4227,-4.4945,-4.5439,-4.5514,-4.5529,-4.5768,-4.6381,-4.6384,-4.6112,-4.5349,-4.4751,-4.4107,-4.3334,-4.329,-4.329,-4.329,-4.329,-4.329,-4.329,-4.4556,-4.5214,-4.5304,-4.6576,-4.7234,-4.7309,-4.7309,-4.7309,-4.7309,-4.7309,-4.7309,-4.7309,-4.7309,-4.7309,-4.7309,-4.7309,-4.7309,-4.7309,-4.7309,-4.7309,-4.7164,-4.6018,-4.5629,-4.5403,-4.4116,-4.4054,-4.4256,-4.3307,-4.3375,-4.3648,-4.3085,-4.2924,-4.2961,-4.2898,-4.2527,-4.2099,-4.2037,-4.1178,-4.0425,-4.0425,-4.0036,-3.9697,-3.9697,-3.9697,-3.9697,-3.9697,-3.9697,-3.9697,-3.9697,-3.9697,-3.9697,-3.9697,-3.9697,-3.9697,-3.9697,-3.9697,-3.9697,-3.9697,-3.9697,-3.9697,-3.9697,-3.9697,-3.9697,-3.9697,-3.9697,-3.9697,-3.9697,-3.9697,-3.9697,-3.9697,-3.9697,-3.9659,-3.9597,-3.9597,-3.9634,-4.329,-4.329,-4.3065,-4.2216,-4.1916,-4.1512,-4.0262,-3.9903,-3.9858,-3.9963,0.0,0.0,0.0,0.0,0.0,0.0,-4.2342,-4.2865,-4.315,-4.3459,-4.4058,-4.5155,-4.5289,-4.5409,-4.5693,-4.5723,-4.5439,-4.4781,-4.4466,-4.3992,-4.3334,-4.329,-4.329,-4.329,-4.329,-4.3484,-4.3898,-4.4825,-4.5499,-4.5903,-4.686,-4.7309,-4.7309,-4.7309,-4.7309,-4.7309,-4.7309,-4.7309,-4.7309,-4.7309,-4.7309,-4.7309,-4.7309,-4.7309,-4.7309,-4.7309,-4.6829,-4.6107,-4.5584,-4.4918,-4.4266,-4.4047,-4.3612,-4.3262,-4.3596,-4.3386,-4.2984,-4.2977,-4.2974,-4.2974,-4.2974,-4.2627,-4.2213,-4.2213,-4.1555,-4.0902,-4.0588,-4.0337,-4.0074,-3.976,-3.9697,-3.9697,-3.9697,-3.9697,-3.9697,-3.9697,-3.9697,-3.9697,-3.9697,-3.9697,-3.9697,-3.9697,-3.9697,-3.9697,-3.9697,-3.9697,-3.9697,-3.9697,-3.9697,-3.9697,-3.9697,-3.9697,-3.9697,-3.9697,-3.9697,-3.9697,-3.9697,-3.9697,-3.9697,-3.9697,-3.9697,-3.9697,-4.329,-4.329,-4.3095,-4.2336,-4.1767,-4.116,-4.0322,-3.9903,-3.9828,-4.0307,-4.0172,0.0,0.0,0.0,-4.0831,-4.1309,0.0,-4.2186,-4.2366,-4.2246,-4.2725,-4.4302,-4.4811,-4.5035,-4.5035,-4.5035,-4.4825,-4.4347,-4.4152,-4.3798,-4.3319,-4.329,-4.329,-4.329,-4.329,-4.3529,-4.4007,-4.4691,-4.5274,-4.5741,-4.6636,-4.704,-4.704,-4.7219,-4.7309,-4.7309,-4.7309,-4.7309,-4.7309,-4.7309,-4.7309,-4.7309,-4.7309,-4.7309,-4.7309,-4.7309,-4.6491,-4.5403,-4.5403,-4.4648,-4.3725,-4.3778,-4.3352,-4.2941,-4.3427,-4.3025,-4.2527,-4.2861,-4.2974,-4.2974,-4.2974,-4.274,-4.2439,-4.2439,-4.1957,-4.1455,-4.1053,-4.0852,-4.0626,-4.0224,-4.0023,-3.9923,-3.9923,-3.9798,-3.9697,-3.9697,-3.9697,-3.9697,-3.9697,-3.9697,-3.9697,-3.9697,-3.9697,-3.9697,-3.9697,-3.9697,-3.9697,-3.9697,-3.9697,-3.9697,-3.9697,-3.9697,-3.9697,-3.9697,-3.9697,-3.9697,-3.9697,-3.9697,-3.9697,-3.9697,-3.9697,-3.9697,-4.329,-4.329,-4.2991,-4.1728,-4.1437,-4.104,-3.9753,-3.9933,-4.0367,-4.0397,-4.0891,-4.1324,-4.1339,-4.1392,-4.1354,-4.1422,-4.1437,0.0,0.0,-4.1856,-4.1707,-4.241,-4.3569,-4.4347,-4.4347,-4.4347,-4.4332,-4.4317,-4.3678,-4.3319,-4.329,-4.329,-4.329,-4.329,-4.329,-4.3305,-4.3319,-4.4018,-4.4362,-4.4392,-4.5681,-4.6309,-4.6324,-4.701,-4.7309,-4.7309,-4.7309,-4.7309,-4.7309,-4.7309,-4.7309,-4.7309,-4.7309,-4.7309,-4.7309,-4.7309,-4.6491,-4.5403,-4.5403,-4.4884,-4.4082,-4.2838,-4.3162,-4.3834,-4.2598,-4.2577,-4.2949,-4.2974,-4.2974,-4.2974,-4.2974,-4.2961,-4.2949,-4.2949,-4.259,-4.2187,-4.2162,-4.1693,-4.125,-4.1238,-4.0852,-4.0488,-4.0488,-4.0049,-3.9697,-3.9697,-3.9697,-3.9697,-3.9697,-3.9697,-3.9697,-3.9697,-3.9697,-3.9697,-3.9697,-3.9697,-3.9697,-3.9697,-3.9697,-3.9697,-3.9697,-3.9697,-3.9697,-3.9697,-3.9697,-3.9697,-3.9697,-3.9697,-3.9697,-3.9697,-3.9697,-3.9697,-4.329,-4.329,-4.308,-4.2252,-4.1737,-4.1145,-4.0277,-4.0247,-4.0397,-4.0397,-4.092,-4.1422,-4.1422,-4.1767,-4.2066,-4.2066,-4.2387,-4.2447,0.0,-4.1145,-4.098,-4.1677,-4.253,-4.3195,-4.3589,-4.3618,-4.3618,-4.3618,-4.3424,-4.329,-4.329,-4.329,-4.3484,-4.3932,-4.3947,-4.4182,-4.4631,-4.4855,-4.496,-4.4975,-4.5888,-4.6279,-4.6309,-4.701,-4.7309,-4.7309,-4.7309,-4.7309,-4.7309,-4.7309,-4.7309,-4.7309,-4.7309,-4.7309,-4.7309,-4.7309,-4.6491,-4.5355,-4.4955,-4.4042,-4.3122,-4.3449,-4.3256,-4.2837,-4.275,-4.2891,-4.2974,-4.2974,-4.2974,-4.2974,-4.2974,-4.2974,-4.2974,-4.2974,-4.2836,-4.2652,-4.2288,-4.2062,-4.1769,-4.1363,-4.1137,-4.094,-4.0576,-4.0362,-4.0111,-3.9747,-3.9697,-3.9697,-3.9697,-3.9697,-3.9697,-3.9697,-3.9697,-3.9697,-3.9697,-3.9697,-3.9697,-3.9697,-3.9697,-3.9697,-3.9697,-3.9697,-3.9697,-3.9697,-3.9697,-3.9697,-3.9697,-3.9697,-3.9697,-3.9697,-3.9697,-3.9697,-4.329,-4.329,-4.314,-4.256,-4.2081,-4.1587,-4.0905,-4.0935,-4.11,-4.11,-4.1624,-4.2073,-4.2073,-4.2417,-4.2626,0.0,0.0,-4.2536,0.0,-4.0876,-4.0905,-4.1324,-4.1991,-4.2626,-4.323,-4.3135,-4.309,-4.3275,-4.312,-4.309,-4.329,-4.329,-4.3604,-4.4287,-4.4317,-4.4631,-4.5289,-4.5289,-4.5289,-4.5304,-4.5992,-4.6279,-4.6309,-4.701,-4.7309,-4.7309,-4.7309,-4.7309,-4.7309,-4.7309,-4.7309,-4.7309,-4.7309,-4.7309,-4.7309,-4.7309,-4.6639,-4.5654,-4.4791,-4.4187,-4.3838,-4.4083,-4.3765,-4.3185,-4.3028,-4.2974,-4.2974,-4.2974,-4.2974,-4.2974,-4.2974,-4.2974,-4.2974,-4.2974,-4.2974,-4.2942,-4.2577,-4.2502,-4.2346,-4.1995,-4.1756,-4.1517,-4.1153,-4.094,-4.0563,-3.981,-3.9697,-3.9697,-3.9697,-3.9697,-3.9697,-3.9697,-3.9697,-3.9697,-3.9697,-3.9697,-3.9697,-3.9697,-3.9697,-3.9697,-3.9697,-3.9697,-3.9697,-3.9697,-3.9697,-3.9697,-3.9697,-3.9697,-3.9697,-3.9697,-3.9697,-3.9697]},{"header":{"parameterUnit":"m.s-1","parameterCategory":1,"la1":30.6,"la2":29.2853,"lo1":-89.7004,"lo2":-87.6739,"dy":0.0162,"dx":0.0183,"nx":112,"ny":82,"refTime":"2025-04-16T06:00:00:Z","depth":0,"parameterNumber":3,"parameterNumberName":"V-component_of_WINDS"},"data":[0.0,0.0,0.0,0.0,0.0,0.0,0.0,0.0,0.0,0.0,0.0,0.0,0.0,0.0,0.0,0.0,0.0,0.0,0.0,0.0,0.0,0.0,0.0,0.0,0.0,0.0,0.0,0.0,0.0,0.0,0.0,0.0,0.0,0.0,0.0,0.0,0.0,0.0,0.0,0.0,0.0,0.0,0.0,0.0,0.0,0.0,0.0,0.0,0.0,0.0,0.0,0.0,0.0,0.0,0.0,0.0,0.0,0.0,0.0,0.0,0.0,0.0,0.0,0.0,0.0,0.0,0.0,0.0,0.0,0.0,0.0,0.0,0.0,0.0,0.0,0.0,0.0,0.0,0.0,0.0,0.0,0.0,0.0,0.0,0.0,0.0,0.0,0.0,0.0,0.0,2.01,2.1076,2.1663,2.185,2.1574,2.0949,2.0234,1.9359,0.0,0.0,0.0,0.0,0.0,0.0,0.0,0.0,0.0,0.0,0.0,0.0,0.0,0.0,0.0,0.0,0.0,0.0,0.0,0.0,0.0,0.0,0.0,0.0,0.0,0.0,0.0,0.0,0.0,0.0,0.0,0.0,0.0,0.0,0.0,0.0,0.0,0.0,0.0,0.0,0.0,0.0,0.0,0.0,0.0,0.0,0.0,0.0,0.0,0.0,0.0,0.0,0.0,0.0,0.0,0.0,0.0,0.0,0.0,0.0,0.0,0.0,0.0,0.0,0.0,0.0,0.0,0.0,0.0,0.0,0.0,0.0,0.0,0.0,0.0,0.0,0.0,0.0,0.0,0.0,0.0,0.0,0.0,0.0,0.0,0.0,0.0,0.0,0.0,0.0,0.0,0.0,0.0,0.0,0.0,0.0,0.0,0.0,0.0,0.0,0.0,0.0,0.0,0.0,1.996,2.14,2.1784,2.177,2.1223,2.0641,1.9927,1.9045,0.0,0.0,0.0,0.0,0.0,0.0,0.0,0.0,0.0,0.0,0.0,0.0,0.0,0.0,0.0,0.0,0.0,0.0,0.0,0.0,0.0,0.0,0.0,0.0,0.0,0.0,0.0,0.0,0.0,0.0,0.0,0.0,0.0,0.0,0.0,0.0,0.0,0.0,0.0,0.0,0.0,0.0,0.0,0.0,0.0,0.0,0.0,0.0,0.0,0.0,0.0,0.0,0.0,0.0,0.0,0.0,0.0,0.0,0.0,0.0,0.0,0.0,0.0,0.0,0.0,0.0,0.0,0.0,0.0,0.0,0.0,0.0,0.0,0.0,0.0,0.0,0.0,0.0,0.0,0.0,0.0,0.0,0.0,0.0,0.0,0.0,0.0,0.0,0.0,0.0,0.0,0.0,0.0,0.0,0.0,0.0,0.0,0.0,0.0,0.0,0.0,0.0,0.0,1.9673,2.0214,2.1209,2.1577,2.1516,2.0922,2.0481,1.986,1.8978,1.8778,0.0,0.0,0.0,0.0,0.0,0.0,0.0,0.0,0.0,0.0,0.0,0.0,0.0,0.0,0.0,0.0,0.0,0.0,0.0,0.0,0.0,0.0,0.0,0.0,0.0,0.0,0.0,0.0,0.0,0.0,0.0,0.0,0.0,0.0,0.0,0.0,0.0,0.0,0.0,0.0,0.0,0.0,0.0,0.0,0.0,0.0,0.0,0.0,0.0,0.0,0.0,0.0,0.0,0.0,0.0,0.0,0.0,0.0,0.0,0.0,0.0,0.0,0.0,0.0,0.0,0.0,0.0,0.0,0.0,0.0,0.0,0.0,0.0,0.0,0.0,0.0,0.0,0.0,0.0,0.0,0.0,0.0,0.0,0.0,0.0,0.0,0.0,0.0,0.0,0.0,0.0,0.0,0.0,0.0,0.0,0.0,0.0,0.0,0.0,0.0,0.0,0.0,2.0738,2.1074,2.1609,2.1626,2.1346,2.0628,2.0301,1.976,1.8878,1.8544,0.0,0.0,0.0,0.0,0.0,0.0,0.0,0.0,0.0,0.0,0.0,0.0,0.0,0.0,0.0,0.0,0.0,0.0,0.0,0.0,0.0,0.0,0.0,0.0,0.0,0.0,0.0,0.0,0.0,0.0,0.0,0.0,0.0,0.0,0.0,0.0,0.0,0.0,0.0,0.0,0.0,0.0,0.0,0.0,0.0,0.0,0.0,0.0,0.0,0.0,0.0,0.0,0.0,0.0,0.0,0.0,0.0,0.0,0.0,0.0,0.0,0.0,0.0,0.0,0.0,0.0,0.0,0.0,0.0,0.0,0.0,0.0,0.0,0.0,0.0,0.0,0.0,0.0,0.0,0.0,0.0,0.0,0.0,0.0,0.0,0.0,0.0,0.0,0.0,0.0,0.0,0.0,0.0,0.0,0.0,0.0,0.0,0.0,0.0,0.0,0.0,0.0,2.229,2.288,2.335,2.2313,2.1203,2.0334,2.0,1.9452,1.8577,1.8243,0.0,0.0,0.0,0.0,0.0,0.0,0.0,0.0,0.0,0.0,0.0,0.0,0.0,0.0,0.0,0.0,0.0,0.0,0.0,0.0,0.0,0.0,0.0,0.0,0.0,0.0,0.0,0.0,0.0,0.0,0.0,0.0,0.0,0.0,0.0,0.0,0.0,0.0,0.0,0.0,0.0,0.0,0.0,0.0,0.0,0.0,0.0,0.0,0.0,0.0,0.0,0.0,0.0,0.0,0.0,0.0,0.0,0.0,0.0,0.0,0.0,0.0,0.0,0.0,0.0,0.0,0.0,0.0,0.0,0.0,0.0,0.0,0.0,0.0,0.0,0.0,0.0,0.0,0.0,0.0,0.0,0.0,0.0,0.0,0.0,0.0,0.0,0.0,0.0,0.0,0.0,0.0,0.0,0.0,0.0,0.0,0.0,0.0,0.0,0.0,0.0,0.0,2.3524,2.4209,2.4997,2.4385,2.3673,2.3204,2.2792,2.1839,1.9978,0.0,0.0,0.0,0.0,0.0,0.0,0.0,0.0,0.0,0.0,0.0,0.0,0.0,0.0,0.0,0.0,0.0,0.0,0.0,0.0,0.0,0.0,0.0,0.0,0.0,0.0,0.0,0.0,0.0,0.0,0.0,0.0,0.0,0.0,0.0,0.0,0.0,0.0,0.0,0.0,0.0,0.0,0.0,0.0,0.0,0.0,0.0,0.0,0.0,0.0,0.0,0.0,0.0,0.0,0.0,0.0,0.0,0.0,0.0,0.0,0.0,0.0,0.0,0.0,0.0,0.0,0.0,0.0,0.0,0.0,0.0,0.0,0.0,0.0,0.0,0.0,0.0,0.0,0.0,0.0,0.0,0.0,0.0,0.0,0.0,0.0,0.0,0.0,0.0,0.0,0.0,0.0,0.0,0.0,0.0,0.0,0.0,0.0,0.0,0.0,0.0,0.0,2.4042,2.4833,2.5581,2.6279,2.5693,2.5123,2.4713,2.4351,2.3286,2.1263,0.0,0.0,0.0,0.0,0.0,0.0,0.0,0.0,0.0,0.0,0.0,0.0,0.0,0.0,0.0,0.0,0.0,0.0,0.0,0.0,0.0,0.0,0.0,0.0,0.0,0.0,0.0,0.0,0.0,0.0,0.0,0.0,0.0,0.0,0.0,0.0,0.0,0.0,0.0,0.0,0.0,0.0,0.0,0.0,0.0,0.0,0.0,0.0,0.0,0.0,0.0,0.0,0.0,0.0,0.0,0.0,0.0,0.0,0.0,0.0,0.0,0.0,0.0,0.0,0.0,0.0,0.0,0.0,0.0,0.0,0.0,0.0,0.0,0.0,0.0,0.0,0.0,0.0,0.0,0.0,0.0,0.0,0.0,0.0,0.0,0.0,0.0,0.0,0.0,0.0,0.0,0.0,0.0,0.0,0.0,0.0,0.0,0.0,0.0,0.0,0.0,0.0,2.4966,2.6253,2.7122,2.7131,2.604,2.5075,2.4433,2.4036,2.3368,0.0,0.0,0.0,0.0,0.0,0.0,0.0,0.0,0.0,0.0,0.0,0.0,0.0,0.0,0.0,0.0,0.0,0.0,0.0,0.0,0.0,0.0,0.0,0.0,0.0,0.0,0.0,0.0,0.0,0.0,0.0,0.0,0.0,0.0,0.0,0.0,0.0,0.0,0.0,0.0,0.0,0.0,0.0,0.0,0.0,0.0,0.0,0.0,0.0,0.0,0.0,0.0,0.0,0.0,0.0,0.0,0.0,0.0,0.0,0.0,0.0,0.0,0.0,0.0,0.0,0.0,0.0,0.0,0.0,0.0,0.0,0.0,0.0,0.0,0.0,0.0,0.0,0.0,0.0,0.0,0.0,0.0,0.0,0.0,0.0,0.0,0.0,0.0,0.0,0.0,0.0,0.0,0.0,0.0,0.0,0.0,0.0,0.0,0.0,0.0,0.0,0.0,0.0,2.6286,2.7571,2.8479,2.884,2.8249,2.7753,2.7576,2.7176,2.6039,2.3778,0.0,0.0,0.0,0.0,0.0,0.0,0.0,0.0,0.0,0.0,0.0,0.0,0.0,0.0,0.0,0.0,0.0,0.0,0.0,0.0,0.0,0.0,0.0,0.0,0.0,0.0,0.0,0.0,0.0,0.0,0.0,0.0,0.0,0.0,0.0,0.0,0.0,0.0,0.0,0.0,0.0,0.0,0.0,0.0,0.0,0.0,0.0,0.0,0.0,0.0,0.0,0.0,0.0,0.0,0.0,0.0,0.0,0.0,0.0,0.0,0.0,0.0,0.0,0.0,0.0,0.0,0.0,0.0,0.0,0.0,0.0,0.0,0.0,0.0,0.0,0.0,0.0,0.0,0.0,0.0,0.0,0.0,0.0,0.0,0.0,0.0,0.0,0.0,0.0,0.0,0.0,0.0,0.0,0.0,0.0,0.0,0.0,0.0,0.0,0.0,0.0,0.0,2.6377,2.792,2.8955,2.9053,2.8975,2.8848,2.8682,2.8437,2.7342,2.5008,0.0,0.0,0.0,0.0,0.0,0.0,0.0,0.0,0.0,0.0,0.0,0.0,0.0,0.0,0.0,0.0,0.0,0.0,0.0,0.0,0.0,0.0,0.0,0.0,0.0,0.0,0.0,0.0,0.0,0.0,0.0,0.0,0.0,0.0,0.0,0.0,0.0,0.0,0.0,0.0,0.0,0.0,0.0,0.0,0.0,0.0,0.0,0.0,0.0,0.0,0.0,0.0,0.0,0.0,0.0,0.0,0.0,0.0,0.0,0.0,0.0,0.0,0.0,0.0,0.0,0.0,0.0,0.0,0.0,0.0,0.0,0.0,0.0,0.0,0.0,0.0,0.0,0.0,0.0,0.0,0.0,0.0,0.0,0.0,0.0,0.0,0.0,0.0,0.0,0.0,0.0,0.0,0.0,0.0,0.0,0.0,0.0,0.0,0.0,0.0,0.0,0.0,2.5635,2.7568,2.8711,2.833,2.8633,2.8711,2.833,2.8291,2.7578,2.5849,0.0,0.0,0.0,0.0,0.0,0.0,0.0,0.0,0.0,0.0,0.0,0.0,0.0,0.0,0.0,0.0,0.0,0.0,0.0,0.0,0.0,0.0,0.0,0.0,0.0,0.0,0.0,0.0,0.0,0.0,0.0,0.0,0.0,0.0,0.0,0.0,0.0,0.0,0.0,0.0,0.0,0.0,0.0,0.0,0.0,0.0,0.0,0.0,0.0,0.0,0.0,0.0,0.0,0.0,0.0,0.0,0.0,0.0,0.0,0.0,2.9606,2.8291,0.0,0.0,0.0,0.0,0.0,0.0,0.0,0.0,0.0,0.0,0.0,0.0,0.0,0.0,0.0,0.0,0.0,0.0,0.0,0.0,0.0,0.0,0.0,0.0,0.0,0.0,0.0,0.0,0.0,0.0,0.0,0.0,0.0,0.0,0.0,0.0,0.0,0.0,0.0,0.0,2.5635,2.7314,2.8389,2.8301,2.8369,2.8389,2.8301,2.8291,2.7705,2.6338,2.584,0.0,0.0,0.0,0.0,0.0,0.0,0.0,0.0,0.0,0.0,0.0,0.0,0.0,0.0,0.0,0.0,0.0,0.0,0.0,0.0,0.0,0.0,0.0,0.0,0.0,0.0,0.0,0.0,0.0,0.0,0.0,0.0,0.0,0.0,0.0,0.0,0.0,0.0,0.0,0.0,0.0,0.0,0.0,0.0,0.0,0.0,0.0,0.0,0.0,0.0,0.0,0.0,0.0,0.0,0.0,0.0,0.0,0.0,0.0,3.2094,3.1021,0.0,0.0,0.0,0.0,0.0,0.0,0.0,0.0,0.0,0.0,0.0,0.0,0.0,0.0,0.0,0.0,0.0,0.0,0.0,0.0,0.0,0.0,0.0,0.0,0.0,0.0,0.0,0.0,0.0,0.0,0.0,0.0,0.0,0.0,0.0,0.0,0.0,0.0,0.0,0.0,2.5967,2.7363,2.8291,2.8291,2.8291,2.8291,2.8291,2.8291,2.7832,2.6758,2.6094,0.0,0.0,0.0,0.0,0.0,0.0,0.0,0.0,0.0,0.0,0.0,0.0,0.0,0.0,0.0,0.0,0.0,0.0,0.0,0.0,0.0,0.0,0.0,0.0,0.0,0.0,0.0,0.0,0.0,0.0,0.0,0.0,0.0,0.0,0.0,0.0,0.0,0.0,0.0,0.0,0.0,0.0,0.0,0.0,0.0,0.0,0.0,0.0,0.0,0.0,0.0,0.0,0.0,3.5791,3.6164,3.6567,3.6567,3.6567,3.6521,3.5679,3.4891,3.4159,3.2477,0.0,0.0,0.0,0.0,0.0,0.0,0.0,0.0,0.0,0.0,0.0,0.0,0.0,0.0,0.0,0.0,0.0,0.0,0.0,0.0,0.0,0.0,3.242,3.2043,3.1951,3.1769,3.1113,0.0,0.0,0.0,0.0,0.0,0.0,0.0,0.0,0.0,0.0,0.0,2.6951,2.8194,2.9006,2.9006,2.9006,2.9006,2.9006,2.9006,2.8665,2.7863,2.6981,2.5929,0.0,0.0,0.0,0.0,0.0,0.0,0.0,0.0,0.0,0.0,0.0,0.0,0.0,0.0,0.0,0.0,0.0,0.0,0.0,0.0,0.0,0.0,0.0,0.0,0.0,0.0,0.0,0.0,0.0,0.0,0.0,0.0,3.3329,3.5313,0.0,0.0,0.0,0.0,0.0,0.0,0.0,0.0,0.0,0.0,0.0,0.0,0.0,3.5173,3.5391,3.7056,3.7922,3.8005,3.9646,4.048,4.0554,4.0554,4.0554,4.0542,4.0393,0.0,3.5346,3.458,0.0,0.0,0.0,0.0,0.0,0.0,0.0,0.0,0.0,0.0,0.0,0.0,0.0,0.0,0.0,0.0,0.0,0.0,0.0,0.0,0.0,0.0,3.5782,3.5707,3.5695,3.5658,3.5556,3.2507,2.9727,2.941,2.8925,2.8143,0.0,0.0,0.0,0.0,0.0,0.0,2.9569,3.0883,3.1774,3.1774,3.1774,3.1774,3.1774,3.1774,3.1543,3.1114,3.0164,2.9194,2.8266,2.679,0.0,0.0,0.0,0.0,0.0,0.0,0.0,0.0,0.0,0.0,0.0,0.0,0.0,0.0,0.0,0.0,0.0,0.0,0.0,0.0,0.0,0.0,0.0,0.0,0.0,0.0,0.0,0.0,0.0,3.3891,3.524,3.7062,3.6477,3.6024,0.0,0.0,0.0,0.0,0.0,0.0,0.0,0.0,0.0,3.7325,3.7828,3.8638,3.9725,4.0306,4.0727,4.1022,4.1534,4.212,4.2723,4.2723,4.2723,4.2723,4.2723,4.1558,3.9585,3.7687,3.6547,3.5928,0.0,0.0,0.0,0.0,3.3714,3.4423,3.4713,3.5211,3.5701,3.5267,0.0,0.0,0.0,0.0,0.0,0.0,0.0,3.4787,3.5129,3.5827,3.6405,3.6405,3.6405,3.6405,3.6405,3.4856,3.3142,3.1888,3.1433,3.05,2.8088,2.7711,0.0,0.0,0.0,2.9826,3.0897,3.1771,3.228,3.228,3.228,3.228,3.228,3.228,3.2241,3.204,3.1405,3.0611,2.9657,2.8496,2.7088,0.0,0.0,0.0,0.0,0.0,0.0,0.0,0.0,0.0,0.0,0.0,0.0,0.0,0.0,0.0,0.0,0.0,0.0,0.0,0.0,0.0,0.0,0.0,0.0,0.0,0.0,0.0,0.0,3.5806,3.7318,3.882,3.8976,3.8738,0.0,0.0,0.0,0.0,0.0,0.0,3.7987,3.8239,3.9001,4.0381,4.0971,4.1968,4.3388,4.2986,4.2924,4.3187,4.2828,4.2999,4.3802,4.3802,4.3802,4.3802,4.3802,4.3489,4.2818,4.041,3.914,3.8447,3.6903,3.5951,3.5434,3.5294,3.5892,3.6771,3.7025,3.7771,3.8542,3.7839,3.7425,3.6923,3.5554,0.0,0.0,0.0,0.0,3.5843,3.6304,3.6405,3.6405,3.6405,3.6405,3.6405,3.6405,3.6405,3.5906,3.4257,3.3803,3.2829,2.9994,2.9746,0.0,2.984,3.0582,3.1453,3.2547,3.3079,3.3342,3.3342,3.3342,3.3342,3.3342,3.3342,3.3342,3.3342,3.2917,3.2294,3.1402,3.0461,2.9167,2.75,0.0,0.0,0.0,0.0,0.0,0.0,0.0,0.0,0.0,0.0,0.0,0.0,0.0,0.0,0.0,0.0,0.0,0.0,0.0,0.0,0.0,0.0,0.0,0.0,0.0,0.0,0.0,0.0,0.0,4.1035,4.0842,0.0,0.0,0.0,0.0,4.0439,4.0554,4.1196,4.2613,4.3169,4.3469,4.3551,4.4089,4.439,4.4543,4.4518,4.4254,4.3765,4.3727,4.374,4.3802,4.3802,4.3802,4.3802,4.3802,4.3489,4.2936,4.2266,4.1635,4.103,4.048,3.9877,3.9379,3.8854,3.8717,3.8693,3.8129,3.8003,3.8128,3.868,3.8065,3.7073,3.6505,3.5918,0.0,0.0,3.5918,3.6367,3.6405,3.6405,3.6405,3.6405,3.6405,3.6405,3.6405,3.6405,3.6392,3.6282,3.5762,3.4978,3.3659,0.0,3.2697,3.2697,3.3161,3.3969,3.5146,3.5818,3.6203,3.6203,3.6203,3.6203,3.6203,3.6203,3.6203,3.6203,3.5644,3.5048,3.452,3.3433,3.1901,2.9786,2.8693,0.0,0.0,0.0,0.0,0.0,0.0,0.0,0.0,0.0,0.0,0.0,0.0,0.0,0.0,0.0,0.0,0.0,0.0,0.0,0.0,0.0,0.0,0.0,0.0,0.0,0.0,0.0,0.0,4.3833,4.4524,0.0,4.4134,4.3472,4.3086,4.3222,4.3255,4.3486,4.3984,4.4581,4.4882,4.4882,4.5422,4.5711,4.5711,4.4982,4.4518,4.4317,4.3614,4.3639,4.433,4.433,4.433,4.433,4.433,4.3815,4.2961,4.276,4.2359,4.1844,4.1656,4.1241,4.0689,4.0136,3.9936,3.9848,3.9283,3.9094,3.9069,3.8919,3.8341,3.7676,3.7475,3.7036,3.6596,3.6596,3.6483,3.6405,3.6405,3.6405,3.6405,3.6405,3.6405,3.6405,3.6405,3.6405,3.6405,3.6405,3.6207,3.5703,3.4552,3.4472,3.4459,3.4102,3.4509,3.513,3.5972,3.6292,3.6405,3.6405,3.6405,3.6405,3.6405,3.6405,3.6207,3.5868,3.5608,3.5094,3.4223,3.3822,3.2896,3.1413,3.0671,2.9386,0.0,0.0,0.0,0.0,0.0,0.0,0.0,0.0,0.0,0.0,0.0,0.0,0.0,0.0,0.0,0.0,0.0,0.0,0.0,0.0,0.0,0.0,0.0,0.0,0.0,4.2638,4.456,4.5642,4.6903,4.7255,4.615,4.62,4.6137,4.5761,4.5573,4.5472,4.5472,4.566,4.5761,4.5761,4.6125,4.6313,4.6313,4.5384,4.4819,4.4618,4.3689,4.3639,4.4342,4.4342,4.4342,4.4342,4.4342,4.3827,4.2974,4.2974,4.276,4.2489,4.2489,4.2208,4.1806,4.1065,4.0802,4.0689,3.9948,3.9697,3.9634,3.927,3.8768,3.8304,3.8304,3.7776,3.7186,3.7186,3.6784,3.6405,3.6405,3.6405,3.6405,3.6405,3.6405,3.6405,3.6405,3.6405,3.6405,3.6405,3.6405,3.6179,3.5403,3.5579,3.5692,3.5328,3.5592,3.5956,3.6367,3.6405,3.6405,3.6405,3.6405,3.6405,3.6405,3.6194,3.5931,3.552,3.532,3.4731,3.3671,3.3621,3.3093,3.1951,3.1223,3.0306,2.9176,0.0,0.0,0.0,0.0,0.0,0.0,0.0,0.0,0.0,0.0,0.0,0.0,0.0,0.0,0.0,0.0,0.0,0.0,0.0,0.0,0.0,0.0,0.0,4.1858,4.4358,4.6351,4.6389,4.782,4.8385,4.7318,4.7644,4.7933,4.7933,4.7431,4.7068,4.7068,4.6602,4.6313,4.6313,4.6313,4.6301,4.6288,4.5736,4.5171,4.4593,4.4041,4.3777,4.3802,4.3802,4.3802,4.3802,4.3802,4.3489,4.2974,4.2974,4.2974,4.2974,4.2974,4.2974,4.2823,4.1731,4.1263,4.1075,4.0061,3.9697,3.9697,3.9697,3.9333,3.8944,3.8932,3.809,3.7211,3.7186,3.6784,3.6405,3.6405,3.6405,3.6405,3.6405,3.6405,3.6405,3.6405,3.6405,3.6405,3.6405,3.6405,3.6405,3.6405,3.6405,3.6405,3.6405,3.6405,0.0,3.6405,3.6405,3.6405,3.6405,3.6405,3.6405,3.6405,3.5868,3.5483,3.5445,3.4931,3.4186,3.3136,3.3056,3.2528,3.1436,3.0369,2.9817,2.9817,0.0,0.0,0.0,0.0,0.0,0.0,0.0,0.0,0.0,0.0,0.0,0.0,0.0,0.0,0.0,0.0,0.0,0.0,0.0,0.0,0.0,4.3815,4.4728,4.4442,4.586,4.7205,4.7996,4.8849,4.9251,4.895,4.8686,4.8535,4.8535,4.7669,4.7068,4.7068,4.6602,4.6313,4.6313,4.6313,4.6125,4.5711,4.5146,4.4581,4.4016,4.3476,4.3413,4.3802,4.3802,4.3802,4.3802,4.3802,4.3489,4.2974,4.2974,4.2974,4.2974,4.2974,4.2791,4.2351,4.1593,4.0827,4.0111,3.9798,3.9697,3.9697,3.9697,3.9597,3.9396,3.9045,3.8366,3.7701,3.7299,3.6784,3.6405,3.6405,3.6405,3.6405,3.6405,3.6405,3.6405,3.6405,3.6405,3.6405,3.6405,3.6405,3.6405,3.6405,3.6405,3.6405,3.6405,3.6405,3.6405,3.6405,3.6405,3.6405,3.6405,3.6405,3.6405,3.6405,3.5868,3.5157,3.4399,3.3834,3.3206,3.2478,3.2453,3.2303,3.1989,3.0934,3.0394,0.0,0.0,0.0,0.0,0.0,0.0,0.0,0.0,0.0,0.0,0.0,0.0,0.0,0.0,0.0,0.0,0.0,0.0,0.0,0.0,0.0,0.0,4.5045,4.6075,4.6765,4.7418,4.8134,4.9012,4.9402,4.959,4.959,4.9301,4.9012,4.8786,4.7958,4.7368,4.7081,4.6602,4.6313,4.6313,4.6087,4.5811,4.5485,4.4681,4.4116,4.379,4.3237,4.3137,4.3451,4.3451,4.3451,4.3451,4.3451,4.3275,4.2974,4.2974,4.2974,4.2974,0.0,0.0,0.0,0.0,4.0438,3.9697,3.9697,3.9697,3.9697,3.9697,3.9697,3.9584,3.9032,3.8467,3.7889,3.7337,3.6784,3.6405,3.6405,3.6405,3.6405,3.6405,3.6405,3.6405,3.6405,3.6405,3.6405,3.6405,3.6405,0.0,3.6405,3.6405,3.6405,3.6405,3.6405,3.6405,3.6405,3.6405,3.6405,3.6405,3.6405,3.6405,3.6405,3.5642,0.0,0.0,0.0,3.2817,3.224,3.1989,0.0,0.0,0.0,0.0,0.0,0.0,0.0,0.0,3.1009,3.0922,0.0,0.0,0.0,0.0,0.0,0.0,0.0,0.0,0.0,0.0,0.0,0.0,0.0,0.0,0.0,0.0,4.6188,4.7117,4.8648,4.8862,4.905,4.954,4.959,4.959,4.959,4.959,4.9364,4.8812,4.8234,4.7682,4.7106,4.6602,0.0,0.0,0.0,4.546,4.5397,4.433,4.3765,4.3702,4.3212,4.2974,4.2974,4.2974,4.2974,4.2974,4.2974,4.2974,4.2974,4.2974,4.2936,4.2873,4.2811,4.2459,4.1898,4.0802,4.0111,3.9697,3.9697,0.0,0.0,3.9697,3.9647,3.9496,3.8944,3.8366,3.7801,3.7249,3.6782,3.6405,3.6405,3.6405,3.6405,3.6405,3.6405,3.6405,3.6405,3.6405,3.6405,3.6405,3.6405,3.6405,3.6405,3.6405,3.6405,3.6405,3.6405,3.6405,3.6405,3.6405,3.6405,3.6405,3.6405,0.0,3.6405,3.5353,3.4655,3.4625,3.3596,3.2754,3.2227,3.18,3.1549,3.1486,3.1486,3.1725,3.2215,3.2277,3.2604,3.3119,3.116,3.1035,0.0,0.0,0.0,0.0,0.0,0.0,0.0,0.0,0.0,0.0,0.0,0.0,0.0,0.0,0.0,4.6615,4.7644,4.856,4.9326,4.9439,4.9477,4.9577,4.959,4.959,4.959,4.959,4.9364,4.8812,4.8234,4.7682,4.7106,4.6602,4.6313,4.6313,4.5773,4.5259,4.4794,4.4129,4.3576,4.3137,4.3024,0.0,4.2974,4.2974,4.2974,4.2974,4.2974,4.2974,4.2974,4.2974,4.2778,4.2326,4.1831,4.1317,4.0752,4.0099,3.9785,3.9697,3.9697,3.9697,3.9697,3.9697,3.9396,3.8919,3.8354,3.7789,0.0,3.6719,3.6493,3.6405,3.6405,3.6405,3.6405,3.6405,3.6405,3.6405,3.6405,3.6405,3.6405,3.6405,3.6405,3.6405,3.6405,3.6405,3.6405,3.6405,3.6405,3.6405,3.6405,3.6405,3.6405,3.6405,3.6405,3.6405,3.6405,3.5353,3.4537,3.4085,3.3006,3.2328,3.2215,3.2554,3.2528,3.2064,3.2051,3.2102,3.2215,3.2679,3.3194,3.3721,3.3307,3.3269,0.0,0.0,0.0,0.0,0.0,0.0,0.0,0.0,0.0,0.0,0.0,4.3815,4.5208,0.0,4.6677,4.777,4.841,4.8962,4.9515,4.959,4.959,4.959,4.959,4.959,4.959,4.9351,4.895,4.8385,4.7832,4.7292,4.6753,4.6464,4.6313,4.6313,4.5497,4.492,4.4618,4.3802,4.325,4.2974,4.2974,4.2974,4.2974,4.2974,4.2974,4.2974,4.2974,4.2974,4.2949,4.274,4.2082,4.1304,4.104,4.0764,4.045,3.9898,3.9697,3.9697,3.9697,3.9697,3.9647,3.9371,3.9094,3.8756,3.7852,3.74,3.7073,3.6568,3.6405,3.6405,3.6405,3.6405,3.6405,3.6405,3.6405,3.6405,3.6405,3.6405,3.6405,3.6405,3.6405,3.6405,3.6405,3.6405,3.6405,3.6405,3.6405,3.6405,3.6405,3.6405,3.6405,3.6405,3.6405,3.6304,3.5981,3.4939,3.4073,3.352,3.2955,3.2641,3.2641,3.2918,3.2943,3.2654,3.2641,3.2641,3.2641,3.3206,3.3771,3.4324,3.46,3.468,0.0,0.0,0.0,0.0,0.0,0.0,0.0,4.2321,4.2949,4.4066,4.4731,4.5585,4.7154,4.7456,4.7782,4.8774,4.8937,4.9088,4.9527,4.959,4.959,4.959,4.959,4.959,4.959,4.9088,4.8535,4.7958,4.7431,4.6891,4.6338,4.6313,4.6263,4.615,4.5158,4.4568,4.4468,4.3476,4.2974,4.2974,4.2974,4.2974,4.2974,4.2974,4.2974,4.2974,4.2861,4.276,4.2622,4.207,4.1465,4.0843,4.0492,4.0507,4.064,3.9951,3.9697,3.9697,3.9697,3.9622,3.9459,3.9019,3.8768,3.8429,3.7462,3.7111,3.6923,3.6531,3.6405,3.6405,3.6405,3.6405,3.6405,3.6405,3.6405,3.6405,3.6405,3.6405,3.6405,3.6405,3.6405,3.6405,3.6405,3.6405,3.6405,3.6405,3.6405,3.6405,3.6405,3.6405,3.6405,3.6405,3.6405,3.6094,3.5395,3.4474,3.3658,3.3106,3.3124,3.3124,3.3124,3.3124,3.3124,3.3124,3.3124,3.3124,3.3124,3.3734,3.4286,3.4738,3.5357,3.5658,4.1533,4.1756,4.1656,4.2559,4.2421,4.2446,0.0,4.4305,4.4669,4.5799,4.6476,4.7205,4.8372,4.8586,4.8786,4.9402,4.9502,4.9527,4.959,4.959,4.959,4.959,4.959,4.959,4.959,4.9088,4.8535,4.7958,4.7431,4.6891,4.6338,4.6313,4.6087,4.5598,4.4957,4.438,4.3903,4.3288,4.2974,4.2974,4.2974,4.2974,4.2974,4.2974,4.2974,4.2949,4.2514,4.1969,4.1426,4.0927,4.1258,4.203,4.0414,4.0504,4.1348,4.0147,3.9697,3.9697,3.9697,3.9371,3.9007,3.8944,3.824,3.7349,3.7224,3.6883,3.6493,3.643,3.6405,3.6405,3.6405,3.6405,3.6405,3.6405,3.6405,3.6405,3.6405,3.6405,3.6405,3.6405,3.6405,3.6405,3.6405,3.6405,3.6405,3.6405,3.6405,3.6405,3.6405,3.6405,3.6405,3.6405,3.6405,3.5943,3.4901,3.4248,3.3658,3.3106,3.3124,3.3124,3.3124,3.3124,3.3124,3.3124,3.3124,3.3124,3.3124,3.4123,3.4618,3.4751,3.5793,3.6317,4.2579,4.2949,4.2886,4.3338,4.3777,4.4279,4.497,4.5623,4.6301,4.7079,4.7694,4.8322,4.91,4.9251,4.9326,4.9552,4.959,4.959,4.959,4.959,4.9477,4.9151,4.9113,4.9238,4.9565,4.8786,4.8171,4.792,4.7129,4.6552,4.6326,4.6313,4.605,4.551,4.492,4.4355,4.3815,4.3263,4.2974,4.2974,4.2974,4.2974,4.2974,4.2703,4.2321,4.2062,4.258,4.246,4.197,4.2517,4.2837,4.2944,4.2226,4.2217,4.2461,4.0465,3.9697,3.9697,3.9697,3.9333,3.8818,3.8479,3.7826,3.7123,3.6857,3.6593,3.6405,3.6405,3.6405,3.6405,3.6405,3.6405,3.6405,3.6405,3.6405,3.6405,3.6405,3.6405,3.6405,3.6405,3.6405,3.6405,3.6405,3.6405,3.6405,3.6405,3.6405,3.6405,3.6405,3.6405,3.6405,3.6405,3.5793,3.5228,3.4718,3.3922,3.3319,3.3093,3.3124,3.3124,3.3124,3.3124,3.3124,3.3124,3.3124,3.3124,3.3124,3.4186,3.468,3.4751,3.5855,3.6405,4.3435,4.3915,4.4104,4.4418,4.5221,4.5987,4.6125,4.6891,4.7694,4.8071,4.8598,4.9113,4.9527,4.959,4.959,4.959,4.959,4.959,4.959,4.9464,4.9213,4.8824,4.8636,4.8686,4.9088,4.8259,4.7694,4.7694,4.6841,4.6313,4.6313,4.6163,4.5836,4.5271,4.4694,4.4129,4.3576,4.3175,4.2974,4.2974,4.2879,4.2803,4.2791,4.2595,4.2185,4.165,4.2941,4.3195,4.2747,4.3717,4.4034,4.3975,4.3646,4.3693,4.374,4.1555,4.0743,4.068,4.0185,3.9612,3.9003,3.81,3.7412,3.6933,3.6531,3.6405,3.6405,3.6405,3.6405,3.6405,3.6405,3.6405,3.6405,3.6405,3.6405,3.6405,3.6405,3.6405,3.6405,3.6405,3.6405,3.6405,3.6405,3.6405,3.6405,3.6405,3.6405,3.6405,3.6405,3.6405,3.6355,3.6157,3.529,3.4618,3.4512,3.3621,3.3124,3.3124,3.3124,3.3124,3.3124,3.3124,3.3124,3.3124,3.3124,3.3124,3.3124,3.4186,3.468,3.4751,3.5855,3.6405,4.3802,4.4192,4.4857,4.5962,4.6665,4.7217,4.7719,4.8297,4.8724,4.8749,4.9188,4.9577,4.959,4.959,4.959,4.959,4.959,4.959,4.959,4.9138,4.8786,4.8774,4.8272,4.7945,4.7958,4.7468,4.7093,4.7093,4.6627,4.6313,4.6313,4.5799,4.5246,4.4669,4.4116,4.3564,4.3011,4.2986,4.2974,4.2974,4.2489,4.2238,4.2267,4.2864,4.2888,4.2438,4.3696,4.3939,4.3484,4.3531,4.4224,4.5207,4.3975,4.4256,4.5161,4.3882,4.3361,4.3136,4.1381,4.0364,3.958,3.7797,3.6835,3.643,3.6417,3.6405,3.6405,3.6405,3.6405,3.6405,3.6405,3.6405,3.6405,3.6405,3.6405,3.6405,3.6405,3.6405,3.6405,3.6405,3.6405,3.6405,3.6405,3.6405,3.6405,3.6405,3.6405,3.6405,3.6405,3.6405,3.6157,3.5583,3.5019,3.4512,3.3972,3.3407,3.3124,3.3124,3.3124,3.3124,3.3124,3.3124,3.3124,3.3124,3.3124,3.3124,3.3124,3.4186,3.468,3.4751,3.5855,3.6405,4.3802,4.4744,4.5836,4.6213,4.7267,4.8272,4.8447,4.8912,4.9314,4.9314,4.9176,4.905,4.905,4.905,4.905,4.905,4.9351,4.959,4.959,4.9439,4.9038,4.8284,4.8021,4.7631,4.6916,4.7029,4.7068,4.7068,4.6627,4.615,4.5786,4.5585,4.5058,4.4104,4.3903,4.3539,4.2986,4.2974,4.2798,4.2476,4.2736,4.267,4.2346,4.3426,4.3655,4.3182,4.4471,4.4933,4.4826,4.5689,4.6255,4.6638,4.6211,4.6299,4.6535,4.5683,4.5346,4.5022,4.2721,4.1284,4.0218,3.8765,3.7961,3.7368,3.6628,3.6405,3.6405,3.6405,3.6405,3.6405,3.6405,3.6405,3.6405,3.6405,3.6405,3.6405,3.6405,3.6405,3.6405,3.6405,3.6405,3.6405,3.6405,3.6405,3.6405,3.6405,3.6405,3.6405,3.6405,3.6044,3.5708,3.552,3.468,3.411,3.3922,3.3395,3.3124,3.3124,3.3124,3.3124,3.3124,3.3124,3.3124,3.3124,3.3124,3.3124,3.3124,3.4186,3.468,3.4751,3.5855,3.6405,4.4344,4.5635,4.6702,4.7092,4.8134,4.9063,4.9063,4.9339,4.954,4.9339,4.9012,4.8711,4.8498,4.846,4.8535,4.8736,4.9063,4.9377,4.9565,4.9251,4.8724,4.7996,4.7569,4.7067,4.6376,4.6451,4.6552,4.6552,4.6225,4.5773,4.5208,4.4995,4.4556,4.3827,4.3614,4.3338,4.2974,4.2841,4.2363,4.1622,4.2502,4.2611,4.2145,4.3877,4.448,4.4256,4.5539,4.6062,4.6166,4.6975,4.7309,4.7279,4.7055,4.695,4.6875,4.6202,4.5813,4.528,4.3263,4.1733,4.058,3.9582,3.847,3.7415,3.7103,3.6709,3.6405,3.6405,3.6405,3.6405,3.6405,3.6405,3.6405,3.6405,3.6405,3.6405,3.6405,3.6405,3.6405,3.6405,3.6405,3.6405,3.6405,3.6405,3.6405,3.6405,3.6194,3.6069,3.6069,3.5768,3.5345,3.4956,3.4324,3.3822,3.3621,3.3282,3.3124,3.3124,3.3124,3.3124,3.3124,3.3124,3.3124,3.3124,3.3124,3.3124,3.3124,3.4186,3.468,3.4751,3.5855,3.6405,4.5368,4.6715,4.7431,4.8473,4.9163,4.959,4.9565,4.9552,4.9402,4.8849,4.8686,4.8485,4.792,4.782,4.8008,4.8598,4.8736,4.8962,4.9515,4.8673,4.797,4.792,4.7004,4.6376,4.6326,4.5836,4.551,4.5447,4.5447,4.5196,4.4606,4.4091,4.379,4.3765,4.325,4.2961,4.2936,4.2414,4.1555,4.0513,4.1749,4.2132,4.1789,4.4256,4.5448,4.5539,4.6785,4.7279,4.7249,4.7249,4.7234,4.713,4.6516,4.6277,4.6187,4.5499,4.4855,4.4124,4.3029,4.1866,4.075,4.0122,3.8347,3.6675,3.7723,3.7289,3.6405,3.6405,3.6405,3.6405,3.6405,3.6405,3.6405,3.6405,3.6405,3.6405,3.6405,3.6405,3.6405,3.6405,3.6405,3.6405,3.6405,3.6405,3.6405,3.6405,3.5918,3.552,3.5495,3.5445,3.5019,3.401,3.3872,3.3646,3.3162,3.3124,3.3124,3.3124,3.3124,3.3124,3.3124,3.3124,3.3124,3.3124,3.3124,3.3093,3.3162,3.4198,3.4693,3.4788,3.5855,3.6405,4.4908,4.669,4.7782,4.8058,4.8862,4.949,4.9075,4.8975,4.8812,4.8247,4.7493,4.6891,4.6753,4.6715,4.6903,4.7456,4.8234,4.8962,4.9515,4.9351,4.8849,4.8008,4.7669,4.7192,4.6389,4.6188,4.5748,4.4907,4.4844,4.4606,4.4041,4.3878,4.3614,4.32,4.3049,4.2841,4.2426,4.1417,4.0789,4.0513,4.1398,4.2217,4.3074,4.4688,4.5928,4.6829,4.7164,4.7025,4.6576,4.6576,4.6277,4.5783,4.5618,4.5559,4.5469,4.4811,4.4466,4.4201,4.3411,4.2344,4.1241,4.0244,3.8885,3.754,3.7023,3.6628,3.6405,3.6405,3.6405,3.6405,3.6405,3.6405,3.6405,3.6405,3.6405,3.6405,3.6405,3.6405,3.6405,3.6405,3.6405,3.6405,3.6405,3.6405,3.6405,3.6405,3.6292,3.6006,3.5558,3.4781,3.4211,3.3935,3.3533,3.3232,3.3124,3.3124,3.3124,3.3124,3.3124,3.3124,3.3124,3.3124,3.3124,3.3124,3.3124,3.3282,3.3696,3.4387,3.4893,3.5307,3.6044,3.6405,4.4378,4.6452,4.797,4.8222,4.8761,4.9088,4.8523,4.8222,4.782,4.7016,4.6363,4.5874,4.5623,4.5773,4.6125,4.6677,4.7682,4.8586,4.9151,4.9238,4.8899,4.8008,4.7707,4.7242,4.6389,4.5861,4.5309,4.4669,4.4618,4.4279,4.3476,4.3438,4.33,4.2986,4.2974,4.2597,4.1806,4.094,4.0388,4.0149,4.1138,4.1985,4.2738,4.4549,4.5494,4.5674,4.6474,4.6336,4.5505,4.5766,4.5648,4.5274,4.4975,4.487,4.4781,4.4122,4.3843,4.3798,4.3424,4.2548,4.1504,4.0873,3.9478,3.7984,3.7322,3.6803,3.6405,3.6405,3.6405,3.6405,3.6405,3.6405,3.6405,3.6405,3.6405,3.6405,3.6405,3.6405,3.6405,3.6405,3.6803,3.6977,3.6499,3.6803,3.6977,3.6499,3.6157,3.5893,3.5533,3.5429,3.5021,3.3991,3.4104,3.3884,3.3179,3.3124,3.3124,3.3124,3.3124,3.3124,3.3124,3.3556,3.3797,3.3797,3.3797,3.408,3.4589,3.466,3.4956,3.5508,3.6107,3.6405,4.3864,4.6211,4.8033,4.8535,4.8711,4.8586,4.7857,4.7343,4.6715,4.5598,4.5309,4.5108,4.4606,4.492,4.5472,4.61,4.7041,4.792,4.856,4.8661,4.8447,4.787,4.7405,4.6916,4.6363,4.5359,4.4706,4.4631,4.4556,4.4066,4.3037,4.2974,4.2974,4.2974,4.2836,4.2308,4.13,4.0727,4.0174,3.9697,4.0844,4.1455,4.1654,4.3882,4.4503,4.384,4.5391,4.549,4.4559,4.4991,4.511,4.4975,4.4407,4.4182,4.4122,4.3499,4.329,4.329,4.329,4.2644,4.1809,4.1629,4.0118,3.8334,3.8334,3.7632,3.6849,3.6849,3.6849,3.6849,3.6849,3.6849,3.6849,3.6849,3.6849,3.6849,3.6849,3.6849,3.6849,3.6849,3.7678,3.803,3.7023,3.7678,3.7984,3.7023,3.6442,3.609,3.609,3.6714,3.6454,3.4438,3.5243,3.5373,3.3896,3.3773,3.37,3.3584,3.3541,3.3472,3.3237,3.4111,3.4588,3.4588,3.4588,3.4903,3.5516,3.501,3.5069,3.5621,3.6144,3.6405,4.3864,4.6211,4.7933,4.8033,4.8422,4.8385,4.6916,4.6527,4.6137,4.5008,4.4405,4.4066,4.3966,4.4028,4.443,4.546,4.6163,4.6928,4.792,4.8058,4.7857,4.733,4.7192,4.6916,4.6363,4.5723,4.5146,4.4656,4.4204,4.3664,4.3011,4.2974,4.2974,4.2974,4.2095,4.1476,4.1288,4.0337,3.9785,3.9697,3.9929,4.0605,4.1604,4.207,4.3313,4.5087,4.483,4.4893,4.5102,4.4669,4.4167,4.3618,4.3514,4.3469,4.3454,4.3334,4.329,4.329,4.329,4.3155,4.286,4.1891,4.0703,3.9579,3.9579,3.9461,3.9285,3.9285,3.9285,3.9285,3.9285,3.9285,3.9285,3.9285,3.9285,3.9285,3.9285,3.9285,3.9285,3.9285,3.9461,3.9549,3.9329,3.9461,3.9492,3.9329,3.919,3.9122,3.9122,3.7658,3.6501,3.61,3.7061,3.7634,3.7331,3.7331,3.6912,3.5973,3.593,3.5258,3.3815,3.3921,3.404,3.404,3.404,3.4546,3.5514,3.5399,3.568,3.6267,3.6367,3.6405,4.2897,4.5749,4.836,4.836,4.8335,4.797,4.6615,4.5849,4.5121,4.4003,4.3551,4.3376,4.3376,4.3601,4.3978,4.4518,4.5321,4.6163,4.6966,4.7318,4.7405,4.7106,4.7068,4.6916,4.6363,4.5535,4.492,4.4644,4.3853,4.3263,4.2986,4.2974,4.2974,4.2974,4.1907,4.1288,4.1288,4.0249,3.9697,3.9697,3.9697,4.0032,4.0655,4.1319,4.2266,4.3448,4.3771,4.4037,4.4303,4.3953,4.3574,4.329,4.329,4.329,4.329,4.329,4.329,4.329,4.329,4.329,4.321,4.2684,4.1726,4.0661,4.0073,3.9899,3.9899,3.9899,3.9899,3.9899,3.9899,3.9899,3.9899,3.9899,3.9899,3.9899,3.9899,3.9899,3.9899,3.9899,4.0361,4.0618,3.9986,4.0404,4.0575,3.9986,3.9899,3.9899,3.9899,3.9446,3.8821,3.7881,3.8853,3.9195,3.8283,3.8214,3.7965,3.7421,3.7392,3.7003,3.6154,3.6665,3.6958,3.6958,3.6958,3.735,3.8144,3.759,3.7329,3.7276,3.7276,3.6977,4.1853,4.4988,4.8156,4.8384,4.8159,4.7569,4.625,4.5259,4.4317,4.3212,4.2886,4.2798,4.2798,4.3062,4.335,4.3589,4.4367,4.5234,4.6024,4.6502,4.6828,4.688,4.6966,4.679,4.6351,4.5284,4.4618,4.4618,4.3601,4.2974,4.2974,4.2974,4.2924,4.2798,4.1844,4.1225,4.1112,4.0187,3.9697,3.9697,3.9697,3.9697,3.9749,4.0743,4.1505,4.2066,4.2848,4.3428,4.379,4.3582,4.3424,4.329,4.329,4.329,4.329,4.329,4.329,4.329,4.329,4.329,4.329,4.329,4.2684,4.1809,4.0887,4.0632,4.0632,4.0632,4.0632,4.0632,4.0632,4.0632,4.0589,4.0332,4.0275,4.0202,3.9942,3.9899,3.9899,3.9899,4.0618,4.1042,4.0375,4.1,4.1378,4.0717,4.0632,4.0632,4.0632,4.1435,4.1441,4.0054,4.0771,4.0773,3.9403,3.9278,3.9196,3.8935,3.8935,3.8755,3.838,3.9203,3.9622,3.9622,3.9622,3.9896,4.0442,3.962,3.897,3.8469,3.8469,3.7861,4.1337,4.3803,4.5957,4.701,4.7594,4.7355,4.5259,4.4706,4.4317,4.3212,4.264,4.2288,4.2288,4.1869,4.1894,4.2886,4.3137,4.3765,4.5347,4.561,4.5824,4.6326,4.6389,4.6363,4.6313,4.5284,4.4618,4.4618,4.3601,4.2974,4.2974,4.2974,4.2803,4.2301,4.1656,4.105,4.0601,3.9998,3.9697,3.9697,3.9697,3.9697,3.9697,3.9839,4.1119,4.332,4.2799,4.3564,4.5105,4.4471,4.3828,4.329,4.329,4.329,4.329,4.329,4.329,4.329,4.329,4.329,4.329,4.329,4.325,4.3115,4.3036,4.2996,4.2996,4.2996,4.2996,4.2996,4.2996,4.2996,4.2725,4.1684,4.142,4.1169,4.0102,3.9899,3.9899,3.9899,3.9986,4.0361,4.1295,4.1545,4.1906,4.286,4.2996,4.2996,4.2996,4.3076,4.3101,4.2906,4.2986,4.3011,4.2857,4.2817,4.2372,4.1331,4.129,4.056,3.8976,3.9032,3.9075,3.9075,3.9075,3.9351,3.9946,3.986,3.98,3.9724,3.9724,3.9094,4.0926,4.3449,4.5742,4.7197,4.7518,4.7041,4.5497,4.4869,4.4317,4.3212,4.259,4.2213,4.2213,4.1706,4.1593,4.2414,4.2539,4.3004,4.4279,4.448,4.4807,4.5711,4.5811,4.5811,4.5811,4.5095,4.4355,4.3689,4.3225,4.2974,4.2974,4.2974,4.2778,4.2225,4.1618,4.1025,4.0526,3.9973,3.9697,3.9697,3.9697,3.9697,3.9697,3.9697,4.1082,4.3462,4.2808,4.3804,4.5828,4.4751,4.4152,4.3843,4.3454,4.329,4.329,4.329,4.329,4.329,4.329,4.329,4.329,4.329,4.329,4.329,4.329,4.329,4.329,4.329,4.329,4.329,4.329,4.329,4.321,4.2725,4.2629,4.2508,4.2044,4.1393,4.0916,4.0916,4.0916,4.1085,4.1504,4.2152,4.2765,4.325,4.329,4.329,4.329,4.329,4.329,4.329,4.329,4.329,4.329,4.329,4.3115,4.2644,4.2629,4.2294,4.1625,4.161,4.161,4.161,4.161,4.17,4.1961,4.1961,4.1616,4.0916,4.0916,4.0304,3.9625,4.2173,4.4598,4.6238,4.6761,4.6602,4.5485,4.4794,4.4116,4.3175,4.2409,4.1907,4.1907,4.1329,4.1028,0.0,0.0,4.2308,4.3401,4.3689,4.4154,4.5121,4.5234,4.5234,4.5234,4.4719,4.3991,4.3049,4.2974,4.2974,4.2974,4.2879,4.2484,4.1932,4.1379,4.0827,4.0275,3.9885,3.9697,3.9697,3.9697,3.9697,3.9697,4.007,4.1455,4.3476,4.3375,4.4376,4.5948,4.5005,4.4377,4.3947,4.3469,4.329,4.329,4.329,4.329,4.329,4.329,4.329,4.329,4.329,4.329,4.329,4.329,4.3076,4.2725,4.2386,4.2563,4.2805,4.2805,4.3036,4.321,4.29,4.2805,4.2684,4.2386,4.1643,4.1085,4.1085,4.1085,4.1211,4.1545,4.229,4.29,4.325,4.329,4.329,4.329,4.329,4.329,4.329,4.329,4.329,4.329,4.329,4.329,4.329,4.329,4.329,4.329,4.329,4.329,4.329,4.329,4.329,4.329,4.329,4.29,4.2111,4.2111,4.1295,3.7097,3.9573,4.1722,4.3345,4.5025,4.6024,4.4895,4.4204,4.3652,4.3087,4.2108,4.13,4.13,4.045,3.9885,4.0438,4.0937,0.0,4.2836,4.3463,4.4003,4.4568,4.4631,4.4631,4.4631,4.4129,4.3576,4.3024,4.2974,4.2974,4.2974,4.2514,4.1907,4.1313,4.0814,4.0262,3.971,3.9697,3.9697,3.9697,3.9697,3.9697,3.9736,4.1032,4.2266,4.3551,4.4826,4.5361,4.5304,4.5289,4.4526,4.3305,4.329,4.329,4.329,4.329,4.329,4.329,4.329,4.329,4.329,4.329,4.329,4.329,4.329,4.2508,4.1378,4.0232,4.0746,4.1629,4.1629,4.2467,4.3036,4.1891,4.1629,4.1295,4.0202,3.9942,3.9899,3.9899,3.9899,4.0275,4.142,4.1587,4.1988,4.3115,4.329,4.329,4.329,4.329,4.329,4.329,4.329,4.329,4.329,4.329,4.329,4.329,4.329,4.329,4.329,4.329,4.329,4.329,4.329,4.329,4.329,4.329,4.329,4.329,4.329,4.2085,3.5603,3.7866,3.9998,4.1377,4.3152,4.4405,4.3664,4.3652,4.3539,4.2665,4.1844,4.1175,4.0852,4.0187,3.9998,4.0874,4.1175,4.1718,4.2823,4.3124,4.3589,4.4518,4.4618,4.448,4.4104,4.3564,4.3162,4.2986,4.2974,4.2811,4.2489,4.1894,4.1517,4.13,4.0802,4.0249,3.9697,3.9697,3.9697,3.9697,3.9697,4.0173,4.0982,4.0503,4.1936,4.478,4.4303,4.4823,4.5963,4.5484,4.4781,4.3958,4.3469,4.329,4.329,4.329,4.329,4.329,4.329,4.329,4.329,4.329,4.329,4.3155,4.2371,4.2412,4.2684,4.2345,4.2467,4.2765,4.2765,4.3036,4.321,4.286,4.2765,4.2684,4.2304,4.1601,4.1042,4.1042,4.1042,4.1169,4.1545,4.2249,4.29,4.325,4.329,4.329,4.329,4.329,4.329,4.329,4.329,4.329,4.329,4.329,4.329,4.329,4.329,4.329,4.329,4.329,4.329,4.329,4.329,4.329,4.329,4.329,4.329,4.329,4.329,4.2508,3.4055,3.6342,3.8675,3.9812,4.1832,4.3401,4.3062,4.3087,4.2924,4.2032,4.1404,4.0874,4.0576,4.0061,3.9923,4.0614,4.0902,4.1342,4.2233,4.2723,4.3313,4.4204,4.4317,4.4104,4.3539,4.3187,4.2974,4.2974,4.2785,4.2577,4.2225,4.1442,4.0974,4.0974,4.0488,4.0036,3.9697,3.9697,3.9697,3.9697,3.9697,4.0121,4.0882,4.0554,4.1739,4.3929,4.3646,4.3917,0.0,4.4567,4.4086,4.3286,4.3279,4.329,4.329,4.329,4.329,4.329,4.329,4.329,4.329,4.329,4.329,4.3155,4.2467,4.2126,4.2003,4.2003,4.2345,4.2684,4.2684,4.2981,4.329,4.329,4.329,4.329,4.329,4.2725,4.2249,4.2249,4.2249,4.2249,4.2249,4.282,4.329,4.329,4.329,4.329,4.329,4.329,4.329,4.329,4.329,4.329,4.329,4.329,4.329,4.329,4.329,4.329,4.329,4.329,4.329,4.329,4.329,4.329,4.329,4.329,4.329,4.329,4.329,4.2684,0.0,3.5029,3.7666,3.8541,4.0816,4.2798,4.2798,4.2489,0.0,4.1392,4.0877,4.0513,4.0463,4.0036,3.971,3.9747,4.0174,4.0727,4.1263,4.2346,4.3212,4.3689,4.3777,4.3589,4.3037,4.2974,4.2961,4.2924,4.2502,4.2175,4.2099,4.1065,4.0501,4.0463,3.9961,3.9697,3.9697,3.9697,3.9697,3.9697,3.9697,3.9736,3.989,4.0982,4.1555,4.1789,4.2882,4.272,4.1785,4.2934,4.2682,4.1726,4.286,4.329,4.329,4.329,4.329,4.329,4.329,4.329,4.329,4.329,4.329,4.329,4.329,4.1823,4.0159,4.0159,4.0916,4.1726,4.1726,4.2508,4.329,4.329,4.329,4.329,4.329,4.329,4.329,4.329,4.329,4.329,4.329,4.329,4.329,4.329,4.329,4.329,4.329,4.329,4.329,4.329,4.329,4.329,4.329,4.329,4.329,4.329,4.329,4.329,4.329,4.329,4.329,4.329,4.329,4.329,4.329,4.329,4.329,4.329,4.329,4.2684,3.1279,0.0,3.6274,3.6185,3.8661,4.1091,0.0,4.1329,4.1379,4.0827,4.0614,4.0388,3.9961,3.9785,3.9835,4.0262,4.0438,4.0852,4.1831,4.2911,4.3501,4.3212,4.3539,4.3589,4.3037,4.2974,4.2798,4.2439,4.2288,4.1835,4.0953,4.0651,4.0325,3.9898,3.976,3.9697,3.9697,3.9697,3.9697,3.9697,3.9697,4.0224,4.1119,4.0453,4.1219,4.3026,4.2363,4.193,4.1785,4.2934,4.2682,4.1726,4.286,4.329,4.329,4.329,4.329,4.329,4.329,4.329,4.329,4.329,4.329,4.329,4.329,4.2915,4.2508,4.2508,4.2684,4.29,4.29,4.3115,4.329,4.329,4.329,4.329,4.329,4.329,4.329,4.329,4.329,4.329,4.329,4.329,4.329,4.329,4.329,4.329,4.329,4.329,4.329,4.329,4.329,4.329,4.329,4.329,4.329,4.329,4.329,4.329,4.329,4.329,4.329,4.329,4.329,4.329,4.329,4.329,4.329,4.329,4.329,4.2684,3.0889,3.286,3.5091,3.5848,3.7888,3.9972,4.0718,4.0874,4.0802,4.0249,4.0136,4.0049,3.9747,3.9697,3.9798,4.0086,4.035,4.099,4.2346,4.3263,4.3689,4.3388,4.3614,4.3589,4.3037,4.2974,4.2803,4.225,4.1919,4.1404,4.0563,4.0275,3.9998,3.9697,3.9697,3.9697,3.9697,3.9697,3.9697,3.9697,3.9697,4.0083,4.0693,4.0032,4.0453,4.1677,4.0759,4.0561,4.09,4.1767,4.1938,4.1726,4.286,4.329,4.329,4.329,4.329,4.329,4.329,4.329,4.329,4.329,4.329,4.329,4.329,4.329,4.329,4.329,4.329,4.329,4.329,4.329,4.329,4.329,4.329,4.329,4.329,4.329,4.329,4.329,4.329,4.329,4.329,4.329,4.329,4.329,4.329,4.329,4.329,4.329,4.329,4.329,4.329,4.329,4.329,4.329,4.329,4.329,4.329,4.329,4.329,4.329,4.329,4.329,4.329,4.329,4.329,4.329,4.329,4.329,4.329,4.2981,3.0967,3.2238,3.3975,3.6147,3.774,3.9156,4.0703,4.0674,4.0237,3.9685,3.9634,3.9672,3.9584,3.9697,3.9823,3.9823,4.035,4.1254,4.266,4.3325,4.3677,4.3677,4.3677,4.3489,4.3024,4.2898,4.2678,4.2125,4.1517,4.0912,4.0425,3.9948,3.9697,3.9697,3.9697,3.9697,3.9697,3.9697,3.9697,3.9697,3.9697,3.9697,3.9697,3.9697,3.9647,3.9546,3.9082,3.9199,3.9704,4.0391,4.1052,4.1726,4.286,4.329,4.329,4.329,4.329,4.329,4.329,4.3364,4.3424,4.3319,4.329,4.329,4.329,4.329,4.329,4.329,4.329,4.329,4.329,4.329,4.329,4.329,4.329,4.329,4.329,4.329,4.329,4.329,4.329,4.329,4.329,4.329,4.329,4.329,4.329,4.329,4.329,4.329,4.329,4.329,4.329,4.329,4.329,4.329,4.329,4.329,4.329,4.329,4.329,4.329,4.329,4.329,4.329,4.329,4.329,4.329,4.329,4.329,4.329,4.329,3.1328,3.1908,3.2933,3.5032,3.6922,3.8521,3.9658,3.9885,3.9659,3.9107,3.9371,3.9546,3.9082,3.976,4.0388,4.0388,4.1241,4.2049,4.2301,4.2748,4.3099,4.3099,4.3099,4.3074,4.2986,4.2615,4.2057,4.1505,4.0953,4.04,3.9848,3.9735,3.9697,3.9697,3.9697,3.9697,3.9697,3.9697,3.9697,3.9697,3.9697,3.9697,3.9697,3.9697,3.9433,3.9045,3.8957,3.8968,3.9097,4.0259,4.1052,4.1726,4.286,4.329,4.329,4.329,4.329,4.329,4.329,4.3663,4.4062,4.3469,4.329,4.329,4.329,4.329,4.329,4.329,4.329,4.329,4.329,4.329,4.329,4.329,4.329,4.329,4.329,4.329,4.329,4.329,4.329,4.329,4.329,4.329,4.329,4.329,4.329,4.329,4.329,4.329,4.329,4.329,4.329,4.329,4.329,4.329,4.329,4.329,4.329,4.329,4.329,4.329,4.329,4.329,4.329,4.329,4.329,4.329,4.329,4.329,4.329,4.329,3.041,3.0957,3.2114,3.4736,3.6349,3.7796,3.9699,3.991,3.9622,3.9371,3.9521,3.9622,3.9371,3.9973,4.0714,4.1304,4.1886,4.2313,4.2615,4.2823,4.2974,4.2974,4.2974,4.2974,4.2974,4.2527,4.1932,4.1326,4.0774,4.0275,3.9722,3.9697,3.9697,3.9697,3.9697,3.9697,3.9697,3.9697,3.9697,3.9697,3.9697,3.9697,3.9697,3.9697,3.9396,3.8906,3.8542,3.8574,3.8906,3.9216,3.9843,4.0746,4.1267,4.2082,4.2969,4.3238,4.3773,4.4295,4.3578,4.4007,4.4796,4.4481,4.4392,4.4332,4.3932,4.3828,4.3738,4.3394,4.329,4.329,4.329,4.329,4.329,4.329,4.329,4.329,4.329,4.329,4.329,4.329,4.329,4.329,4.329,4.329,4.329,4.329,4.329,4.329,4.329,4.329,4.329,4.329,4.329,4.329,4.329,4.329,4.329,4.329,4.329,4.329,4.329,4.329,4.329,4.329,4.329,4.329,4.329,4.329,4.329,4.329,4.329,4.329,2.9853,3.0293,3.1387,3.4107,3.5536,3.7052,4.0009,4.0187,3.9697,3.9697,3.9798,3.981,3.9546,4.0162,4.1028,4.2049,4.2313,4.2552,4.2924,4.2974,4.2974,4.2974,4.2974,4.2974,4.2974,4.2371,4.1794,4.1313,4.0714,4.0136,3.9722,3.9697,3.9697,3.9697,3.9697,3.9697,3.9697,3.9572,3.9572,3.9697,3.9697,3.9697,3.9685,3.9559,3.9195,3.8642,3.8065,3.8188,3.8695,3.8292,3.8908,4.0106,4.0106,4.1021,4.2409,4.3156,4.4122,4.4966,4.4121,4.4579,4.5514,4.5349,4.5289,4.52,4.4691,4.4541,4.4436,4.3888,4.3753,4.3678,4.3379,4.329,4.329,4.329,4.329,4.329,4.329,4.329,4.329,4.329,4.329,4.329,4.329,4.329,4.329,4.329,4.329,4.329,4.329,4.329,4.329,4.329,4.329,4.329,4.329,4.329,4.329,4.329,4.329,4.329,4.329,4.329,4.329,4.329,4.329,4.329,4.329,4.329,4.329,4.329,4.329,4.3155,3.0674,3.0527,3.0623,3.2204,3.3954,3.6276,4.0318,4.0463,3.9697,3.9697,4.0099,4.0149,3.912,4.0224,4.1467,4.2112,4.264,4.2992,4.2974,4.2974,4.2974,4.2974,4.2974,4.2974,4.2974,4.202,4.1326,4.1288,4.035,3.9735,3.9697,3.9697,3.9697,3.9697,3.9697,3.9697,3.9697,3.9182,3.9182,3.9697,3.9697,3.9697,3.9672,3.917,3.8617,3.804,3.7475,3.7599,3.8173,3.8134,3.9078,4.0642,4.0642,4.1014,4.172,4.295,4.3862,4.4529,4.5008,4.5624,4.6142,4.5499,4.5289,4.5289,4.5229,4.5229,4.5214,4.517,4.5155,4.487,4.3604,4.329,4.329,4.329,4.329,4.329,4.329,4.329,4.329,4.329,4.329,4.329,4.329,4.329,4.329,4.329,4.329,4.329,4.329,4.329,4.329,4.329,4.329,4.329,4.329,4.329,4.329,4.329,4.329,4.329,4.329,4.329,4.329,4.329,4.329,4.329,4.329,4.329,4.329,4.329,4.329,4.2725,2.9619,2.9736,3.0247,3.209,3.3595,3.5432,3.8412,3.9646,4.03,4.0651,4.0837,4.0849,4.0488,4.0862,4.1517,4.2125,4.2678,4.2974,4.2974,4.2974,4.2974,4.2974,4.2974,4.2848,4.2552,4.1781,4.115,4.0852,4.0124,3.9697,3.9697,3.9697,3.9697,3.9697,3.9697,3.9534,3.9182,3.8981,3.8793,3.8655,3.9007,3.9371,3.9685,3.9484,3.8881,3.8002,3.7789,3.7463,3.7095,3.7394,3.7934,3.8731,4.105,4.2085,4.2426,4.4063,4.5301,4.6137,4.5552,4.6062,4.689,4.6636,4.6546,4.6471,4.6052,4.5933,4.5843,4.5424,4.5289,4.5095,4.4182,4.3902,4.3838,4.3394,4.329,4.329,4.329,4.329,4.329,4.329,4.329,4.329,4.329,4.329,4.329,4.329,4.329,4.329,4.329,4.329,4.329,4.329,4.329,4.329,4.329,4.329,4.329,4.329,4.329,4.329,4.329,4.329,4.329,4.329,4.329,4.329,4.329,4.329,4.329,4.329,4.329,4.3076,2.8955,2.9141,2.9802,3.1662,3.3225,3.4933,3.7364,3.9292,4.0676,4.1175,4.115,4.1025,4.1025,4.1175,4.1467,4.1844,4.2509,4.2974,4.2974,4.2974,4.2974,4.2974,4.2974,4.276,4.2263,4.1656,4.1062,4.0563,4.0011,3.9697,3.9697,3.9697,3.9697,3.9697,3.9697,3.9509,3.9132,3.8781,3.8492,3.8278,3.8316,3.8718,3.9433,3.9245,3.8743,3.799,3.7638,3.7161,3.6694,3.7023,3.7665,3.8579,4.1321,4.26,4.3171,4.4807,4.5689,4.6018,4.5539,4.5734,4.6166,4.6594,4.6682,4.6696,4.6627,4.6349,4.6015,4.5968,4.565,4.5274,4.4986,4.4781,4.4511,4.4062,4.3753,4.3604,4.3604,4.3439,4.329,4.329,4.329,4.329,4.329,4.329,4.329,4.329,4.329,4.329,4.329,4.329,4.329,4.329,4.329,4.329,4.329,4.329,4.329,4.329,4.329,4.329,4.329,4.329,4.329,4.329,4.329,4.329,4.329,4.329,4.329,4.329,4.329,4.3115,2.9033,2.8916,2.9233,3.0691,3.2549,3.4774,3.7785,3.9508,4.0676,4.1188,4.0915,4.0538,4.0538,4.0924,4.13,4.13,4.2258,4.2974,4.2974,4.2974,4.2974,4.2974,4.2974,4.2803,4.225,4.1643,4.105,4.0551,4.0011,3.9697,3.9697,3.9685,3.9685,3.9697,3.9685,3.9672,3.9672,3.8567,3.8278,3.8881,3.7713,3.7776,3.8894,3.8266,3.8002,3.7939,3.6895,3.6732,3.7186,3.7199,3.8643,4.0848,4.138,4.2363,4.3646,4.4918,4.4595,4.3693,4.4918,4.4549,4.374,4.4978,4.5403,4.5644,4.6916,4.6403,4.5689,4.6931,4.6403,4.5544,4.6172,4.5828,4.5304,4.5289,4.4796,4.4332,4.4332,4.3768,4.3305,4.3305,4.3305,4.3305,4.329,4.329,4.329,4.329,4.329,4.329,4.329,4.329,4.329,4.329,4.329,4.329,4.329,4.329,4.329,4.329,4.329,4.329,4.329,4.329,4.329,4.329,4.329,4.329,4.329,4.329,4.329,4.329,4.329,4.2684,2.9033,2.8916,2.9094,2.9829,3.2552,3.5369,3.6559,3.9008,4.1367,4.2296,4.2057,4.1722,4.1722,4.1806,4.1907,4.1907,4.2509,4.2974,4.2974,4.2974,4.2836,4.2502,4.2451,4.2032,4.1091,4.0852,4.0526,3.9986,3.9785,3.9697,3.9697,3.932,3.9295,3.9685,3.8919,3.8504,3.8504,3.7789,3.7324,3.7159,3.7209,3.7563,3.8253,3.809,3.7789,3.7412,3.7086,3.7036,3.7249,3.804,3.9032,4.0134,4.1204,4.1838,4.2315,4.3598,4.3834,4.3551,4.3929,4.4396,4.4872,4.5252,4.6018,4.6829,4.7207,4.7019,4.6829,4.7207,4.7019,4.6784,4.6969,4.686,4.6471,4.5514,4.5155,4.5005,4.5005,4.4855,4.4571,4.4067,4.4018,4.3828,4.3379,4.329,4.329,4.329,4.329,4.329,4.329,4.329,4.329,4.329,4.329,4.329,4.329,4.329,4.329,4.329,4.329,4.329,4.329,4.329,4.329,4.329,4.329,4.329,4.329,4.329,4.329,4.329,4.329,4.3115,2.8994,2.9043,2.9443,3.0469,3.311,3.6052,3.8035,4.016,4.1907,4.2798,4.2371,4.1831,4.1831,4.1831,4.1756,4.1543,4.22,4.2572,4.2359,4.2333,4.2208,4.1869,4.1831,4.1492,4.0601,4.0513,4.0287,3.9735,3.9697,3.9597,3.9383,3.9108,3.8919,3.9019,3.8366,3.8002,3.8002,3.7462,3.7023,3.6732,3.6857,3.7023,3.7362,3.7575,3.75,3.7199,3.7412,3.7513,3.76,3.873,3.9728,4.0554,4.1319,4.1936,4.2461,4.3218,4.3504,4.3504,4.3504,4.4022,4.4734,4.5252,4.5928,4.6638,4.7164,4.6975,4.6638,4.7164,4.6931,4.6638,4.7164,4.7309,4.71,4.6292,4.5888,4.5708,4.5708,4.5484,4.517,4.4781,4.4706,4.4586,4.4182,4.4067,4.4018,4.3723,4.3469,4.329,4.329,4.329,4.329,4.329,4.329,4.329,4.329,4.329,4.329,4.329,4.329,4.329,4.329,4.329,4.329,4.329,4.329,4.329,4.329,4.329,4.329,4.329,4.329,4.329,2.8916,2.9209,2.9944,3.176,3.3899,3.6697,4.1082,4.2137,4.2288,4.2841,4.207,4.1288,4.1288,4.1288,4.1125,4.0676,4.143,4.1907,4.1363,4.1288,4.1263,4.1213,4.1213,4.1,4.0488,4.0438,4.0237,3.9735,3.9697,3.9459,3.8957,3.8869,3.8555,3.8027,3.7914,3.7889,3.7939,3.7387,3.7111,3.7098,3.6644,3.6405,3.643,3.6872,3.7136,3.7211,3.7764,3.804,3.8165,3.9245,4.0364,4.1406,4.1406,4.2119,4.317,4.3266,4.3266,4.317,4.3409,4.3504,4.3693,4.4978,4.5494,4.5779,4.6829,4.6403,4.5779,4.6682,4.6299,4.5824,4.6873,4.7207,4.7309,4.7309,4.6845,4.6369,4.6369,4.5918,4.5454,4.5394,4.5394,4.5364,4.5304,4.5289,4.5095,4.4496,4.3798,4.3379,4.3379,4.3334,4.329,4.329,4.329,4.329,4.329,4.329,4.329,4.329,4.329,4.329,4.329,4.329,4.329,4.329,4.329,4.329,4.329,4.329,4.329,4.329,4.329,4.329,2.8916,2.8984,2.9293,3.0386,3.3332,3.6943,4.0644,4.1517,4.1668,4.2275,4.1806,4.1288,4.1288,4.1288,4.125,4.1125,4.13,4.148,4.13,4.1288,4.1125,4.0752,4.0701,4.0475,3.9923,3.9873,3.9823,3.9697,3.9697,3.9459,3.8957,3.8442,3.814,3.8002,3.7161,3.6971,3.7362,3.6857,3.6581,3.6581,3.6468,3.6405,3.6405,3.6531,3.682,3.7211,3.7764,3.8266,3.8743,3.9421,3.9839,4.0121,4.0121,4.0262,4.0655,4.1654,4.1356,4.0794,4.2786,4.3504,4.3693,4.4978,4.6062,4.6785,4.6018,4.6299,4.6535,4.478,4.5539,4.6726,4.6018,4.6535,4.7309,4.7309,4.7189,4.71,4.71,4.698,4.6711,4.6202,4.6055,4.5933,4.5394,4.5289,4.5244,4.511,4.4526,4.4067,4.4067,4.3618,4.329,4.329,4.329,4.329,4.329,4.329,4.329,4.329,4.329,4.329,4.329,4.329,4.329,4.329,4.329,4.329,4.329,4.329,4.329,4.329,4.329,4.329,2.9121,2.9238,2.9862,3.2369,3.4573,3.7002,4.0533,4.1075,4.1028,4.1317,4.1141,4.094,4.094,4.094,4.0811,4.0588,4.0777,4.0852,4.0588,4.0551,4.0438,4.0162,4.0124,4.0011,3.9722,3.9697,3.9584,3.932,3.9295,3.8944,3.8115,3.7776,3.7487,3.7224,3.6707,3.6543,3.6784,3.6556,3.6405,3.6405,3.6405,3.6543,3.6807,3.6807,3.7109,3.7613,3.8178,3.8592,3.8957,3.9471,3.9697,3.9697,3.9697,3.9697,3.9788,4.0453,4.0642,4.0794,4.2119,4.2978,4.3598,4.4256,4.4918,4.5358,4.4688,4.5403,4.6107,4.478,4.5824,4.7164,4.6491,4.6785,4.7309,4.7309,4.7309,4.7309,4.7309,4.7309,4.7204,4.686,4.68,4.6681,4.6322,4.5992,4.5783,4.5783,4.4945,4.4317,4.4317,4.3693,4.329,4.329,4.329,4.329,4.329,4.329,4.329,4.329,4.329,4.329,4.329,4.329,4.329,4.329,4.329,4.329,4.329,4.329,4.329,4.329,4.329,4.329,2.9238,2.957,3.0634,3.4522,3.5725,3.6786,3.9925,4.0477,4.0375,4.0375,4.0375,4.0375,4.0375,4.0375,4.0224,3.9772,4.0074,4.0212,3.976,3.9697,3.9697,3.9697,3.9697,3.9697,3.9697,3.9697,3.9471,3.8957,3.8919,3.8429,3.7249,3.7186,3.6923,3.643,3.6405,3.6405,3.6405,3.6405,3.6405,3.6405,3.6405,3.6744,3.7324,3.7324,3.7626,3.8178,3.8668,3.8931,3.9044,3.9509,3.9697,3.9697,3.9697,3.9697,3.9749,3.9929,4.0554,4.1319,4.1789,4.2461,4.3266,4.3693,4.3834,4.3834,4.3834,4.4734,4.5644,4.5207,4.6166,4.7251,4.7019,4.7164,4.7309,4.7309,4.7309,4.7309,4.7309,4.7309,4.7309,4.7309,4.7309,4.7309,4.7309,4.686,4.6444,4.6444,4.5349,4.4526,4.4646,4.3947,4.3469,4.3469,4.3469,4.3424,4.3305,4.329,4.329,4.329,4.329,4.329,4.329,4.329,4.329,4.329,4.329,4.329,4.329,4.329,4.329,4.329,4.329,4.329,2.8877,2.9551,3.0591,3.2399,3.413,3.584,3.7602,3.8951,3.9798,3.9798,3.9798,3.9798,3.9798,3.9798,3.9772,3.9697,3.976,3.9772,3.9697,3.9697,3.9697,3.9697,3.9697,3.9697,3.9697,3.9697,3.9471,3.8957,3.8919,3.8429,3.7249,3.7186,3.6923,3.643,3.6405,3.6405,3.6405,3.6405,3.6405,3.6405,3.6405,3.6897,3.7902,3.7902,3.8216,3.8755,3.8894,3.9145,3.9584,3.9659,3.9697,3.9697,3.9697,3.9697,3.9839,4.0932,4.0743,4.0262,4.2509,4.2641,4.2217,4.4442,4.5161,4.5161,4.5161,4.6018,4.6594,4.4349,4.5448,4.7062,4.5928,4.6447,4.7309,4.7309,4.7309,4.7309,4.7309,4.7309,4.7309,4.7309,4.7309,4.7309,4.7309,4.7234,4.7174,4.7174,4.6022,4.5379,4.5935,4.496,4.4182,4.4182,4.4182,4.3917,4.3349,4.329,4.329,4.329,4.329,4.329,4.329,4.329,4.329,4.329,4.329,4.329,4.329,4.329,4.329,4.329,4.329,4.329,2.8447,2.9189,3.0277,3.1989,3.3671,3.5375,3.7127,3.8635,3.9697,3.9697,3.9697,3.9697,3.9697,3.9697,3.9697,3.9697,3.9697,3.9697,3.9697,3.9697,3.9697,3.9697,3.9697,3.9697,3.9697,3.9421,3.8994,3.8429,3.8103,3.7624,3.6807,3.6769,3.6656,3.6417,3.6405,3.6405,3.6405,3.6405,3.6405,3.6405,3.6405,3.6935,3.8002,3.8002,3.8492,3.9333,3.9333,3.9471,3.9697,3.9697,3.9697,3.9697,3.9697,3.9697,3.9788,4.0313,4.0173,3.9839,4.0982,4.0982,4.0844,4.2689,4.3266,4.3409,4.4116,4.5207,4.6018,4.4872,4.5869,4.7164,4.6594,4.6873,4.7309,4.7309,4.7309,4.7309,4.7309,4.7309,4.7309,4.7309,4.7309,4.7309,4.7309,4.7309,4.7309,4.7309,4.6486,4.5978,4.6249,4.5469,4.487,4.487,4.4526,4.4197,4.3873,4.3499,4.329,4.329,4.329,4.329,4.329,4.329,4.329,4.329,4.329,4.329,4.329,4.329,4.329,4.329,4.329,4.329,2.7881,2.8594,2.9583,3.1021,3.2714,3.4531,3.6359,3.7988,3.9245,3.9633,3.9697,3.9697,3.9697,3.9697,3.9697,3.9697,3.9584,3.9484,3.9484,3.9484,3.9484,3.9484,3.9609,3.9697,3.9697,3.9195,3.863,3.8052,3.75,3.6996,3.6443,3.6405,3.6405,3.6405,3.6405,3.6405,3.6405,3.6405,3.6405,3.6405,3.6405,3.6935,3.8002,3.8002,3.8617,3.9697,3.9697,3.9697,3.9697,3.9697,3.9697,3.9697,3.9697,3.9697,3.9697,3.9697,3.9697,3.9697,3.9697,3.9929,4.0415,4.1654,4.2315,4.2786,4.4069,4.5115,4.5869,4.5869,4.6594,4.7309,4.7309,4.7309,4.7309,4.7309,4.7309,4.7309,4.7309,4.7309,4.7309,4.7309,4.7309,4.7309,4.7309,4.7309,4.7309,4.7309,4.6741,4.6339,4.6503,4.5978,4.5559,4.5559,4.5125,4.4751,4.4586,4.4122,4.3798,4.3798,4.3798,4.3723,4.3544,4.3544,4.3469,4.329,4.329,4.329,4.329,4.329,4.329,4.329,4.329,4.329,2.707,2.7705,2.8413,2.8486,3.052,3.2927,3.4421,3.6247,3.8019,3.9413,3.9697,3.9697,3.9697,3.9697,3.9697,3.9697,3.9258,3.8957,3.8957,3.8957,3.8957,3.8957,3.9371,3.9697,3.9697,3.9195,3.863,3.8052,3.75,3.6996,3.6443,3.6405,3.6405,3.6405,3.6405,3.6405,3.6405,3.6405,3.6405,3.6405,3.6405,3.6935,3.8002,3.8002,3.8617,3.9697,3.9697,3.9697,3.9697,3.9697,3.9697,3.9697,3.9697,3.9697,3.9697,3.9697,3.9697,3.9697,3.9697,4.0503,4.169,4.2978,4.421,4.5448,4.6726,4.7164,4.7207,4.7207,4.7251,4.7309,4.7309,4.7309,4.7309,4.7309,4.7309,4.7309,4.7309,4.7309,4.7309,4.7309,4.7309,4.7309,4.7309,4.7309,4.7309,4.7309,4.6741,4.6546,4.7174,4.6681,4.6277,4.6277,4.6204,4.5963,4.5304,4.5214,4.52,4.52,4.52,4.4915,4.4287,4.4272,4.3932,4.3305,4.329,4.329,4.329,4.329,4.329,4.329,4.329,4.329,2.6689,2.7236,2.7959,2.8223,2.9774,3.1487,3.2556,3.4287,3.6054,3.7501,3.8052,3.8582,3.953,3.9697,3.9697,3.9697,3.9233,3.8919,3.8919,3.8555,3.8454,3.8831,3.9095,3.9308,3.9659,3.8856,3.8228,3.8027,3.7161,3.6619,3.6417,3.6405,3.6405,3.6405,3.6405,3.6405,3.6405,3.6405,3.6405,3.6405,3.6405,3.6935,3.8002,3.8002,3.8617,3.9697,3.9697,3.9697,3.9697,3.9697,3.9697,3.9697,3.9697,3.9697,3.9697,3.9697,3.9697,3.9697,3.9697,3.9981,4.0743,4.2834,4.3834,4.4595,4.6682,4.6726,4.6255,4.7062,4.6726,4.6255,4.7062,4.7309,4.7309,4.7309,4.7309,4.7309,4.7309,4.7309,4.7309,4.7309,4.7309,4.7309,4.7309,4.7309,4.7309,4.7309,4.7115,4.704,4.7279,4.71,4.695,4.695,4.6576,4.6175,4.5978,4.5544,4.5289,4.5289,4.5289,4.5185,4.4945,4.4945,4.4631,4.3932,4.3958,4.3708,4.329,4.329,4.329,4.329,4.329,4.329,2.624,2.6689,2.7334,2.7764,2.8838,3.0076,3.1293,3.2997,3.4816,3.6476,3.7449,3.831,3.9492,3.9546,3.9421,3.9421,3.8793,3.8304,3.8304,3.7977,3.7939,3.8517,3.8806,3.9082,3.9634,3.8843,3.8216,3.8027,3.7161,3.6606,3.6417,3.6405,3.6405,3.6405,3.6405,3.6405,3.6405,3.6405,3.6505,3.6681,3.6681,3.7224,3.8304,3.8304,3.8806,3.9697,3.9697,3.9697,3.9697,3.9697,3.9697,3.9697,3.9697,3.9697,3.9697,3.9697,3.9697,3.9697,3.9697,3.9981,4.0605,4.2315,4.317,4.3882,4.6018,4.6062,4.5689,4.6931,4.6682,4.6211,4.7062,4.7309,4.7309,4.7309,4.7309,4.7309,4.7309,4.7309,4.7309,4.7309,4.7309,4.7309,4.7309,4.7309,4.7309,4.7309,4.7309,4.7309,4.7309,4.7309,4.7309,4.7309,4.692,4.6651,4.6651,4.6232,4.5963,4.5963,4.5963,4.5873,4.5648,4.5648,4.5319,4.4661,4.4646,4.4317,4.3618,4.3409,4.329,4.329,4.329,4.329,0.0,0.0,0.0,2.6894,2.7617,2.8714,3.0598,3.241,3.4257,3.6306,3.7829,3.8981,3.9534,3.9195,3.8869,3.8869,3.7902,3.7199,3.7211,3.7199,3.7387,3.7939,3.8517,3.9082,3.9622,3.9182,3.8642,3.8078,3.75,3.6948,3.6455,3.6417,3.6405,3.6405,3.6405,3.6405,3.6405,3.6405,3.6681,3.7186,3.7186,3.7776,3.8919,3.8919,3.917,3.9697,3.9697,3.9697,3.9697,3.9697,3.9697,3.9697,3.9697,3.9697,3.9697,3.9697,3.9697,3.9697,3.9697,4.0503,4.1555,4.1604,4.2461,4.374,4.5024,4.5403,4.5689,4.6946,4.7281,4.7281,4.7339,4.7339,4.7324,4.7309,4.7309,4.7309,4.7309,4.7309,4.7309,4.7309,4.7309,4.7309,4.7309,4.7309,4.7309,4.7309,4.7309,4.7309,4.7309,4.7309,4.7309,4.7309,4.7309,4.7309,4.7309,4.7309,4.7309,4.7309,4.7309,4.7025,4.6339,4.6309,4.6022,4.5334,4.5334,4.5005,4.4347,4.3648,4.3319,4.329,4.329,4.329,2.5771,0.0,0.0,0.0,0.0,0.0,2.8398,2.9715,3.1343,3.3731,3.5208,3.6573,3.8154,3.8027,3.7651,3.7651,3.7387,3.7324,3.7726,3.7437,3.7387,3.7939,3.8517,3.8982,3.9082,3.9007,3.8856,3.8642,3.7726,3.7123,3.7008,3.6619,3.6405,3.6405,3.6405,3.6405,3.6405,3.6405,3.6681,3.7186,3.7186,3.7776,3.8919,3.8919,3.917,3.9697,3.9697,3.9697,3.9697,3.9697,3.9697,3.9697,3.9697,3.9697,3.9697,3.9697,3.9697,3.9697,3.9697,3.9929,4.0364,4.1319,4.2461,4.374,4.5024,4.5403,4.579,4.754,4.7377,4.6854,4.7777,4.8012,4.7893,4.7414,4.7309,4.7309,4.7309,4.7309,4.7309,4.7309,4.7309,4.7309,4.7309,4.7309,4.7309,4.7309,4.7309,4.7309,4.7309,4.7309,4.7309,4.7309,4.7309,4.7309,4.7309,4.7309,4.7309,4.7309,4.7309,4.7219,4.704,4.704,4.6726,4.6052,4.6037,4.5693,4.502,4.4362,4.3753,4.329,4.329,4.329,2.678,2.6667,2.6821,2.6487,0.0,0.0,2.8215,2.9493,3.1094,3.3542,3.5035,3.6321,3.7741,3.755,3.7186,3.7186,3.7186,3.7299,3.7613,3.7387,3.7475,3.8266,3.8668,3.9007,3.9195,3.922,3.912,3.8944,3.804,3.7324,3.6908,3.6581,3.6405,3.6405,3.6405,3.6405,3.6405,3.6405,3.6807,3.7525,3.7525,3.8115,3.922,3.922,3.9383,3.9697,3.9697,3.9697,3.9697,3.9697,3.9697,3.9697,3.9697,3.9697,3.9697,3.9697,3.9697,3.9697,3.9697,3.9697,3.9929,4.1169,4.2119,4.3026,4.4826,4.5403,4.5819,4.7763,4.7955,4.7696,4.8164,4.8282,4.8117,4.7459,4.7309,4.7309,4.7309,4.7309,4.7309,4.7309,4.7309,4.7309,4.7309,4.7309,4.7309,4.7309,4.7309,4.7309,4.7309,4.7309,4.7309,4.7309,4.7309,4.7309,4.7309,4.7309,4.7309,4.7309,4.7309,4.7309,4.7309,4.7309,4.713,4.6741,4.6741,4.6396,4.5723,4.4766,4.4122,4.3708,4.3708,4.3883,2.8411,2.7973,2.7783,2.701,2.6854,0.0,2.9321,3.0767,3.2354,3.4499,3.5929,3.701,3.7613,3.7337,3.7023,3.7086,3.7149,3.7211,3.7262,3.7337,3.7739,3.8806,3.8931,3.9132,3.9559,3.9659,3.9484,3.8994,3.8366,3.7525,3.6468,3.6405,3.6405,3.6405,3.6405,3.6405,3.6405,3.6468,3.6973,3.8002,3.8078,3.8655,3.9697,3.9697,3.9697,3.9697,3.9697,3.9697,3.9697,3.9697,3.9697,3.9697,3.9697,3.9697,3.9697,3.9697,3.9697,3.9749,3.9839,3.9929,4.0121,4.1406,4.1789,4.2217,4.4503,4.5355,4.5935,4.7956,4.897,4.9374,4.8671,4.8446,4.8222,4.7578,4.7354,4.7309,4.7309,4.7309,4.7309,4.7309,4.7309,4.7309,4.7309,4.7309,4.7309,4.7309,4.7309,4.7309,4.7309,4.7309,4.7309,4.7309,4.7309,4.7309,4.7309,4.7309,4.7309,4.7309,4.7309,4.7309,4.7309,4.7309,4.7309,4.7309,4.7309,4.698,4.6279,4.505,4.4421,4.4421,4.4421,4.4736,3.0426,3.0356,3.0182,2.961,2.977,0.0,2.9984,3.0993,3.2217,3.3019,3.3922,3.4839,3.5796,3.5897,3.6006,3.6505,3.6945,3.7337,3.7789,3.8241,3.868,3.8894,3.927,3.9396,3.9108,3.9433,3.9647,3.9534,3.858,3.7525,3.6468,3.6405,3.6405,3.6405,3.6405,3.6405,3.6405,3.6857,3.7362,3.8015,3.8479,3.9044,3.9697,3.9697,3.9697,3.9697,3.9697,3.9697,3.9697,3.9697,3.9697,3.9697,3.9697,3.9697,3.9697,3.9697,3.9697,3.9839,4.0882,4.1219,4.1455,4.2738,4.3122,4.3218,4.374,4.4982,4.6734,4.9129,5.0331,5.0676,4.9986,4.9464,4.8955,4.8252,4.7683,4.7309,4.7309,4.7309,4.7309,4.7309,4.7309,4.7309,4.7309,4.7309,4.7309,4.7309,4.7309,4.7309,4.7309,4.7309,4.7309,4.7309,4.7309,4.7309,4.7309,4.7309,4.7309,4.7309,4.7309,4.7309,4.7309,4.7309,4.7309,4.7309,4.7309,4.698,4.6279,4.5499,4.5095,4.5095,4.5095,4.517,3.2194,3.1935,3.1736,3.0798,3.06,0.0,0.0,3.1784,3.2486,3.3801,3.421,3.4562,3.5345,3.527,3.527,3.5868,3.642,3.6973,3.7525,3.8329,3.902,3.9245,3.9534,3.9584,3.9308,3.9534,3.9459,3.8894,3.8329,3.7525,3.6468,3.6405,3.6405,3.6405,3.6405,3.6405,3.6405,3.6958,3.7462,3.8015,3.8592,3.9157,3.9697,3.9697,3.9697,3.9697,3.9697,3.9697,3.9697,3.9697,3.9697,3.9697,3.9697,3.9697,3.9697,3.9697,3.9697,3.9788,4.0415,4.0642,4.0844,4.2119,4.2544,4.2786,4.4069,4.6051,4.8186,4.9759,5.0659,5.1065,5.036,4.9748,4.9149,4.8446,4.7788,4.7309,4.7309,4.7309,4.7309,4.7309,4.7309,4.7309,4.7309,4.7309,4.7309,4.7309,4.7309,4.7309,4.7309,4.7309,4.7309,4.7309,4.7309,4.7309,4.7309,4.7309,4.7309,4.7309,4.7309,4.7309,4.7309,4.7309,4.7309,4.7309,4.7309,4.7145,4.6815,4.6471,4.6127,4.5813,4.5813,4.5978,3.3948,3.3594,3.3253,3.2029,3.1457,3.1542,0.0,0.0,0.0,3.4674,3.4668,3.4575,3.5082,3.4818,3.4776,3.5395,3.6006,3.6606,3.7111,3.8065,3.8868,3.932,3.9371,3.9421,3.9521,3.9534,3.9107,3.809,3.7902,3.7412,3.6455,3.6405,3.6405,3.6405,3.6405,3.6405,3.6405,3.701,3.7563,3.8015,3.8705,3.927,3.9697,3.9697,3.9697,3.9697,3.9697,3.9697,3.9697,3.9697,3.9697,3.9697,3.9697,3.9697,3.9697,3.9697,3.9697,3.9736,3.9981,4.0083,4.0262,4.1555,4.2052,4.26,4.506,4.7336,4.9295,5.015,5.0764,5.1094,5.0524,4.9942,4.9314,4.879,4.8057,4.7489,4.7489,4.7399,4.7309,4.7309,4.7309,4.7309,4.7309,4.7309,4.7309,4.7309,4.7309,4.7309,4.7309,4.7309,4.7309,4.7309,4.7309,4.7309,4.7309,4.7309,4.7309,4.7309,4.7309,4.7309,4.7309,4.7309,4.7309,4.7309,4.7309,4.7309,4.7309,4.7309,4.704,4.6516,4.6516,4.68,3.6041,3.6016,3.5744,3.4574,3.4603,3.4553,3.3352,0.0,3.3652,3.3432,0.0,3.3432,3.3985,0.0,0.0,3.5332,3.6006,3.6606,3.7111,3.7713,3.8128,3.8191,3.8203,3.8404,3.8919,3.9007,3.8693,3.8052,3.755,3.701,3.6443,3.6405,3.6405,3.6405,3.6405,3.6405,3.6405,3.7387,3.7939,3.8015,3.9082,3.9634,3.9697,3.9697,3.9697,3.9697,3.9697,3.9697,3.9697,3.9697,3.9697,3.9697,3.9697,3.9697,3.9697,3.9697,3.9697,3.9839,4.0982,4.1356,4.1604,4.2882,4.3671,4.4546,4.6542,4.7753,4.8796,5.0557,5.1154,5.1199,5.1124,5.0569,5.0061,4.9986,4.9075,4.8177,4.8177,4.7713,4.7309,4.7309,4.7309,4.7309,4.7309,4.7309,4.7309,4.7309,4.7309,4.7309,4.7309,4.7309,4.7309,4.7309,4.7309,4.7309,4.7309,4.7309,4.7309,4.7309,4.7309,4.7309,4.7309,4.7309,4.7309,4.7309,4.7309,4.7309,4.7309,4.7309,4.7264,4.7189,4.7189,4.7234,3.6405,3.6405,3.6216,3.5345,3.5094,3.4756,3.3784,3.3483,3.3445,3.3533,0.0,0.0,0.0,0.0,0.0,0.0,3.5529,3.5968,3.6207,3.6386,3.6887,3.7889,3.8002,3.8103,3.8341,3.8366,3.8128,3.7575,3.7312,3.6996,3.6443,3.6405,3.6405,3.6405,3.6405,3.6568,3.6835,3.7613,3.8178,3.8517,3.932,3.9697,3.9697,3.9697,3.9697,3.9697,3.9697,3.9697,3.9697,3.9697,3.9697,3.9697,3.9697,3.9697,3.9697,3.9697,4.0173,4.0882,4.1406,4.207,4.284,4.376,4.4769,4.5888,4.7472,4.861,4.9666,5.0879,5.1214,5.1214,5.1214,5.0689,5.0196,5.0196,4.9523,4.8745,4.8371,4.8072,4.7758,4.7384,4.7309,4.7309,4.7309,4.7309,4.7309,4.7309,4.7309,4.7309,4.7309,4.7309,4.7309,4.7309,4.7309,4.7309,4.7309,4.7309,4.7309,4.7309,4.7309,4.7309,4.7309,4.7309,4.7309,4.7309,4.7309,4.7309,4.7309,4.7309,4.7309,4.7309,4.7309,4.7309,3.6405,3.6405,3.6241,3.5445,3.4969,3.4537,3.3834,3.3483,3.342,3.3822,3.3709,0.0,0.0,0.0,3.4261,3.4663,0.0,3.532,3.547,3.537,3.5771,3.7174,3.76,3.7789,3.7789,3.7789,3.7613,3.7211,3.7048,3.6832,3.643,3.6405,3.6405,3.6405,3.6405,3.6606,3.7008,3.75,3.799,3.8466,3.9132,3.9471,3.9471,3.9622,3.9697,3.9697,3.9697,3.9697,3.9697,3.9697,3.9697,3.9697,3.9697,3.9697,3.9697,3.9697,4.0503,4.1604,4.1604,4.2555,4.3917,4.4743,4.5884,4.7171,4.8443,4.9604,5.0569,5.1079,5.1214,5.1214,5.1214,5.0823,5.0465,5.0465,5.0002,4.9404,4.8925,4.8686,4.8416,4.7938,4.7698,4.7578,4.7578,4.7429,4.7309,4.7309,4.7309,4.7309,4.7309,4.7309,4.7309,4.7309,4.7309,4.7309,4.7309,4.7309,4.7309,4.7309,4.7309,4.7309,4.7309,4.7309,4.7309,4.7309,4.7309,4.7309,4.7309,4.7309,4.7309,4.7309,4.7309,4.7309,3.6405,3.6405,3.6153,3.5014,3.4693,3.4437,3.3357,3.3508,3.3872,3.3897,3.4311,3.4675,3.4688,3.4655,3.47,3.468,3.4693,0.0,0.0,3.5044,3.4919,3.5508,3.6558,3.7211,3.7211,3.7211,3.7199,3.7186,3.6732,3.643,3.6405,3.6405,3.6405,3.6405,3.6405,3.6417,3.643,3.6935,3.7224,3.7249,3.8416,3.8944,3.8957,3.9446,3.9697,3.9697,3.9697,3.9697,3.9697,3.9697,3.9697,3.9697,3.9697,3.9697,3.9697,3.9697,4.0503,4.1604,4.1604,4.2873,4.4663,4.5938,4.7207,4.847,4.9766,5.0629,5.1184,5.1214,5.1214,5.1214,5.1214,5.1199,5.1184,5.1184,5.0644,5.0166,5.0136,4.9688,4.9269,4.9254,4.8686,4.8252,4.8252,4.7728,4.7309,4.7309,4.7309,4.7309,4.7309,4.7309,4.7309,4.7309,4.7309,4.7309,4.7309,4.7309,4.7309,4.7309,4.7309,4.7309,4.7309,4.7309,4.7309,4.7309,4.7309,4.7309,4.7309,4.7309,4.7309,4.7309,4.7309,4.7309,3.6405,3.6405,3.6229,3.5454,3.4944,3.4525,3.3796,3.3771,3.3897,3.3897,3.4336,3.468,3.468,3.4969,3.5219,3.5219,3.5567,3.5617,0.0,3.4525,3.4387,3.4893,3.5608,3.6245,3.6656,3.6681,3.6681,3.6681,3.6518,3.6405,3.6405,3.6405,3.6568,3.6945,3.6958,3.7073,3.745,3.7638,3.7726,3.7739,3.8504,3.8919,3.8944,3.9446,3.9697,3.9697,3.9697,3.9697,3.9697,3.9697,3.9697,3.9697,3.9697,3.9697,3.9697,3.9697,4.0503,4.1743,4.2941,4.4428,4.594,4.7209,4.8464,4.9715,5.0611,5.1003,5.1214,5.1214,5.1214,5.1214,5.1214,5.1214,5.1214,5.1214,5.105,5.0719,5.0285,5.0016,4.9778,4.9404,4.9134,4.879,4.8356,4.8102,4.7803,4.7369,4.7309,4.7309,4.7309,4.7309,4.7309,4.7309,4.7309,4.7309,4.7309,4.7309,4.7309,4.7309,4.7309,4.7309,4.7309,4.7309,4.7309,4.7309,4.7309,4.7309,4.7309,4.7309,4.7309,4.7309,4.7309,4.7309,3.6405,3.6405,3.6279,3.5633,3.5232,3.4818,3.4324,3.4349,3.4487,3.4487,3.4926,3.5303,3.5303,3.5592,3.5768,0.0,0.0,3.5692,0.0,3.4299,3.4324,3.4675,3.5157,3.5768,3.6355,3.6194,3.6157,3.6392,3.6182,3.6157,3.6405,3.6405,3.6669,3.7161,3.7186,3.745,3.8002,3.8002,3.8002,3.8015,3.8592,3.8919,3.8944,3.9446,3.9697,3.9697,3.9697,3.9697,3.9697,3.9697,3.9697,3.9697,3.9697,3.9697,3.9697,3.9697,4.0632,4.211,4.3729,4.5162,4.65,4.7793,4.8927,5.0008,5.0939,5.1214,5.1214,5.1214,5.1214,5.1214,5.1214,5.1214,5.1214,5.1214,5.1214,5.1063,5.0629,5.0539,5.0466,5.0047,4.9763,4.9479,4.9045,4.879,4.8341,4.7444,4.7309,4.7309,4.7309,4.7309,4.7309,4.7309,4.7309,4.7309,4.7309,4.7309,4.7309,4.7309,4.7309,4.7309,4.7309,4.7309,4.7309,4.7309,4.7309,4.7309,4.7309,4.7309,4.7309,4.7309,4.7309,4.7309]}]]